     2              OBSERVATION DATA    GPS                 RINEX VERSION / TYPE
teqc 2002Apr3 20050208 23:02:03UTC                          PGM / RUN BY / DATE
                                                            COMMENT
L2: 1 -> 1; 150 -> 5; 250 -> 9                              COMMENT
L2: 1 -> 1; 150 -> 5; 250 -> 9                              COMMENT
L2: 1 -> 1; 150 -> 5; 250 -> 9                              COMMENT
L2: 1 -> 1; 150 -> 5; 250 -> 9                              COMMENT
L2: 1 -> 1; 150 -> 5; 250 -> 9                              COMMENT
Original Marker Name: PT65                                  COMMENT
Campaign Name: CSUSB June 2004                              COMMENT
4-Character Station Name: PT65                              COMMENT
6-Character Antenna Code: DMRCHT                            COMMENT
Vertical Measurement Point: BCR                             COMMENT
Vertical Offset to Rinex Ref. Point: 0.0348                 COMMENT
Radial Measurement Point: ECF                               COMMENT
Radial Offset to Rinex Ref. Point: 0.1897                   COMMENT
Antenna Height from Field Measurement: 1.2050 m             COMMENT
Additional Antenna Identification Info.:                    COMMENT
Turborogue and Ashtech Choke Ring                           COMMENT
Original XYZ: -2396133.8800 -4688916.6300 3588585.6800      COMMENT
New XYZ position is based on association with SCEC monument COMMENT
E1F2D0D4+0011. Position of that monument is believed to be  COMMENT
valid to within 1 m horizontally; vertical accuracy         COMMENT
should be no worse than 3-times this value.                 COMMENT
                                                            COMMENT
Revised Rinex header created by UCSD GPS archive for        COMMENT
GSAC on 20-Apr-2005 (2005:110) 16:31:21 GMT                 COMMENT
For assistance contact dagnew@ucsd.edu                      COMMENT
or anderson@python.ucsd.edu                                 COMMENT
                                                            COMMENT
POINT                                                       MARKER NAME
___ CSUSB                                                   OBSERVER / AGENCY
1017 ASHTECH Z-X ZE00                                       REC # / TYPE / VERS
3018 DORNE-MARGOL. TYPE T                                   ANT # / TYPE
 -2396128.0000 -4688912.0000  3588573.0000                  APPROX POSITION XYZ
        1.1552        0.0000        0.0000                  ANTENNA: DELTA H/E/N
     1     1     0                                          WAVELENGTH FACT L1/2
     7    C1    L1    L2    P1    P2    S1    S2            # / TYPES OF OBSERV
     0                                                      INTERVAL
  2004     6    21    15    20   20.000000                  TIME OF FIRST OBS
  2004     6    22     0     5    0.000000                  TIME OF LAST OBS
                                                            END OF HEADER
 04  6 21 15 20 20.0000000  0  4G18G 6G30G29
  21126830.6894    3700667.64054   2887659.57952  21126831.8914   21126829.6124
        57.0004         50.0004
  20462834.4524    3864882.78854   3010039.47052  20462835.6864   20462834.4604
        58.0004         51.0004
  24264699.1694    3982720.11653   3094032.05752  24264700.2454   24264703.5624
        46.0004         40.0004
  22570572.3844    3834973.14453   2986391.87052  22570573.9324   22570572.6014
        52.0004         44.0004
 04  6 21 15 20 40.0000000  0 10G22G21G18G 6G17G15G10G30G29G26
  23387262.2744   -1118954.63553   -867785.84952  23387263.3334   23387260.1584
        50.0004         43.0004
  20954899.8954    -984778.24354   -763042.06852  20954901.0624   20954898.2564
        57.0004         50.0004
  21119776.0484    3663598.28744   2858774.36742  21119777.8324   21119775.7944
        57.0004         50.0004
  20467201.5514    3887831.81844   3027921.80842  20467202.9504   20467201.7544
        58.0004         51.0004
  24210060.937
        44.000
  23825354.6374   -1044933.29653   -800766.60852  23825354.5054   23825356.3104
        47.0004         40.0004
  24695538.1564    -700573.43153   -558519.32252  24695538.8474   24695540.7454
        44.0004         37.0004
  24277450.3694    4049728.72943   3146246.45842  24277452.1524   24277456.0574
        46.0004         39.0004
  22572567.6184    3845458.56443   2994562.29342  22572569.0924   22572568.5014
        51.0004         44.0004
  21785666.6184    -958097.92653   -742762.13752  21785668.7804   21785667.6674
        53.0004         46.0004
 04  6 21 15 21  0.0000000  0  9G22G21G18G 6G17G15G30G29G26
  23375368.2224   -1181460.58743   -916491.77442  23375368.0434   23375368.5504
        49.0004         43.0004
  20951181.6984   -1004315.84744   -778266.18142  20951182.9634   20951180.5214
        57.0004         50.0004
  21112761.7294    3626737.01544   2830051.30142  21112763.2654   21112761.3314
        57.0004         50.0004
  20471613.3634    3911018.34544   3045989.20642  20471615.0414   20471613.6974
        58.0004         51.0004
  24218802.4854    -733197.41053   -665326.59952  24218802.8574   24218806.0504
        45.0004         37.0004
  23815856.2034   -1094849.33443   -839662.23242  23815856.9544   23815857.0674
        47.0004         40.0004
  24290200.8024    4116733.30043   3198457.67042  24290203.1324   24290203.8454
        47.0004         39.0004
  22574613.6844    3856214.90343   3002943.82242  22574615.1504   22574615.8944
        51.0004         44.0004
  21783617.0464    -968870.67843   -751156.49242  21783618.9754   21783618.3444
        53.0004         46.0004
 04  6 21 15 21 20.0000000  0 10G22G21G18G 6G17G16G15G30G29G26
  23363492.7884   -1243865.47643   -965118.94242  23363493.6694   23363492.9484
        49.0004         42.0004
  20947477.2174   -1023784.26544   -793436.38642  20947478.4494   20947475.8344
        57.0004         50.0004
  21105781.0954    3590054.85244   2801467.79942  21105782.6384   21105781.0784
        57.0004         50.0004
  20476065.4234    3934413.27344   3064218.98942  20476067.3724   20476065.9604
        58.0004         51.0004
  24227547.8824    -687239.85743   -629515.59242  24227549.5714   24227552.1414
        47.0004         38.0004
  23703518.0214    -989185.50753   -769207.49752  23703521.3124   23703519.1624
        48.0004         41.0004
  23806360.6554   -1144750.45543   -878546.21942  23806360.9424   23806363.3964
        47.0004         40.0004
  24302944.9074    4183703.91343   3250642.44742  24302947.2674   24302947.3404
        47.0004         39.0004
  22576706.7294    3867213.07043   3011513.79742  22576708.4524   22576707.7844
        51.0004         44.0004
  21781620.3964    -979362.74143   -759332.14142  21781622.2104   21781621.1524
        54.0004         46.0004
 04  6 21 15 21 40.0000000  0 10G22G21G18G 6G17G16G15G30G29G26
  23351638.2454   -1306161.14743  -1013660.99842  23351639.6614   23351637.1614
        49.0004         42.0004
  20943787.3044   -1043174.85444   -808545.94442  20943788.3354   20943785.8804
        57.0004         50.0004
  21098836.2824    3553559.80844   2773030.10442  21098838.0424   21098836.2704
        57.0004         50.0004
  20480558.8444    3958024.32044   3082617.17742  20480560.1594   20480559.0294
        58.0004         51.0004
  24236298.1194    -641253.57343   -593682.19442  24236299.5274   24236302.9104
        47.0004         39.0004
  23699513.1724   -1010232.43343   -785607.71142  23699514.5734   23699513.1764
        48.0004         41.0004
  23796868.1794   -1194628.99443   -917412.60442  23796869.4094   23796871.2744
        47.0004         40.0004
  24315683.8004    4250647.49443   3302806.16242  24315686.9364   24315688.9804
        46.0004         39.0004
  22578847.6464    3878460.76543   3020278.23242  22578850.0724   22578849.2564
        52.0004         44.0004
  21779678.4094    -989565.90943   -767282.66142  21779679.9744   21779679.4584
        53.0004         46.0004
 04  6 21 15 22  0.0000000  0 10G22G21G18G 6G17G16G15G30G29G26
  23339804.7404   -1368346.29343  -1062116.93842  23339805.7284   23339803.8124
        50.0004         42.0004
  20940112.1104   -1062487.10544   -823594.46442  20940113.4924   20940110.8224
        57.0004         50.0004
  21091927.6554    3517252.99344   2744739.08042  21091929.1334   21091927.3184
        57.0004         50.0004
  20485092.7494    3981852.27444   3101184.37742  20485094.6104   20485093.3804
        58.0004         51.0004
  24245054.8144    -595237.63543   -557825.68442  24245056.4584   24245059.6254
        46.0004         39.0004
  23695553.3344   -1031044.61443   -801825.01642  23695553.5784   23695552.8024
        48.0004         41.0004
  23787381.6604   -1244484.09643   -956260.71542  23787380.2554   23787382.6324
        48.0004         40.0004
  24328418.2874    4317564.14543   3354948.87442  24328421.3494   24328423.5544
        47.0004         39.0004
  22581034.7364    3889958.86143   3029237.79342  22581036.4724   22581036.9664
        51.0004         44.0004
  21777791.3774    -999478.94943   -775007.11642  21777793.5824   21777792.9034
        53.0004         46.0004
 04  6 21 15 22 20.0000000  0 10G22G21G18G 6G17G16G15G30G29G26
  23327990.0854   -1430430.64843  -1110494.34042  23327990.4704   23327990.8334
        49.0004         42.0004
  20936449.8614   -1081731.37444   -838590.00942  20936451.2944   20936448.8144
        57.0004         50.0004
  21085052.4804    3481124.42944   2716586.95642  21085054.0974   21085052.2594
        57.0004         50.0004
  20489666.5774    4005886.78744   3119912.54342  20489668.2064   20489667.0254
        58.0004         51.0004
  24253815.2584    -549202.19743   -521954.00242  24253816.3914   24253819.1634
        44.0004         38.0004
  23691635.2894   -1051631.94043   -817867.10042  23691636.1194   23691635.1924
        48.0004         41.0004
  23777896.8234   -1294325.82943   -995098.43642  23777898.0004   23777899.0314
        47.0004         40.0004
  24341145.3304    4384443.07943   3407062.19942  24341146.7434   24341151.3124
        47.0004         39.0004
  22583269.0214    3901696.99343   3038384.42542  22583271.0294   22583269.9264
        51.0004         45.0004
  21775958.6004   -1009111.67243   -782513.13542  21775960.4704   21775960.4544
        53.0004         46.0004
 04  6 21 15 22 40.0000000  0 10G22G21G18G 6G17G16G15G30G29G26
  23316197.4184   -1492403.97043  -1158785.21742  23316199.5584   23316195.7004
        49.0004         42.0004
  20932803.0744   -1100897.52044   -853524.68342  20932804.6314   20932801.4024
        57.0004         50.0004
  21078213.5024    3445184.14144   2688581.54242  21078214.8644   21078212.9044
        57.0004         50.0004
  20494281.3284    4030137.83244   3138809.43642  20494282.8774   20494281.9964
        58.0004         51.0004
  24262580.6824    -503137.36143   -486059.44342  24262581.2934   24262584.9014
        45.0004         38.0004
  23687762.3674   -1071984.37643   -833726.17942  23687762.8644   23687762.6044
        48.0004         41.0004
  23768416.1864   -1344144.42943  -1033918.10642  23768418.2964   23768416.3094
        47.0004         40.0004
  24353865.8994    4451293.13343   3459153.03842  24353869.1604   24353871.0254
        47.0004         39.0004
  22585550.7874    3913684.85343   3047725.62942  22585551.2654   22585552.2594
        51.0004         44.0004
  21774181.4274   -1018453.91043   -789792.79942  21774183.4264   21774182.1524
        53.0004         46.0004
 04  6 21 15 23  0.0000000  0 10G22G21G18G 6G17G16G15G30G29G26
  23304425.0824   -1554269.04343  -1206991.74242  23304424.1594   23304424.7974
        49.0004         42.0004
  20929169.6714   -1119988.70244   -868400.93442  20929171.4684   20929168.3304
        57.0004         50.0004
  21071409.4904    3409429.21544   2660720.56242  21071411.0564   21071409.0804
        57.0004         50.0004
  20498936.7744    4054601.82744   3157872.26442  20498938.3564   20498937.0554
        58.0004         51.0004
  24271352.9154    -457046.52543   -450144.57742  24271354.1004   24271356.5534
        47.0004         39.0004
  23683933.8044   -1092105.03243   -849404.63142  23683935.0324   23683934.0724
        48.0004         41.0004
  23758940.5624   -1393943.18843  -1072722.33542  23758941.2724   23758942.5284
        47.0004         40.0004
  24366580.5964    4518110.40443   3511218.32842  24366583.0794   24366585.8734
        45.0004         39.0004
  22587877.0914    3925919.30043   3057258.96242  22587880.3064   22587879.0414
        50.0004         44.0004
  21772458.0534   -1027508.54143   -796848.35942  21772459.7774   21772459.5924
        53.0004         46.0004
 04  6 21 15 23 20.0000000  0 10G22G21G18G 6G17G16G15G30G29G26
  23292672.9304   -1616024.56043  -1255112.89542  23292674.3484   23292673.9184
        50.0004         42.0004
  20925551.8174   -1139003.52344   -883217.68642  20925553.1834   20925550.3254
        57.0004         50.0004
  21064641.0524    3373860.69344   2633004.83342  21064642.6214   21064640.7874
        57.0004         50.0004
  20503633.0244    4079279.92144   3177101.91642  20503634.5724   20503633.3004
        58.0004         51.0004
  24280127.6624    -410928.60443   -414208.60842  24280129.4844   24280131.4714
        46.0004         39.0004
  23680149.4564   -1111993.08843   -864901.84342  23680150.1384   23680150.2014
        48.0004         41.0004
  23749467.2204   -1443721.26643  -1111510.46442  23749469.5044   23749466.8114
        47.0004         39.0004
  24379289.5374    4584894.88943   3563258.04142  24379290.3624   24379293.3114
        43.0004         38.0004
  22590253.6784    3938400.85843   3066984.84442  22590254.5894   22590254.5584
        51.0004         44.0004
  21770790.0954   -1036274.43443   -803678.93742  21770792.6784   21770790.8604
        53.0004         46.0004
 04  6 21 15 23 40.0000000  0 10G22G21G18G 6G17G16G15G30G29G26
  23280943.0404   -1677670.70543  -1303148.82142  23280943.2544   23280940.7044
        50.0004         42.0004
  20921947.7904   -1157943.04944   -897975.77142  20921949.2624   20921945.9224
        57.0004         50.0004
  21057908.0084    3338477.97044   2605433.88042  21057909.6804   21057907.3494
        57.0004         50.0004
  20508369.5574    4104171.14144   3196497.64542  20508371.1134   20508370.1734
        58.0004         51.0004
  24288909.2684    -364784.22643   -378252.00742  24288910.1704   24288913.6034
        47.0004         39.0004
  23676408.7964   -1131648.70143   -880217.94142  23676411.4854   23676409.9804
        48.0004         41.0004
  23739998.8554   -1493479.15443  -1150282.83542  23739999.5264   23740000.8444
        47.0004         39.0004
  24391991.7924    4651645.33643   3615271.21042  24391994.0134   24391996.2534
        45.0004         39.0004
  22592675.4994    3951128.96043   3076902.83242  22592677.9944   22592676.9384
        51.0004         44.0004
  21769176.8154   -1044751.78243   -810284.68142  21769179.6984   21769178.2114
        53.0004         46.0004
 04  6 21 15 24  0.0000000  0 10G22G21G18G 6G17G16G15G30G29G26
  23269232.5824   -1739206.86043  -1351099.06342  23269232.3764   23269230.3384
        50.0004         43.0004
  20918357.8154   -1176806.94544   -912674.92642  20918359.0804   20918356.2434
        57.0004         50.0004
  21051210.2724    3303281.25744   2578007.87142  21051211.6604   21051209.7064
        57.0004         50.0004
  20513146.8174    4129275.79444   3216059.67942  20513148.6174   20513147.4954
        58.0004         51.0004
  24297696.2904    -318613.25743   -342274.70042  24297697.0754   24297700.3844
        46.0004         40.0004
  23672712.9644   -1151071.40843   -895352.55042  23672714.1314   23672713.6474
        48.0004         41.0004
  23730534.6424   -1543216.75343  -1189039.40442  23730534.2914   23730535.8454
        46.0004         39.0004
  24404687.4884    4718361.09043   3667257.37342  24404688.5924   24404691.8794
        44.0004         39.0004
  22595144.3954    3964103.78943   3087013.07942  22595146.4924   22595146.0604
        52.0004         44.0004
  21767618.5264   -1052940.10243   -816665.20442  21767620.1504   21767620.5174
        53.0004         46.0004
 04  6 21 15 24 20.0000000  0 10G22G21G18G 6G17G16G15G30G29G26
  23257543.1294   -1800632.44643  -1398963.14142  23257543.5804   23257542.5634
        50.0004         43.0004
  20914782.0544   -1195594.92344   -927314.91542  20914783.8504   20914781.3274
        57.0004         50.0004
  21044548.1754    3268270.81744   2550727.01242  21044549.5814   21044547.5184
        57.0004         50.0004
  20517964.5764    4154593.78444   3235787.94742  20517966.4874   20517965.1414
        58.0004         51.0004
  24306486.9154    -272415.35943   -306276.43542  24306489.7914   24306490.2924
        45.0004         39.0004
  23669060.8764   -1170261.20143   -910305.64542  23669061.6534   23669061.9944
        49.0004         41.0004
  23721072.3914   -1592933.82143  -1227779.97642  23721073.5244   23721075.4374
        45.0004         39.0004
  24417376.5664    4785041.47143   3719215.96142  24417379.4454   24417380.9554
        45.0004         38.0004
  22597661.0014    3977325.26343   3097315.51942  22597662.3374   22597661.6464
        51.0004         44.0004
  21766115.2544   -1060838.98743   -822820.18742  21766117.0764   21766116.6834
        53.0004         46.0004
 04  6 21 15 24 40.0000000  0 10G22G21G18G 6G17G16G15G30G29G26
  23245875.5824   -1861948.41543  -1446741.79142  23245874.6874   23245872.6444
        50.0004         43.0004
  20911221.5434   -1214308.44944   -941896.89442  20911222.8844   20911220.1264
        57.0004         50.0004
  21037920.6994    3233445.56944   2523590.45842  21037922.5114   21037920.2444
        57.0004         50.0004
  20522823.0014    4180123.72444   3255681.37942  20522824.5174   20522823.3704
        58.0004         51.0004
  24315284.0424    -226192.02943   -270258.38442  24315285.0724   24315286.5954
        46.0004         39.0004
  23665453.6794   -1189219.04143   -925078.02242  23665455.7304   23665454.0074
        48.0004         41.0004
  23711616.4544   -1642631.83843  -1266505.68642  23711617.6194   23711618.0474
        45.0004         39.0004
  24430058.3904    4851684.36143   3771145.35242  24430059.9174   24430061.6924
        45.0004         39.0004
  22600223.2774    3990791.88343   3107808.97542  22600225.5474   22600224.9754
        51.0004         45.0004
  21764667.5574   -1068449.44743   -828750.41542  21764669.5304   21764669.0374
        52.0004         46.0004
 04  6 21 15 25  0.0000000  0 10G22G21G18G 6G17G16G15G30G29G26
  23234228.7744   -1923152.69243  -1494433.42242  23234229.0094   23234227.0554
        51.0004         43.0004
  20907675.1244   -1232945.53344   -956419.30342  20907676.3884   20907674.0064
        57.0004         50.0004
  21031329.5124    3198807.65644   2496599.88242  21031330.8924   21031329.0884
        57.0004         50.0004
  20527722.0014    4205867.20844   3275741.20042  20527723.4964   20527722.2624
        58.0004         51.0004
  24324085.0974    -179941.43843   -234219.05242  24324086.2364   24324088.7384
        46.0004         40.0004
  23661890.0764   -1207943.16343   -939668.27342  23661889.9384   23661890.9854
        48.0004         41.0004
  23702163.6694   -1692308.96543  -1305215.12342  23702164.9284   23702164.7274
        46.0004         39.0004
  24442734.8194    4918290.75643   3823046.29442  24442734.9464   24442738.2094
        45.0004         39.0004
  22602833.1424    4004505.36143   3118494.78042  22602834.9594   22602833.7904
        51.0004         44.0004
  21763274.8194   -1075769.43843   -834454.30642  21763275.9384   21763276.4494
        53.0004         46.0004
 04  6 21 15 25 20.0000000  0 10G22G21G18G 6G17G16G15G30G29G26
  23222602.6134   -1984247.62743  -1542039.84442  23222603.7774   23222601.7754
        51.0004         43.0004
  20904142.3904   -1251508.83944   -970884.22542  20904143.9854   20904141.4404
        57.0004         50.0004
  21024773.0754    3164354.19944   2469753.04242  21024774.6984   21024772.9424
        57.0004         50.0004
  20532660.5714    4231821.18744   3295965.04642  20532662.2224   20532661.1164
        58.0004         51.0004
  24332890.3494    -133666.59243   -198160.80042  24332891.4364   24332894.5284
        45.0004         39.0004
  23658372.1414   -1226436.37443   -954078.60742  23658373.0444   23658372.7034
        48.0004         41.0004
  23692713.3164   -1741968.13543  -1343910.57742  23692714.6464   23692713.3794
        45.0004         39.0004
  24455400.2494    4984856.88343   3874915.84842  24455403.3284   24455405.6494
        46.0004         39.0004
  22605488.7044    4018462.41143   3129370.39942  22605490.8894   22605489.8884
        51.0004         44.0004
  21761936.6284   -1082801.71743   -839934.01342  21761938.3164   21761937.8364
        53.0004         46.0004
 04  6 21 15 25 40.0000000  0 10G22G21G18G 6G17G16G15G30G29G26
  23210998.9374   -2045224.94643  -1589554.61742  23210999.1754   23210997.1124
        50.0004         43.0004
  20900625.3774   -1269990.66544   -985285.65642  20900627.0384   20900624.3284
        57.0004         50.0004
  21018253.4654    3130092.99544   2443056.00142  21018255.1364   21018252.9824
        57.0004         50.0004
  20537641.1354    4257993.39844   3316358.94042  20537642.8154   20537641.6504
        58.0004         51.0004
  24341702.4624     -87359.29443   -162077.28342  24341702.6544   24341705.6384
        42.0004         39.0004
  23654898.2134   -1244690.59743   -968302.69942  23654898.9234   23654896.8944
        48.0004         41.0004
  23683268.0584   -1791601.52043  -1382585.93042  23683270.5594   23683268.5524
        45.0004         39.0004
  24468060.9914    5051389.78743   3926759.51542  24468064.1344   24468065.2224
        44.0004         38.0004
  22608192.7174    4032671.13943   3140442.12042  22608194.8014   22608193.8124
        51.0004         44.0004
  21760654.3484   -1089537.94543   -845183.04142  21760656.5434   21760656.5004
        53.0004         46.0004
 04  6 21 15 26  0.0000000  0 10G22G21G18G 6G17G16G15G30G29G26
  23199416.1034   -2106093.62643  -1636984.73242  23199416.9904   23199416.8054
        50.0004         43.0004
  20897122.7614   -1288400.29344   -999630.82942  20897123.5334   20897121.0084
        57.0004         50.0004
  21011768.7694    3096015.03944   2416501.74742  21011770.2064   21011768.3894
        57.0004         50.0004
  20542661.2134    4284374.71244   3336915.77242  20542662.9594   20542661.6384
        58.0004         51.0004
  24350518.7134     -41028.92943   -125975.80442  24350520.0994   24350523.1194
        43.0004         39.0004
  23651468.2424   -1262714.90743   -982347.64342  23651469.5724   23651469.1444
        48.0004         41.0004
  23673826.9304   -1841218.34443  -1421248.39642  23673827.6984   23673829.1164
        45.0004         39.0004
  24480713.8774    5117879.66943   3978569.64842  24480716.8874   24480718.9394
        43.0004         38.0004
  22610942.6874    4047121.87943   3151702.42742  22610944.9874   22610944.2364
        51.0004         44.0004
  21759426.9544   -1095987.15043   -850208.41142  21759429.5964   21759428.7754
        53.0004         46.0004
 04  6 21 15 26 20.0000000  0 10G22G21G18G 6G17G16G15G30G29G26
  23187854.7964   -2166848.08443  -1684325.85242  23187855.3374   23187854.5794
        50.0004         43.0004
  20893634.4284   -1306732.39044  -1013915.58842  20893635.5014   20893632.2964
        57.0004         50.0004
  21005319.5774    3062125.43444   2390094.26042  21005321.4864   21005319.1304
        57.0004         50.0004
  20547722.3204    4310969.88044   3357639.24642  20547723.8894   20547722.6854
        58.0004         51.0004
  24359342.5704       5329.64943    -89852.36342  24359342.4894   24359345.0934
        45.0004         40.0004
  23648082.2084   -1280504.15843   -996209.41542  23648084.0614   23648081.1674
        48.0004         41.0004
  23664389.4254   -1890813.48043  -1459893.94642  23664389.6084   23664390.2124
        46.0004         39.0004
  24493357.4824    5184330.73943   4030349.57242  24493360.2354   24493364.4764
        43.0004         38.0004
  22613739.5024    4061819.74843   3163155.29442  22613741.8384   22613740.6424
        51.0004         44.0004
  21758255.4114   -1102143.99043   -855005.95442  21758257.2934   21758257.0214
        53.0004         46.0004
 04  6 21 15 26 40.0000000  0 10G22G21G18G 6G17G16G15G30G29G26
  23176315.6324   -2227488.16643  -1731577.85642  23176315.0544   23176313.9234
        50.0004         43.0004
  20890160.1364   -1324987.04444  -1028140.00542  20890161.5834   20890158.6364
        57.0004         50.0004
  20998906.4764    3028424.38744   2363833.70842  20998908.1964   20998906.1274
        57.0004         50.0004
  20552823.8044    4337778.73644   3378529.23442  20552825.6514   20552824.3984
        58.0004         51.0004
  24368166.7734      51716.20643    -53707.09242  24368168.6114   24368173.1834
        44.0004         40.0004
  23644742.4564   -1298058.36143  -1009888.04342  23644745.1964   23644741.3144
        47.0004         41.0004
  23654955.8284   -1940387.08743  -1498522.72142  23654956.2514   23654956.2534
        46.0004         39.0004
  24505997.6364    5250741.94743   4082098.39742  24505999.0844   24506002.5534
        44.0004         38.0004
  22616583.9554    4076764.34843   3174800.43642  22616585.2714   22616585.3004
        51.0004         44.0004
  21757139.3904   -1108008.30043   -859575.56042  21757141.1824   21757140.9274
        53.0004         46.0004
 04  6 21 15 27  0.0000000  0 10G22G21G18G 6G17G16G15G30G29G26
  23164797.6514   -2288016.92143  -1778743.09342  23164797.2204   23164795.7724
        50.0004         43.0004
  20886700.2334   -1343167.85544  -1042306.88242  20886701.7784   20886698.8574
        57.0004         50.0004
  20992529.0114    2994908.40744   2337717.35942  20992530.4694   20992528.4254
        57.0004         50.0004
  20557965.6014    4364797.59544   3399582.85942  20557967.3114   20557965.7334
        58.0004         51.0004
  24377000.5884      98127.27643    -17542.69742  24376999.9814   24377003.3754
        44.0004         39.0004
  23641445.8194   -1315380.93143  -1023386.19242  23641446.3494   23641445.2164
        47.0004         41.0004
  23645524.7264   -1989942.80843  -1537137.57142  23645528.0274   23645526.1374
        46.0004         39.0004
  24518626.3514    5317109.18443   4133812.96142  24518629.1754   24518632.4174
        44.0004         38.0004
  22619472.9814    4091952.04343   3186634.97742  22619475.5434   22619475.2244
        51.0004         44.0004
  21756078.5194   -1113583.35043   -863919.77142  21756081.2754   21756080.5304
        53.0004         46.0004
 04  6 21 15 27 20.0000000  0 10G22G21G18G 6G17G16G15G30G29G26
  23153300.8074   -2348429.27343  -1825817.62942  23153302.0304   23153300.3884
        50.0004         43.0004
  20883256.0554   -1361269.90044  -1056412.38542  20883257.5154   20883254.5014
        57.0004         50.0004
  20986187.0684    2961582.18344   2311748.87542  20986188.7434   20986186.3304
        57.0004         50.0004
  20563147.6304    4392030.97744   3420803.63842  20563149.4604   20563148.4674
        58.0004         51.0004
  24385837.2124     144567.59043     18644.49242  24385838.6484   24385841.5534
        44.0004         39.0004
  23638195.0034   -1332467.11743  -1036700.13542  23638196.6074   23638195.0454
        48.0004         41.0004
  23636098.9064   -2039475.84143  -1575734.72542  23636099.7494   23636100.6844
        46.0004         39.0004
  24531249.5304    5383436.17243   4185496.15742  24531250.9754   24531253.2574
        45.0004         38.0004
  22622410.7824    4107387.36543   3198662.48342  22622412.8414   22622411.8644
        51.0004         44.0004
  21755073.3244   -1118864.43543   -868034.91142  21755075.9094   21755075.2424
        53.0004         46.0004
 04  6 21 15 27 40.0000000  0 10G22G21G18G 6G17G16G15G30G29G26
  23141826.8204   -2408728.03143  -1872803.65542  23141828.2014   23141825.0734
        51.0004         43.0004
  20879825.5574   -1379296.52444  -1070459.12042  20879826.9004   20879824.3214
        57.0004         50.0004
  20979880.6914    2928442.67444   2285925.87942  20979882.4424   20979880.2594
        57.0004         50.0004
  20568370.5584    4419475.57844   3442189.00142  20568372.0444   20568371.0054
        58.0004         51.0004
  24394679.2784     191034.08843     54852.04642  24394679.9074   24394684.4014
        42.0004         38.0004
  23634987.7154   -1349319.83943  -1049832.14942  23634989.1264   23634986.9614
        48.0004         41.0004
  23626676.9004   -2088989.38943  -1614316.70442  23626678.1524   23626678.2964
        47.0004         40.0004
  24543862.1494    5449719.17243   4237145.08442  24543864.5664   24543866.7634
        45.0004         38.0004
  22625394.7654    4123066.89143   3210880.28042  22625396.2264   22625396.1504
        51.0004         44.0004
  21754125.0074   -1123854.22243   -871923.07142  21754127.1554   21754125.8384
        54.0004         46.0004
 04  6 21 15 28  0.0000000  0 10G22G21G18G 6G17G16G15G30G29G26
  23130373.9214   -2468911.98043  -1919700.21942  23130375.0334   23130371.2104
        50.0004         43.0004
  20876409.5514   -1397247.02444  -1084446.53542  20876411.2144   20876408.5174
        57.0004         50.0004
  20973610.4374    2895490.72844   2260249.04342  20973612.2134   20973609.8754
        57.0004         50.0004
  20573633.2114    4447132.11144   3463739.51142  20573634.7464   20573633.7064
        58.0004         51.0004
  24403527.3324     237527.39543     91080.53942  24403529.4274   24403530.9964
        40.0004         36.0004
  23631824.6434   -1365938.32443  -1062781.63442  23631826.7824   23631826.7674
        48.0004         41.0004
  23617258.9174   -2138482.77943  -1652882.98542  23617260.8674   23617261.3454
        48.0004         40.0004
  24556467.3114    5515957.99143   4288759.57142  24556470.7714   24556471.8344
        47.0004         37.0004
  22628425.2384    4138991.23243   3223288.86042  22628427.3444   22628426.6824
        51.0004         44.0004
  21753230.0004   -1128551.75543   -875583.50342  21753232.9544   21753231.9554
        53.0004         46.0004
 04  6 21 15 28 20.0000000  0  9G22G21G18G 6G16G15G30G29G26
  23118944.7644   -2528972.96943  -1966500.97542  23118945.4974   23118944.0604
        50.0004         43.0004
  20873009.5584   -1415112.98444  -1098368.07642  20873011.4444   20873008.7344
        57.0004         50.0004
  20967376.8154    2862734.45844   2234724.67842  20967378.7724   20967376.3584
        57.0004         50.0004
  20578937.6984    4475008.18744   3485461.08842  20578939.6834   20578938.4844
        57.0004         51.0004
  23628708.9974   -1382314.62343  -1075542.41442  23628709.8514   23628708.9034
        47.0004         41.0004
  23607845.3004   -2187948.16743  -1691427.43342  23607847.1914   23607846.9884
        47.0004         40.0004
  24569063.7204    5582159.81443   4340345.26242  24569068.2224   24569067.4014
        47.0004         38.0004
  22631502.5074    4155168.13743   3235894.22842  22631505.6234   22631504.4364
        51.0004         44.0004
  21752394.4024   -1132948.98243   -879009.92442  21752396.4014   21752395.2904
        54.0004         46.0004
 04  6 21 15 28 40.0000000  0  9G22G21G18G 6G16G15G30G29G26
  23107536.0024   -2588924.44343  -2013216.39642  23107537.7414   23107535.6494
        50.0004         43.0004
  20869623.4944   -1432908.44944  -1112234.68142  20869624.9924   20869622.3554
        57.0004         50.0004
  20961178.0694    2830160.23944   2209342.17342  20961180.0174   20961177.9214
        57.0004         50.0004
  20584281.8614    4503089.89244   3507342.89942  20584283.5714   20584282.2424
        58.0004         51.0004
  23625635.7374   -1398462.50143  -1088125.20042  23625636.4264   23625636.8874
        47.0004         41.0004
  23598436.3494   -2237399.43143  -1729960.89042  23598436.3904   23598437.2684
        48.0004         40.0004
  24581653.1554    5648310.03143   4391890.70642  24581656.6734   24581656.7644
        47.0004         38.0004
  22634627.9434    4171583.58343   3248685.45642  22634629.9174   22634628.5014
        52.0004         44.0004
  21751611.9944   -1137059.53743   -882212.95842  21751613.6394   21751613.2904
        53.0004         46.0004
 04  6 21 15 29  0.0000000  0  9G22G21G18G 6G16G15G30G29G26
  23096149.8864   -2648760.48143  -2059841.85642  23096150.6294   23096148.2294
        50.0004         43.0004
  20866250.9934   -1450628.08144  -1126042.19742  20866252.8354   20866250.3964
        57.0004         50.0004
  20955015.4344    2797773.34444   2184105.63342  20955016.7374   20955014.7764
        57.0004         50.0004
  20589665.6374    4531382.41244   3529388.98442  20589667.3054   20589666.1544
        58.0004         51.0004
  23622607.9224   -1414376.47743  -1100525.71142  23622610.2274   23622607.7684
        48.0004         41.0004
  23589028.5784   -2286830.95343  -1768478.96142  23589029.0474   23589031.0374
        47.0004         40.0004
  24594232.1184    5714413.24543   4443399.52742  24594233.4504   24594237.5394
        47.0004         38.0004
  22637796.0494    4188242.67943   3261666.56042  22637798.6314   22637798.9874
        51.0004         44.0004
  21750885.5324   -1140877.80843   -885188.24542  21750887.7164   21750886.4964
        54.0004         46.0004
 04  6 21 15 29 20.0000000  0  9G22G21G18G 6G16G15G30G29G26
  23084785.9154   -2708480.20443  -2106376.68942  23084785.6404   23084783.7094
        50.0004         43.0004
  20862894.0974   -1468270.86444  -1139789.83242  20862895.8924   20862892.6664
        57.0004         50.0004
  20948887.9144    2765574.48244   2159015.61642  20948889.6584   20948887.4554
        57.0004         50.0004
  20595089.7184    4559886.22044   3551599.72042  20595091.4874   20595090.5074
        58.0004         50.0004
  23619624.3384   -1430055.88143  -1112743.44442  23619626.9064   23619623.7444
        48.0004         41.0004
  23579626.5494   -2336242.21243  -1806981.23542  23579627.4684   23579628.3414
        48.0004         40.0004
  24606801.3894    5780469.32443   4494871.62642  24606803.5924   24606804.4844
        47.0004         38.0004
  22641013.8554    4205145.76643   3274837.78842  22641014.9774   22641015.7904
        51.0004         44.0004
  21750213.6364   -1144402.98843   -887935.15542  21750216.2014   21750215.3724
        54.0004         46.0004
 04  6 21 15 29 40.0000000  0  9G22G21G18G 6G16G15G30G29G26
  23073443.6734   -2768083.28743  -2152820.62942  23073444.7074   23073442.2204
        50.0004         43.0004
  20859551.7594   -1485836.99744  -1153477.74042  20859552.7534   20859550.2624
        57.0004         50.0004
  20942796.3294    2733563.73744   2134072.18842  20942798.1274   20942796.3314
        57.0004         50.0004
  20600553.9104    4588600.95644   3573974.80042  20600555.7424   20600554.5624
        58.0004         51.0004
  23616685.6944   -1445500.70743  -1124778.41442  23616685.3714   23616686.7944
        47.0004         41.0004
  23570227.4784   -2385633.42143  -1845467.88542  23570229.3394   23570229.8304
        48.0004         40.0004
  24619363.2564    5846477.11943   4546306.09042  24619365.9844   24619368.5854
        45.0004         38.0004
  22644276.5314    4222292.65343   3288198.98042  22644278.5054   22644277.5874
        51.0004         44.0004
  21749599.0554   -1147635.08643   -890453.68242  21749601.0394   21749600.7714
        53.0004         46.0004
 04  6 21 15 30  0.0000000  0  9G22G21G18G 6G16G15G30G29G26
  23062123.4844   -2827567.04443  -2199171.59342  23062124.3354   23062123.1444
        50.0004         43.0004
  20856223.6604   -1503323.78944  -1167103.83042  20856225.4394   20856222.8304
        57.0004         50.0004
  20936741.3064    2701743.55044   2109277.23742  20936742.9594   20936741.0294
        57.0004         50.0004
  20606058.9754    4617529.04744   3596516.13242  20606060.5704   20606059.3514
        58.0004         51.0004
  23613791.5614   -1460708.52843  -1136628.66742  23613793.0524   23613791.1624
        48.0004         41.0004
  23560833.2194   -2435001.97243  -1883936.88642  23560833.3554   23560836.6384
        48.0004         41.0004
  24631915.3234    5912438.65143   4597704.53442  24631919.1224   24631921.7004
        46.0004         37.0004
  22647586.9924    4239685.70643   3301751.99342  22647588.6684   22647586.6624
        51.0004         44.0004
  21749040.6044   -1150571.29043   -892741.64842  21749042.6694   21749041.4654
        53.0004         46.0004
 04  6 21 15 30 20.0000000  0  9G22G21G18G 6G16G15G30G29G26
  23050826.7784   -2886935.37643  -2245432.60742  23050826.1344   23050824.9844
        50.0004         43.0004
  20852910.5484   -1520735.83044  -1180671.66242  20852912.1404   20852909.1404
        57.0004         50.0004
  20930721.5644    2670109.56644   2084627.38042  20930723.0934   20930721.1084
        57.0004         50.0004
  20611603.3514    4646665.82844   3619220.08542  20611605.0934   20611604.2224
        58.0004         51.0004
  23610940.7014   -1475683.49043  -1148297.50642  23610942.9924   23610942.8744
        48.0004         41.0004
  23551442.7994   -2484352.28243  -1922391.68442  23551444.9534   23551443.9204
        48.0004         41.0004
  24644458.7614    5978348.68143   4649062.83442  24644464.9544   24644463.3634
        47.0004         38.0004
  22650942.7794    4257320.18043   3315493.13842  22650944.7174   22650943.4864
        51.0004         44.0004
  21748537.2164   -1153215.90643   -894802.39042  21748539.1234   21748538.7334
        53.0004         46.0004
 04  6 21 15 30 40.0000000  0  9G22G21G18G 6G16G15G30G29G26
  23039551.7264   -2946184.22343  -2291600.51842  23039552.7154   23039550.1174
        50.0004         43.0004
  20849612.4314   -1538069.07944  -1194178.10142  20849613.7714   20849610.7174
        57.0004         50.0004
  20924738.1164    2638665.87644   2060125.80842  20924739.8924   20924737.7364
        57.0004         50.0004
  20617188.6904    4676014.96644   3642089.50442  20617190.1664   20617189.1544
        58.0004         51.0004
  23608136.8854   -1490421.83043  -1159781.95042  23608137.9004   23608136.1154
        48.0004         41.0004
  23542055.2204   -2533680.76343  -1960829.44942  23542057.6184   23542059.5654
        48.0004         41.0004
  24656990.2734    6044210.14943   4700383.26242  24656995.1214   24656996.1924
        47.0004         37.0004
  22654344.7874    4275199.62443   3329425.15742  22654345.5324   22654345.2554
        51.0004         44.0004
  21748090.3084   -1155564.89843   -896632.78042  21748092.7384   21748091.6774
        53.0004         46.0004
 04  6 21 15 31  0.0000000  0  9G22G21G18G 6G16G15G30G29G26
  23028300.0824   -3005313.72543  -2337675.44642  23028299.6104   23028299.2314
        51.0004         43.0004
  20846328.6334   -1555324.27244  -1207623.71742  20846330.0324   20846327.3654
        57.0004         50.0004
  20918790.5954    2607411.76344   2035771.95742  20918792.3474   20918790.4524
        57.0004         50.0004
  20622813.5684    4705575.76544   3665123.85042  20622815.5444   20622814.4374
        57.0004         50.0004
  23605378.0624   -1504924.17443  -1171082.48842  23605378.5744   23605377.6984
        48.0004         41.0004
  23532671.5484   -2582987.89443  -1999250.60042  23532674.3884   23532675.1454
        48.0004         41.0004
  24669514.2764    6110021.76243   4751664.85542  24669515.5864   24669520.4364
        46.0004         37.0004
  22657793.5584    4293323.27943   3343547.46342  22657795.5614   22657794.9954
        51.0004         44.0004
  21747699.4834   -1157618.72543   -898233.17542  21747701.5654   21747701.2514
        54.0004         46.0004
 04  6 21 15 31 20.0000000  0  9G22G21G18G 6G16G15G30G29G26
  23017070.0244   -3064328.35343  -2383660.87242  23017069.9664   23017069.1524
        51.0004         43.0004
  20843058.6284   -1572505.76844  -1221011.90542  20843060.3074   20843058.0414
        57.0004         50.0004
  20912878.2094    2576342.30444   2011562.00142  20912879.7364   20912877.7224
        57.0004         50.0004
  20628478.1954    4735343.14644   3688319.16642  20628479.7454   20628478.8774
        57.0004         50.0004
  23602661.3654   -1519195.17243  -1182202.77542  23602663.4624   23602660.0134
        48.0004         42.0004
  23523293.2724   -2632278.51443  -2037658.87342  23523296.2874   23523294.0674
        48.0004         41.0004
  24682026.8974    6175777.96143   4802903.29642  24682028.2014   24682030.5724
        46.0004         37.0004
  22661287.7754    4311686.10743   3357856.13642  22661289.9224   22661289.2134
        51.0004         44.0004
  21747364.3834   -1159382.16743   -899607.29642  21747366.5084   21747365.6544
        54.0004         46.0004
 04  6 21 15 31 40.0000000  0  9G22G21G18G 6G16G15G30G29G26
  23005863.6894   -3123217.18443  -2429548.26542  23005863.6424   23005863.7374
        51.0004         44.0004
  20839805.6514   -1589603.03244  -1234334.46042  20839807.2264   20839804.4034
        57.0004         50.0004
  20907002.9724    2545468.40044   1987504.41042  20907004.4904   20907002.6264
        57.0004         50.0004
  20634184.2374    4765327.36944   3711683.46042  20634185.8584   20634184.6754
        58.0004         50.0004
  23599991.7964   -1533224.29643  -1193134.58842  23599992.4494   23599993.5424
        48.0004         41.0004
  23513917.8244   -2681542.14043  -2076046.12342  23513919.8554   23513921.9974
        48.0004         41.0004
  24694533.1784    6241488.54243   4854106.13842  24694536.1464   24694537.6474
        47.0004         37.0004
  22664829.4274    4330298.41543   3372359.21842  22664832.7164   22664830.9124
        51.0004         44.0004
  21747085.4664   -1160844.31343   -900746.64142  21747087.7114   21747087.5134
        53.0004         46.0004
 04  6 21 15 32  0.0000000  0  8G22G21G18G 6G16G15G29G26
  22994680.1854   -3181989.22843  -2475344.64042  22994680.4254   22994679.5844
        51.0004         44.0004
  20836566.3184   -1606625.53044  -1247598.75242  20836567.7454   20836564.7934
        57.0004         50.0004
  20901163.5594    2514780.74944   1963591.95842  20901165.0524   20901162.8374
        57.0004         50.0004
  20639929.3564    4795519.03644   3735209.39042  20639931.0794   20639930.0824
        57.0004         50.0004
  23597366.7734   -1547020.87643  -1203885.20342  23597367.1554   23597368.2454
        49.0004         41.0004
  23504546.1784   -2730788.05443  -2114419.57942  23504549.0154   23504547.8184
        48.0004         41.0004
  22668416.7054    4349150.56443   3387049.18342  22668418.3894   22668418.9174
        51.0004         44.0004
  21746863.5404   -1162014.38143   -901658.38642  21746864.7454   21746864.3104
        54.0004         46.0004
 04  6 21 15 32 20.0000000  0  8G22G21G18G 6G16G15G29G26
  22983519.4834   -3240638.04143  -2521044.99942  22983519.6014   22983517.3884
        51.0004         44.0004
  20833342.9704   -1623567.14344  -1260800.02142  20833343.9164   20833341.0954
        57.0004         50.0004
  20895360.4294    2484285.39344   1939829.35142  20895361.9004   20895359.9414
        57.0004         50.0004
  20645715.5254    4825923.97144   3758901.50742  20645716.9374   20645716.0554
        57.0004         50.0004
  23594786.5394   -1560578.80243  -1214449.84642  23594788.4624   23594787.1614
        48.0004         42.0004
  23495180.6174   -2780010.21943  -2152774.51042  23495182.1454   23495183.3984
        48.0004         41.0004
  22672051.7374    4368248.41043   3401930.60942  22672053.5994   22672052.6694
        51.0004         44.0004
  21746697.1974   -1162886.34943   -902337.86542  21746699.6114   21746697.8944
        54.0004         46.0004
 04  6 21 15 32 40.0000000  0  8G22G21G18G 6G16G15G29G26
  22972381.0594   -3299169.49243  -2566653.91442  22972381.8654   22972380.0194
        51.0004         44.0004
  20830132.4854   -1640434.19044  -1273943.18542  20830134.2254   20830131.5604
        57.0004         50.0004
  20889592.8484    2453976.03644   1916211.67942  20889594.3864   20889592.5714
        57.0004         50.0004
  20651540.6254    4856535.59044   3782754.67442  20651542.2214   20651541.1924
        57.0004         50.0004
  23592250.7874   -1573904.31443  -1224833.38742  23592253.1144   23592250.9464
        48.0004         42.0004
  23485816.9494   -2829214.93843  -2191115.85242  23485818.7114   23485820.2124
        48.0004         41.0004
  22675730.6754    4387585.25443   3416998.26842  22675733.0404   22675731.9294
        51.0004         44.0004
  21746586.7184   -1163466.42243   -902789.90142  21746589.1754   21746587.6874
        53.0004         46.0004
 04  6 21 15 33  0.0000000  0  8G22G21G18G 6G16G15G29G26
  22961265.7794   -3357581.21843  -2612169.53742  22961266.7404   22961263.7954
        52.0004         44.0004
  20826937.9074   -1657224.50244  -1287026.56842  20826939.3874   20826936.6474
        57.0004         50.0004
  20883860.9254    2423854.82744   1892740.61042  20883862.6044   20883860.4344
        57.0004         50.0004
  20657405.5304    4887355.77944   3806770.37242  20657406.9314   20657406.3134
        58.0004         50.0004
  23589759.9544   -1586995.32443  -1235034.19242  23589762.2154   23589761.0604
        49.0004         42.0004
  23476457.0754   -2878400.16643  -2229441.99342  23476457.8424   23476461.2104
        49.0004         41.0004
  22679457.1254    4407163.23643   3432253.82342  22679459.3634   22679458.4184
        51.0004         44.0004
  21746532.6254   -1163752.24443   -903012.65142  21746534.1404   21746533.5714
        53.0004         46.0004
 04  6 21 15 33 20.0000000  0  8G22G21G18G 6G16G15G29G26
  22950173.9624   -3415871.92843  -2657590.85542  22950174.4644   22950172.9904
        51.0004         44.0004
  20823757.8454   -1673936.58444  -1300048.98542  20823759.3964   20823756.4664
        57.0004         50.0004
  20878164.7644    2393922.82544   1869416.98042  20878166.3954   20878164.7364
        57.0004         50.0004
  20663310.3514    4918385.38844   3830949.24742  20663311.8084   20663311.0684
        57.0004         50.0004
  23587313.7544   -1599850.80643  -1245051.49942  23587314.6924   23587314.2604
        48.0004         42.0004
  23467101.7494   -2927564.85143  -2267752.13342  23467104.0594   23467103.1274
        48.0004         41.0004
  22683227.5994    4426982.76843   3447697.60342  22683229.7584   22683229.2454
        50.0004         44.0004
  21746533.6544   -1163742.66343   -903005.20842  21746536.6294   21746535.9584
        54.0004         46.0004
 04  6 21 15 33 40.0000000  0  8G22G21G18G 6G16G15G29G26
  22939104.6924   -3474038.38843  -2702915.34542  22939105.8594   22939103.1684
        52.0004         44.0004
  20820592.5624   -1690567.78144  -1313008.37942  20820594.1414   20820591.5564
        57.0004         50.0004
  20872505.8754    2364183.28444   1846243.31942  20872507.3294   20872505.6384
        57.0004         50.0004
  20669255.3194    4949627.15044   3855293.44642  20669256.8684   20669256.0564
        57.0004         50.0004
  23584912.3674   -1612467.82243  -1254882.96142  23584914.5654   23584912.8264
        48.0004         42.0004
  23457749.8874   -2976706.10643  -2306044.01342  23457752.2044   23457752.1564
        48.0004         41.0004
  22687046.2544    4447046.73243   3463331.84742  22687048.4114   22687047.2594
        51.0004         44.0004
  21746593.0924   -1163434.63043   -902765.17942  21746594.9664   21746594.5414
        53.0004         46.0004
 04  6 21 15 34  0.0000000  0  8G22G21G18G 6G16G15G29G26
  22928059.4474   -3532082.44643  -2748144.47242  22928060.2434   22928058.1674
        52.0004         44.0004
  20817443.1474   -1707120.09444  -1325906.29942  20817444.6584   20817441.7694
        57.0004         50.0004
  20866882.7074    2334633.78844   1823217.74842  20866884.0584   20866882.3734
        57.0004         50.0004
  20675240.4554    4981078.56444   3879801.01242  20675242.1064   20675241.1074
        57.0004         50.0004
  23582557.2394   -1624848.63643  -1264530.39242  23582558.9494   23582558.7584
        48.0004         42.0004
  23448402.6764   -3025826.27843  -2344319.45842  23448404.3064   23448404.8634
        48.0004         41.0004
  22690911.0314    4467352.60743   3479154.58542  22690913.1234   22690912.4894
        51.0004         44.0004
  21746706.9424   -1162830.26643   -902294.22642  21746709.2624   21746709.3654
        53.0004         46.0004
 04  6 21 15 34 20.0000000  0  8G22G21G18G 6G16G15G29G26
  22917036.4974   -3590006.85943  -2793280.36142  22917037.0604   22917035.1454
        52.0004         44.0004
  20814307.4394   -1723596.28544  -1338744.90642  20814309.3274   20814306.2884
        57.0004         50.0004
  20861295.2194    2305271.22644   1800337.83342  20861296.5354   20861294.4974
        57.0004         50.0004
  20681264.6294    5012736.47744   3904469.47242  20681266.4154   20681265.4634
        57.0004         50.0004
  23580245.3094   -1636996.24643  -1273996.09442  23580247.3784   23580247.7084
        49.0004         42.0004
  23439059.4384   -3074928.40143  -2382580.83742  23439060.4474   23439060.2664
        48.0004         41.0004
  22694820.0464    4487896.97743   3495163.17342  22694821.6524   22694821.1174
        51.0004         44.0004
  21746878.3194   -1161932.65543   -901594.77142  21746880.6804   21746880.1914
        54.0004         46.0004
 04  6 21 15 34 40.0000000  0  8G22G21G18G 6G16G15G29G26
  22906037.7834   -3647806.39243  -2838318.94742  22906038.9514   22906035.6704
        51.0004         44.0004
  20811187.4984   -1739991.82644  -1351520.66642  20811189.2144   20811186.4734
        57.0004         50.0004
  20855744.1354    2276100.57544   1777607.46442  20855745.6944   20855743.8104
        57.0004         50.0004
  20687329.5004    5044605.29244   3929302.28242  20687331.0744   20687330.2214
        57.0004         50.0004
  23577979.2344   -1648906.00943  -1283276.46242  23577981.0424   23577980.2754
        49.0004         42.0004
  23429720.3084   -3124007.67143  -2420824.42042  23429719.1134   23429722.9354
        48.0004         41.0004
  22698775.8764    4508684.40743   3511361.14742  22698777.3324   22698776.2524
        51.0004         44.0004
  21747106.3584   -1160736.88643   -900663.00342  21747108.1094   21747107.3724
        54.0004         46.0004
 04  6 21 15 35  0.0000000  0  8G22G21G18G 6G16G15G29G26
  22895062.4324   -3705482.62243  -2883261.45242  22895062.9144   22895061.7624
        51.0004         44.0004
  20808083.0854   -1756308.54544  -1364235.00242  20808084.1314   20808081.6484
        57.0004         50.0004
  20850229.5254    2247120.01344   1755025.21442  20850230.8804   20850228.8494
        57.0004         50.0004
  20693433.5204    5076682.90344   3954297.79542  20693435.1984   20693434.2284
        58.0004         50.0004
  23575757.3334   -1660579.75543  -1292372.93242  23575760.6214   23575758.6424
        48.0004         42.0004
  23420384.4264   -3173065.82343  -2459051.53542  23420384.5674   23420385.9014
        48.0004         41.0004
  22702777.1424    4529712.56843   3527746.70842  22702778.6004   22702778.4234
        51.0004         44.0004
  21747390.5564   -1159244.80543   -899500.34342  21747392.5194   21747391.7464
        54.0004         46.0004
 04  6 21 15 35 20.0000000  0  8G22G21G18G 6G16G15G29G26
  22884110.5904   -3763034.46143  -2928107.01542  22884111.4014   22884109.6564
        52.0004         44.0004
  20804992.7124   -1772545.56744  -1376887.23742  20804994.4664   20804992.2374
        57.0004         50.0004
  20844750.7234    2218330.27244   1732591.65442  20844752.5394   20844750.4964
        57.0004         50.0004
  20699577.3004    5108969.86744   3979456.44542  20699579.4004   20699578.3884
        58.0004         50.0004
  23573581.0814   -1672016.81143  -1301284.94442  23573581.8404   23573581.7604
        48.0004         41.0004
  23411053.2894   -3222102.26543  -2497261.76142  23411053.0584   23411056.2124
        48.0004         41.0004
  22706824.3604    4550982.09143   3544320.33142  22706827.0834   22706825.6244
        50.0004         44.0004
  21747730.3084   -1157455.50243   -898106.08242  21747732.6484   21747731.4834
        54.0004         46.0004
 04  6 21 15 35 40.0000000  0  8G22G21G18G 6G16G15G29G26
  22873181.8604   -3820465.40043  -2972858.37642  22873182.3374   22873180.3924
        51.0004         44.0004
  20801917.3714   -1788706.72744  -1389480.36542  20801919.2064   20801916.2674
        57.0004         50.0004
  20839308.0354    2189727.51844   1710303.79942  20839309.4524   20839307.5574
        57.0004         50.0004
  20705760.4054    5141462.12144   4004775.04942  20705762.1714   20705761.2904
        57.0004         50.0004
  23571449.2574   -1683220.88243  -1310015.43642  23571450.1954   23571449.7684
        49.0004         42.0004
  23401724.6814   -3271120.76043  -2535457.99142  23401725.9564   23401725.7244
        48.0004         41.0004
  22710916.8784    4572488.84543   3561078.81842  22710918.9384   22710917.4324
        50.0004         44.0004
  21748126.5734   -1155372.71143   -896483.13142  21748128.8054   21748128.6204
        53.0004         46.0004
 04  6 21 15 36  0.0000000  0  8G22G21G18G 6G16G15G29G26
  22862277.4334   -3877769.89443  -3017511.21642  22862277.6194   22862274.8614
        52.0004         44.0004
  20798858.3404   -1804786.81844  -1402010.32142  20798859.7354   20798856.4404
        57.0004         50.0004
  20833901.5574    2161317.18744   1688165.88642  20833903.1944   20833901.0744
        57.0004         50.0004
  20711983.6294    5174164.59844   4030257.46442  20711985.2674   20711984.3214
        57.0004         50.0004
  23569362.6344   -1694186.82043  -1318560.36442  23569364.0824   23569364.0924
        48.0004         41.0004
  23392402.1084   -3320116.08243  -2573636.15842  23392402.6954   23392404.0734
        48.0004         41.0004
  22715055.4184    4594237.65743   3578025.92842  22715057.4554   22715056.4654
        50.0004         44.0004
  21748580.0184   -1152991.16443   -894627.38542  21748582.3794   21748581.7594
        53.0004         46.0004
 04  6 21 15 36 20.0000000  0  8G22G21G18G 6G16G15G29G26
  22851396.0254   -3934949.68243  -3062066.87342  22851395.4304   22851394.5554
        52.0004         44.0004
  20795812.5294   -1820787.74844  -1414478.59142  20795814.7374   20795811.3374
        57.0004         50.0004
  20828531.4824    2133096.45444   1666175.71142  20828532.9474   20828531.1184
        57.0004         50.0004
  20718246.4614    5207074.95544   4055901.87042  20718247.9434   20718247.1914
        57.0004         50.0004
  23567319.8714   -1704916.77143  -1326921.39642  23567320.5084   23567321.0014
        47.0004         41.0004
  23383082.3814   -3369090.41443  -2611797.95442  23383084.1394   23383083.0404
        48.0004         41.0004
  22719239.9624    4616226.20943   3595159.84942  22719241.7174   22719241.1594
        51.0004         44.0004
  21749089.4324   -1150313.04943   -892540.55042  21749091.8854   21749091.2624
        54.0004         46.0004
 04  6 21 15 36 40.0000000  0  8G22G21G18G 6G16G15G29G26
  22840538.0634   -3992006.19743  -3106526.47642  22840539.3034   22840536.5524
        52.0004         44.0004
  20792782.7784   -1836711.06044  -1426886.38142  20792784.4094   20792781.4884
        57.0004         50.0004
  20823196.6814    2105064.17144   1644332.37542  20823198.6004   20823196.5014
        57.0004         50.0004
  20724548.0804    5240191.25144   4081706.74642  20724549.9484   20724549.0534
        57.0004         50.0004
  23565324.0684   -1715412.30243  -1335099.76242  23565325.6564   23565324.1514
        48.0004         41.0004
  23373766.1734   -3418045.26943  -2649944.58842  23373767.4874   23373768.4364
        47.0004         41.0004
  22723469.3004    4638452.50143   3612479.01542  22723471.5374   22723470.9844
        51.0004         44.0004
  21749655.5754   -1147339.83943   -890223.77042  21749657.0294   21749656.1604
        54.0004         46.0004
 04  6 21 15 37  0.0000000  0  8G22G21G18G 6G16G15G29G26
  22829705.1334   -4048936.30743  -3150887.58842  22829705.5894   22829703.3314
        51.0004         44.0004
  20789767.7004   -1852553.94744  -1439231.50142  20789769.3144   20789766.5514
        57.0004         50.0004
  20817899.0544    2077223.34244   1622638.22342  20817900.8214   20817898.7334
        57.0004         50.0004
  20730889.7504    5273516.28944   4107674.28342  20730891.6314   20730890.6024
        57.0004         50.0004
  23563370.6244   -1725670.84543  -1343093.47642  23563372.4504   23563371.8774
        48.0004         42.0004
  23364454.9664   -3466978.02943  -2688074.00442  23364455.5994   23364457.3724
        47.0004         41.0004
  22727744.6264    4660919.09443   3629985.44142  22727747.3994   22727744.9904
        51.0004         44.0004
  21750277.9194   -1144068.64843   -887674.79442  21750280.0204   21750279.6114
        54.0004         46.0004
 04  6 21 15 37 20.0000000  0  8G22G21G18G 6G16G15G29G26
  22818895.6134   -4105741.06843  -3195151.02142  22818895.6044   22818894.1094
        51.0004         44.0004
  20786768.0074   -1868317.46144  -1451514.77242  20786769.5284   20786766.8634
        57.0004         50.0004
  20812637.4334    2049572.48944   1601092.10442  20812638.7824   20812636.9924
        57.0004         50.0004
  20737270.6324    5307048.13144   4133802.96142  20737272.3024   20737271.3314
        57.0004         50.0004
  23561463.8724   -1735693.77043  -1350903.59742  23561466.5424   23561464.8354
        48.0004         41.0004
  23355146.5044   -3515889.96743  -2726187.20742  23355148.3594   23355148.8454
        47.0004         41.0004
  22732065.8924    4683624.21043   3647677.72142  22732067.4684   22732066.5414
        51.0004         44.0004
  21750956.5894   -1140500.85443   -884894.70542  21750958.7254   21750958.5224
        54.0004         46.0004
 04  6 21 15 37 40.0000000  0  8G22G21G18G 6G16G15G29G26
  22808109.2414   -4162419.62343  -3239316.12342  22808110.2814   22808108.7934
        52.0004         44.0004
  20783784.0194   -1884001.10544  -1463735.80842  20783785.4184   20783782.3734
        57.0004         50.0004
  20807411.5434    2022111.97844   1579694.30842  20807413.2774   20807411.2794
        57.0004         50.0004
  20743691.0284    5340787.14244   4160093.07842  20743692.5304   20743691.9254
        57.0004         50.0004
  23559601.3454   -1745480.66143  -1358529.78042  23559602.8164   23559601.6654
        48.0004         41.0004
  23345843.1654   -3564780.61643  -2764283.80942  23345845.1024   23345845.0964
        47.0004         41.0004
  22736431.5414    4706568.06643   3665556.02842  22736433.5764   22736433.5874
        50.0004         44.0004
  21751692.9244   -1136635.95543   -881883.09642  21751694.6914   21751694.0914
        54.0004         46.0004
 04  6 21 15 38  0.0000000  0  8G22G21G18G 6G16G15G29G26
  22797349.0784   -4218968.80743  -3283380.42042  22797348.9424   22797347.9354
        52.0004         44.0004
  20780815.0374   -1899601.86744  -1475892.26242  20780816.4334   20780813.9604
        57.0004         50.0004
  20802223.0894    1994844.88244   1558447.22442  20802224.8644   20802222.4644
        57.0004         50.0004
  20750151.1444    5374735.81644   4186546.56042  20750152.9434   20750152.0804
        57.0004         50.0004
  23557784.0134   -1755028.55743  -1365969.74642  23557784.4744   23557784.9874
        47.0004         41.0004
  23336543.5164   -3613647.12243  -2802361.58442  23336545.6134   23336547.7834
        47.0004         41.0004
  22740843.5944    4729753.05943   3683622.23742  22740844.8114   22740844.8684
        51.0004         44.0004
  21752484.7764   -1132471.10143   -878637.76742  21752487.0484   21752486.6944
        53.0004         46.0004
 04  6 21 15 38 20.0000000  0  8G22G21G18G 6G16G15G29G26
  22786610.9564   -4275394.43243  -3327348.42942  22786611.5444   22786610.8494
        51.0004         44.0004
  20777860.7434   -1915125.86544  -1487988.89942  20777862.5094   20777859.5964
        57.0004         50.0004
  20797069.9384    1967764.97944   1537346.00242  20797071.5674   20797069.4394
        57.0004         50.0004
  20756650.4214    5408887.98544   4213158.60842  20756651.7554   20756650.9294
        57.0004         50.0004
  23556012.4224   -1764343.72443  -1373228.34942  23556014.0284   23556011.9454
        48.0004         42.0004
  23327248.8574   -3662495.55243  -2840425.28342  23327250.6944   23327250.9344
        47.0004         41.0004
  22745300.3154    4753172.80543   3701871.37042  22745302.8694   22745302.2614
        51.0004         44.0004
  21753333.8174   -1128012.35443   -875163.41542  21753335.5944   21753334.7534
        54.0004         46.0004
 04  6 21 15 38 40.0000000  0  8G22G21G18G 6G16G15G29G26
  22775898.4204   -4331693.45643  -3371217.78442  22775898.4034   22775896.6924
        51.0004         44.0004
  20774922.3074   -1930570.46344  -1500023.67042  20774923.5754   20774920.5624
        57.0004         50.0004
  20791952.8174    1940874.91544   1516392.69842  20791954.5164   20791952.4494
        57.0004         50.0004
  20763188.5204    5443245.82144   4239930.91542  20763190.1844   20763189.2054
        57.0004         50.0004
  23554284.6214   -1773423.59143  -1380303.59942  23554284.4194   23554285.5044
        48.0004         42.0004
  23317957.9404   -3711323.27243  -2878472.85142  23317959.1684   23317959.0534
        47.0004         41.0004
  22749802.1714    4776829.71543   3720305.29542  22749803.9454   22749803.1834
        51.0004         44.0004
  21754238.2084   -1123257.08443   -871458.01742  21754240.2964   21754240.0024
        53.0004         46.0004
 04  6 21 15 39  0.0000000  0  8G22G21G18G 6G16G15G29G26
  22765209.8584   -4387861.05143  -3414984.71142  22765210.2554   22765207.7574
        51.0004         44.0004
  20771999.0094   -1945930.90644  -1511992.86042  20772000.3514   20771997.6394
        57.0004         50.0004
  20786872.8624    1914179.30744   1495590.92842  20786874.4664   20786872.5064
        57.0004         50.0004
  20769766.5354    5477813.74644   4266866.92142  20769767.9144   20769767.3984
        57.0004         50.0004
  23552601.2374   -1782263.53043  -1387191.90042  23552602.0414   23552602.3094
        47.0004         41.0004
  23308670.5694   -3760125.64143  -2916500.65742  23308672.9414   23308672.7254
        48.0004         41.0004
  22754349.2264    4800727.97743   3738927.29942  22754350.7844   22754350.1224
        50.0004         44.0004
  21755200.7184   -1118200.56843   -867517.88642  21755203.4904   21755202.3024
        54.0004         46.0004
 04  6 21 15 39 20.0000000  0  8G22G21G18G 6G16G15G29G26
  22754544.6544   -4443905.73143  -3458655.87142  22754545.6024   22754543.8884
        52.0004         44.0004
  20769090.4714   -1961215.90244  -1523903.25942  20769092.0534   20769088.8914
        57.0004         50.0004
  20781828.4214    1887669.34444   1474933.81042  20781829.8224   20781827.7014
        57.0004         50.0004
  20776382.8414    5512582.65244   4293959.53342  20776384.5384   20776383.6314
        57.0004         50.0004
  23550964.8664   -1790872.61643  -1393900.32442  23550965.7134   23550964.7354
        48.0004         41.0004
  23299386.5574   -3808911.60843  -2954515.68742  23299388.0324   23299389.2254
        47.0004         41.0004
  22758941.1884    4824858.43943   3757730.22642  22758942.9724   22758943.2604
        50.0004         44.0004
  21756218.7454   -1112851.73643   -863349.97842  21756220.4794   21756219.8444
        54.0004         46.0004
 04  6 21 15 39 40.0000000  0  8G22G21G18G 6G16G15G29G26
  22743904.7484   -4499820.99543  -3502226.19142  22743905.0904   22743902.6354
        52.0004         44.0004
  20766197.3494   -1976419.18744  -1535749.98842  20766198.8584   20766195.9984
        57.0004         50.0004
  20776820.2104    1861351.12144   1454426.10442  20776821.6354   20776819.3964
        57.0004         50.0004
  20783038.2964    5547558.29844   4321213.24642  20783040.1594   20783039.3544
        57.0004         50.0004
  23549369.6004   -1799244.74343  -1400424.08942  23549371.4544   23549369.6184
        47.0004         41.0004
  23290108.1514   -3857674.89443  -2992513.04342  23290109.2674   23290109.3754
        47.0004         41.0004
  22763579.1764    4849226.88243   3776718.60342  22763580.4184   22763579.2934
        51.0004         44.0004
  21757293.2604   -1107204.44543   -858949.50142  21757294.9114   21757295.4984
        53.0004         46.0004
 04  6 21 15 40  0.0000000  0  8G22G21G18G 6G16G15G29G26
  22733288.8654   -4555606.12443  -3545695.11142  22733289.2204   22733287.0004
        52.0004         44.0004
  20763319.7654   -1991540.46044  -1547532.81942  20763321.1604   20763318.4444
        57.0004         50.0004
  20771848.3264    1835225.23944   1434068.28242  20771849.8864   20771847.9954
        57.0004         50.0004
  20789733.5774    5582741.00344   4348628.30542  20789734.9764   20789734.3894
        57.0004         50.0004
  23547823.0434   -1807379.43543  -1406762.85142  23547824.6004   23547822.8934
        48.0004         41.0004
  23280833.2344   -3906415.02543  -3030492.34842  23280833.8814   23280833.9214
        48.0004         41.0004
  22768260.7474    4873833.48743   3795892.55542  22768262.5674   22768262.9484
        50.0004         43.0004
  21758425.0654   -1101258.19043   -854316.06742  21758426.2654   21758426.0384
        53.0004         46.0004
 04  6 21 15 40 20.0000000  0  8G22G21G18G 6G16G15G29G26
  22722698.0074   -4611262.90343  -3589064.02342  22722698.4444   22722696.0304
        52.0004         44.0004
  20760457.4984   -2006581.97044  -1559253.49542  20760458.8764   20760456.6324
        57.0004         50.0004
  20766912.8284    1809289.37444   1413858.52042  20766914.6014   20766912.5254
        57.0004         50.0004
  20796467.5054    5618128.47044   4376202.92942  20796469.4734   20796468.4244
        57.0004         50.0004
  23546319.2484   -1815278.93243  -1412918.31542  23546320.2054   23546321.8444
        48.0004         41.0004
  23271561.5224   -3955134.05743  -3068455.23142  23271563.6084   23271562.3294
        48.0004         41.0004
  22772989.2054    4898675.75243   3815250.14242  22772990.4394   22772989.5944
        51.0004         44.0004
  21759613.2094   -1095015.15243   -849451.38942  21759614.5064   21759614.2664
        54.0004         46.0004
 04  6 21 15 40 40.0000000  0  8G22G21G18G 6G16G15G29G26
  22712131.7064   -4666788.80843  -3632330.94742  22712131.7274   22712130.7414
        52.0004         44.0004
  20757611.0844   -2021540.77344  -1570909.71642  20757612.1164   20757609.7204
        57.0004         50.0004
  20762014.3574    1783545.70044   1393798.51942  20762016.0244   20762013.7524
        57.0004         50.0004
  20803240.9164    5653722.38344   4403938.41542  20803242.7504   20803241.3414
        57.0004         50.0004
  23544861.5134   -1822941.03343  -1418888.83442  23544862.6714   23544861.3344
        48.0004         42.0004
  23262295.6814   -4003829.88843  -3106400.03442  23262295.7234   23262297.6474
        49.0004         41.0004
  22777761.5344    4923755.63043   3834792.87642  22777762.5654   22777761.2034
        51.0004         43.0004
  21760858.0234   -1088473.11143   -844353.70142  21760859.4924   21760859.4034
        54.0004         46.0004
 04  6 21 15 41  0.0000000  0  8G22G21G18G 6G16G15G29G26
  22701589.6964   -4722186.82643  -3675498.21142  22701590.1304   22701587.7714
        52.0004         44.0004
  20754779.7334   -2036419.84644  -1582503.82142  20754780.8334   20754778.4904
        57.0004         50.0004
  20757151.2434    1757991.14644   1373885.87542  20757152.9224   20757150.7414
        57.0004         50.0004
  20810052.9094    5689519.26944   4431832.05942  20810054.3944   20810053.5784
        57.0004         50.0004
  23543447.4004   -1830369.19643  -1424677.03842  23543448.6314   23543448.5684
        47.0004         41.0004
  23253032.1794   -4052505.74843  -3144329.27142  23253033.9584   23253035.2074
        48.0004         41.0004
  22782579.8244    4949069.36443   3854517.83542  22782581.4494   22782579.0554
        51.0004         44.0004
  21762158.7364   -1081635.26143   -839025.53242  21762160.9284   21762160.9404
        54.0004         46.0004
 04  6 21 15 41 20.0000000  0  8G22G21G18G 6G16G15G29G26
  22691072.1084   -4777456.41243  -3718565.39742  22691071.5674   22691070.7314
        52.0004         44.0004
  20751963.1434   -2051219.38644  -1594035.94242  20751964.7044   20751962.1614
        57.0004         50.0004
  20752324.3284    1732625.78944   1354120.66042  20752326.0724   20752324.0934
        57.0004         50.0004
  20816903.0684    5725519.15344   4459883.87942  20816905.0014   20816904.1514
        57.0004         50.0004
  23542079.9644   -1837563.18743  -1430282.78942  23542080.4454   23542079.8044
        48.0004         41.0004
  23243772.3034   -4101161.48443  -3182242.82642  23243773.9184   23243776.2764
        47.0004         41.0004
  22787439.1954    4974616.79243   3874424.87842  22787441.2344   22787440.6734
        50.0004         43.0004
  21763516.5284   -1074501.62843   -833466.86842  21763517.9784   21763518.4164
        53.0004         46.0004
 04  6 21 15 41 40.0000000  0  8G22G21G18G 6G16G15G29G26
  22680580.3534   -4832591.51643  -3761527.79842  22680580.5934   22680578.4864
        52.0004         45.0004
  20749163.1794   -2065933.74644  -1605501.68842  20749164.6504   20749162.0334
        57.0004         50.0004
  20747534.4754    1707455.25244   1334507.26242  20747536.3764   20747534.3754
        57.0004         50.0004
  20823793.6704    5761727.23044   4488097.91342  20823795.1944   20823794.6194
        57.0004         50.0004
  23540755.3164   -1844517.41243  -1435701.70342  23540758.4444   23540755.8374
        48.0004         41.0004
  23234518.6494   -4149791.33143  -3220136.19642  23234521.3284   23234520.5124
        48.0004         41.0004
  22792346.7084    5000403.28743   3894518.22542  22792348.6044   22792347.9824
        50.0004         43.0004
  21764931.1144   -1067066.47743   -827673.26642  21764933.3444   21764932.6194
        54.0004         46.0004
 04  6 21 15 42  0.0000000  0  8G22G21G18G 6G16G15G29G26
  22670112.3664   -4887601.44943  -3804392.66942  22670113.0174   22670111.1984
        52.0004         45.0004
  20746377.8964   -2080571.88344  -1616908.04142  20746379.1764   20746376.7874
        57.0004         50.0004
  20742779.7094    1682469.86744   1315038.13142  20742781.5024   20742779.6614
        57.0004         51.0004
  20830721.4564    5798133.74144   4516466.56642  20830723.1934   20830722.4024
        57.0004         50.0004
  23539477.1014   -1851241.63243  -1440941.39442  23539477.7464   23539476.9914
        48.0004         41.0004
  23225268.9884   -4198404.71143  -3258016.74342  23225271.4014   23225270.9014
        48.0004         41.0004
  22797298.1244    5026418.83343   3914790.05242  22797299.1934   22797297.7834
        51.0004         43.0004
  21766401.6144   -1059339.30843   -821652.12042  21766403.6834   21766402.8804
        54.0004         46.0004
 04  6 21 15 42 20.0000000  0  8G22G21G18G 6G16G15G29G26
  22659670.4664   -4942476.44443  -3847152.38742  22659670.6744   22659668.9864
        52.0004         45.0004
  20743608.7374   -2095124.31444  -1628247.60942  20743610.0734   20743607.5424
        57.0004         50.0004
  20738062.7144    1657679.18244   1295720.71142  20738063.9494   20738062.1644
        57.0004         51.0004
  20837689.1564    5834747.95044   4544997.07642  20837690.6224   20837689.8524
        57.0004         50.0004
  23538241.4994   -1857726.41943  -1445994.50542  23538244.6974   23538243.1784
        48.0004         41.0004
  23216023.0414   -4246992.12243  -3295877.06442  23216025.0934   23216024.1854
        49.0004         41.0004
  22802293.0974    5052672.70943   3935247.59242  22802294.8654   22802295.3664
        49.0004         43.0004
  21767928.9414   -1051310.72943   -815396.10442  21767931.0424   21767931.0794
        53.0004         46.0004
 04  6 21 15 42 40.0000000  0  8G22G21G18G 6G16G15G29G26
  22649252.3584   -4997219.66943  -3889809.42742  22649252.8844   22649251.4904
        52.0004         45.0004
  20740854.9724   -2109594.66744  -1639523.21942  20740856.7114   20740853.5924
        57.0004         50.0004
  20733381.3844    1633079.64444   1276552.24042  20733383.0784   20733380.8344
        57.0004         50.0004
  20844695.1624    5871565.97444   4573686.40842  20844696.8764   20844696.1094
        57.0004         50.0004
  23537052.4384   -1863975.51143  -1450863.96942  23537053.5624   23537055.3664
        47.0004         41.0004
  23206780.4084   -4295557.27743  -3333720.03242  23206782.9324   23206785.0244
        48.0004         41.0004
  22807334.3154    5079160.90543   3955887.71742  22807335.9584   22807335.3414
        51.0004         44.0004
  21769513.8204   -1042984.48243   -808908.13542  21769516.1584   21769515.6934
        53.0004         46.0004
 04  6 21 15 43  0.0000000  0  8G22G21G18G 6G16G15G29G26
  22638860.3414   -5051833.68443  -3932365.76742  22638860.6094   22638857.7644
        53.0004         45.0004
  20738116.3164   -2123985.36744  -1650736.77142  20738118.0114   20738114.9984
        57.0004         50.0004
  20728735.9224    1608668.35844   1257530.45442  20728737.4834   20728735.7584
        57.0004         50.0004
  20851739.7604    5908584.64244   4602532.08142  20851741.5774   20851740.5884
        57.0004         50.0004
  23535908.8384   -1869991.75743  -1455551.98842  23535909.6054   23535910.1504
        48.0004         41.0004
  23197543.9214   -4344102.85143  -3371547.75042  23197544.6114   23197545.3404
        49.0004         41.0004
  22812419.1974    5105880.20043   3976707.91642  22812420.8344   22812419.7254
        51.0004         44.0004
  21771154.3134   -1034363.38443   -802190.42642  21771156.4754   21771156.5144
        53.0004         46.0004
 04  6 21 15 43 20.0000000  0  8G22G21G18G 6G16G15G29G26
  22628492.2074   -5106316.45143  -3974819.85442  22628492.8474   22628491.2424
        52.0004         45.0004
  20735393.6914   -2138294.61644  -1661886.84942  20735395.2284   20735392.5254
        57.0004         50.0004
  20724127.0844    1584447.33044   1238656.92542  20724128.7414   20724126.5824
        57.0004         50.0004
  20858822.8004    5945805.50444   4631535.31342  20858824.2994   20858823.6014
        57.0004         50.0004
  23534807.8014   -1875773.45043  -1460057.24042  23534808.7984   23534809.8534
        48.0004         41.0004
  23188309.2294   -4392626.94343  -3409358.72242  23188309.3714   23188310.8944
        49.0004         41.0004
  22817547.2634    5132832.01643   3997709.29342  22817549.4884   22817548.8544
        50.0004         44.0004
  21772851.5244   -1025445.59443   -795241.52042  21772853.5364   21772853.5734
        54.0004         46.0004
 04  6 21 15 43 40.0000000  0  8G22G21G18G 6G16G15G29G26
  22618150.2154   -5160663.63843  -4017168.28342  22618151.1464   22618148.8074
        52.0004         45.0004
  20732686.0094   -2152518.62044  -1672970.50742  20732688.1204   20732685.6314
        57.0004         50.0004
  20719554.7744    1560420.54044   1219934.74942  20719556.3574   20719554.1634
        57.0004         50.0004
  20865944.7954    5983232.26244   4660698.97842  20865946.4344   20865945.8054
        57.0004         50.0004
  23533753.0664   -1881316.70643  -1464376.70042  23533753.5184   23533755.4554
        48.0004         41.0004
  23179080.1844   -4441125.45043  -3447149.77442  23179082.3664   23179082.2394
        49.0004         41.0004
  22822721.2284    5160020.14043   4018894.82542  22822724.4304   22822721.4514
        50.0004         43.0004
  21774605.9404   -1016227.20543   -788058.37642  21774608.1444   21774607.7764
        54.0004         46.0004
 04  6 21 15 44  0.0000000  0  8G22G21G18G 6G16G15G29G26
  22607832.9564   -5214880.90943  -4059415.48342  22607833.5574   22607831.6724
        52.0004         45.0004
  20729995.4854   -2166662.67944  -1683991.86242  20729996.8184   20729994.2354
        57.0004         50.0004
  20715018.4134    1536581.79944   1201359.11342  20715020.0664   20715018.2454
        57.0004         51.0004
  20873105.0674    6020858.68844   4690018.24042  20873106.7374   20873105.8044
        57.0004         50.0004
  23532743.0254   -1886627.58543  -1468515.09942  23532743.9784   23532742.8704
        48.0004         41.0004
  23169855.9154   -4489604.47043  -3484925.62742  23169855.1164   23169857.7584
        49.0004         41.0004
  22827939.2414    5187438.00543   4040259.35442  22827941.1264   22827941.5914
        51.0004         44.0004
  21776415.8224   -1006714.23643   -780645.69642  21776418.0824   21776417.5764
        53.0004         46.0004
 04  6 21 15 44 20.0000000  0  8G22G21G18G 6G16G15G29G26
  22597540.9324   -5268967.08443  -4101560.53842  22597541.2934   22597539.4974
        53.0004         45.0004
  20727318.9814   -2180726.10144  -1694950.38342  20727320.4944   20727318.0074
        57.0004         50.0004
  20710518.1514    1512931.88144   1182930.60142  20710519.7044   20710517.5834
        57.0004         50.0004
  20880303.1714    6058685.23144   4719493.42742  20880304.9084   20880303.7644
        57.0004         50.0004
  23531776.1234   -1891705.41443  -1472471.88242  23531777.5274   23531776.0034
        48.0004         41.0004
  23160634.4164   -4538063.01943  -3522685.51642  23160634.6844   23160635.6564
        49.0004         41.0004
  22833200.1354    5215086.14343   4061803.32542  22833202.7624   22833200.2064
        50.0004         44.0004
  21778282.4554    -996905.96443   -773002.91642  21778284.9524   21778283.8334
        54.0004         46.0004
 04  6 21 15 44 40.0000000  0  8G22G21G18G 6G16G15G29G26
  22587274.2004   -5322915.71643  -4143598.40242  22587275.0474   22587272.9034
        52.0004         45.0004
  20724659.8944   -2194702.62144  -1705841.19342  20724661.2014   20724658.1684
        57.0004         50.0004
  20706054.6884    1489476.76344   1164653.89042  20706056.3074   20706054.3564
        57.0004         50.0004
  20887540.7184    6096717.67144   4749129.06042  20887542.3714   20887541.5864
        57.0004         50.0004
  23530855.8064   -1896544.09643  -1476242.33442  23530858.5944   23530856.6134
        48.0004         41.0004
  23151417.9694   -4586494.94743  -3560424.65742  23151418.5944   23151418.1704
        49.0004         41.0004
  22838506.8884    5242970.40943   4083531.29442  22838508.8304   22838508.8254
        50.0004         43.0004
  21780206.2424    -986796.29643   -765125.28442  21780208.6384   21780208.1094
        53.0004         46.0004
 04  6 21 15 45  0.0000000  0  8G22G21G18G 6G16G15G29G26
  22577033.9504   -5376732.86843  -4185533.82442  22577034.1734   22577031.5774
        53.0004         45.0004
  20722014.8434   -2208598.46044  -1716669.13142  20722016.6314   20722014.1514
        57.0004         50.0004
  20701627.1974    1466210.30244   1146524.17942  20701629.0554   20701626.8724
        57.0004         51.0004
  20894815.5854    6134949.36644   4778919.95342  20894817.0974   20894816.7194
        57.0004         50.0004
  23529979.4704   -1901150.15043  -1479831.51142  23529981.5644   23529979.3154
        48.0004         41.0004
  23142204.8204   -4634906.64043  -3598148.05942  23142206.8724   23142208.2604
        49.0004         41.0004
  22843856.1724    5271083.94743   4105437.91642  22843857.7924   22843856.8044
        51.0004         43.0004
  21782186.5994    -976391.74843   -757017.87042  21782188.8444   21782187.9144
        54.0004         46.0004
 04  6 21 15 45 20.0000000  0  8G22G21G18G 6G16G15G29G26
  22566817.8384   -5430415.08143  -4227364.10242  22566817.4424   22566817.0424
        53.0004         45.0004
  20719387.3034   -2222410.38544  -1727431.68442  20719388.1874   20719385.6924
        57.0004         50.0004
  20697236.3354    1443135.56744   1128543.86542  20697237.9554   20697235.8594
        57.0004         51.0004
  20902129.2624    6173383.20944   4808868.36742  20902130.9144   20902130.8024
        57.0004         50.0004
  23529146.8904   -1905520.67543  -1483237.17342  23529149.3194   23529147.2714
        48.0004         41.0004
  23132996.9304   -4683294.84643  -3635853.14542  23132998.0154   23132999.1864
        49.0004         42.0004
  22849249.3904    5299429.52643   4127525.36942  22849250.7254   22849252.1964
        50.0004         43.0004
  21784222.5834    -965689.18143   -748678.22242  21784224.9964   21784224.9194
        53.0004         46.0004
 04  6 21 15 45 40.0000000  0  8G22G21G18G 6G16G15G29G26
  22556627.8874   -5483965.26043  -4269091.49942  22556628.8144   22556626.0124
        53.0004         45.0004
  20716774.1064   -2236141.53644  -1738131.29342  20716775.7364   20716772.8994
        57.0004         50.0004
  20692881.2174    1420249.49344   1110710.55442  20692882.7744   20692880.3104
        57.0004         51.0004
  20909480.9154    6212015.77644   4838971.62142  20909482.5354   20909482.2414
        57.0004         50.0004
  23528360.9584   -1909658.86743  -1486461.77742  23528361.9414   23528361.1954
        48.0004         41.0004
  23123792.6764   -4731662.66043  -3673542.35642  23123794.5654   23123794.2394
        49.0004         42.0004
  22854688.1874    5328003.60743   4149790.84142  22854690.2824   22854688.1324
        50.0004         43.0004
  21786316.1644    -954691.89443   -740108.93642  21786317.4784   21786316.9194
        54.0004         46.0004
 04  6 21 15 46  0.0000000  0  8G22G21G18G 6G16G15G29G26
  22546463.1974   -5537379.44743  -4310712.93242  22546463.5544   22546462.0034
        53.0004         45.0004
  20714177.1574   -2249787.92744  -1748764.85742  20714178.6744   20714176.2814
        57.0004         50.0004
  20688562.7724    1397555.67944   1093027.06342  20688564.4954   20688562.1774
        57.0004         51.0004
  20916871.2984    6250850.38344   4869232.31042  20916872.7164   20916871.9794
        57.0004         50.0004
  23527618.3104   -1913561.08043  -1489502.52242  23527619.4044   23527618.3384
        48.0004         41.0004
  23114593.4154   -4780006.43243  -3711212.81442  23114593.6754   23114594.6404
        49.0004         42.0004
  22860168.4774    5356809.47943   4172236.93042  22860170.7134   22860172.1174
        50.0004         44.0004
  21788464.9884    -943396.23343   -731307.14542  21788467.3764   21788466.7164
        53.0004         46.0004
 04  6 21 15 46 20.0000000  0  8G22G21G18G 6G16G15G29G26
  22536324.3484   -5590661.92543  -4352231.73542  22536324.2754   22536322.5484
        53.0004         45.0004
  20711595.8884   -2263353.81944  -1759335.69942  20711596.8154   20711594.7024
        57.0004         50.0004
  20684279.8434    1375049.33744   1075489.65542  20684281.3234   20684279.2874
        57.0004         51.0004
  20924298.4994    6289881.98544   4899646.50742  20924300.3924   20924299.2944
        57.0004         50.0004
  23526919.3194   -1917232.26243  -1492363.21642  23526919.8724   23526921.3214
        48.0004         41.0004
  23105397.9034   -4828330.67243  -3748868.04842  23105397.6714   23105399.0804
        49.0004         42.0004
  22865693.0914    5385842.08943   4194859.71942  22865695.0874   22865695.5474
        49.0004         43.0004
  21790670.8534    -931806.95243   -722276.57242  21790672.1064   21790672.6194
        54.0004         46.0004
 04  6 21 15 46 40.0000000  0  8G22G21G18G 6G16G15G29G26
  22526211.1384   -5643805.28943  -4393642.12042  22526212.3374   22526209.8444
        53.0004         45.0004
  20709030.7644   -2276831.83044  -1769838.06442  20709032.4824   20709029.8584
        57.0004         50.0004
  20680034.1964    1352737.60944   1058103.89342  20680035.9024   20680033.8754
        57.0004         51.0004
  20931764.9174    6329117.49144   4930219.59842  20931766.6844   20931766.0344
        57.0004         50.0004
  23526265.4154   -1920665.39143  -1495038.43642  23526267.1474   23526266.1234
        47.0004         41.0004
  23096206.6394   -4876628.03543  -3786502.34742  23096209.8324   23096209.3614
        49.0004         42.0004
  22871264.1424    5415108.20443   4217664.46142  22871265.5844   22871263.5964
        51.0004         43.0004
  21792933.1924    -919917.07043   -713011.75642  21792934.7404   21792935.7444
        53.0004         46.0004
 04  6 21 15 47  0.0000000  0  8G22G21G18G 6G16G15G29G26
  22516124.1214   -5696815.04843  -4434948.41042  22516124.1744   22516122.1254
        52.0004         45.0004
  20706482.0834   -2290227.97644  -1780276.63542  20706483.2874   20706480.7014
        57.0004         50.0004
  20675824.2834    1330614.62544   1040865.20842  20675826.1304   20675823.9104
        57.0004         51.0004
  20939268.6584    6368550.78544   4960946.80142  20939270.3444   20939270.0894
        57.0004         50.0004
  23525656.7564   -1923866.30243  -1497532.69642  23525659.7334   23525658.8054
        48.0004         41.0004
  23087020.3394   -4924904.36343  -3824120.25142  23087022.4254   23087022.1854
        49.0004         42.0004
  22876875.1724    5444601.73743   4240646.40342  22876876.9474   22876876.7284
        51.0004         43.0004
  21795252.3064    -907732.58443   -703517.37842  21795253.6954   21795253.0504
        53.0004         46.0004
 04  6 21 15 47 20.0000000  0  8G22G21G18G 6G16G15G29G26
  22506062.4084   -5749688.24843  -4476148.28542  22506062.8414   22506060.9024
        52.0004         45.0004
  20703948.6784   -2303539.69444  -1790649.41742  20703950.1664   20703947.1724
        57.0004         50.0004
  20671650.6024    1308683.16244   1023775.75642  20671652.2104   20671650.7294
        57.0004         51.0004
  20946810.6134    6408184.16744   4991829.91442  20946812.2234   20946811.8654
        57.0004         50.0004
  23525091.2974   -1926832.53843  -1499844.10742  23525093.6504   23525092.5564
        47.0004         41.0004
  23077837.3214   -4973157.00243  -3861719.68742  23077838.5264   23077840.2834
        49.0004         42.0004
  22882530.9284    5474324.78743   4263807.16842  22882532.1104   22882534.1354
        49.0004         43.0004
  21797626.9294    -895250.74843   -693791.29842  21797629.0864   21797629.0094
        53.0004         46.0004
 04  6 21 15 47 40.0000000  0  8G22G21G18G 6G16G15G29G26
  22496027.6764   -5802423.57143  -4517240.71542  22496027.6574   22496026.1004
        53.0004         45.0004
  20701431.8844   -2316765.55644  -1800955.29842  20701433.2424   20701430.6274
        57.0004         50.0004
  20667513.9824    1286944.04943   1006836.19442  20667515.3284   20667513.6484
        56.0004         51.0004
  20954391.1584    6448018.30244   5022869.46342  20954392.4604   20954392.2254
        57.0004         50.0004
  23524573.5144   -1929563.33943  -1501972.05142  23524574.7694   23524573.0744
        48.0004         41.0004
  23068661.2804   -5021384.92343  -3899299.89742  23068662.3844   23068662.0664
        49.0004         42.0004
  22888232.3834    5504277.85443   4287147.19342  22888233.7954   22888232.8594
        51.0004         43.0004
  21800058.8824    -882470.94743   -683833.03042  21800061.1044   21800060.6534
        53.0004         46.0004
 04  6 21 15 48  0.0000000  0  8G22G21G18G 6G16G15G29G26
  22486016.5454   -5855030.70943  -4558233.28442  22486016.6854   22486014.3694
        53.0004         45.0004
  20698929.5054   -2329915.35844  -1811201.91342  20698931.1014   20698928.0204
        57.0004         50.0004
  20663411.7554    1265387.11844    990038.59142  20663413.3474   20663411.4024
        57.0004         51.0004
  20962007.5774    6488042.86344   5054057.39542  20962009.0614   20962008.5474
        57.0004         50.0004
  23524095.6094   -1932068.79543  -1503924.40442  23524097.5914   23524096.2954
        48.0004         41.0004
  23059486.9934   -5069598.05343  -3936868.61442  23059487.9954   23059487.9574
        50.0004         42.0004
  22893973.0224    5534450.60643   4310658.38742  22893975.9794   22893973.7044
        50.0004         43.0004
  21802545.3394    -869403.07343   -673650.31442  21802547.5714   21802546.9104
        53.0004         46.0004
 04  6 21 15 48 20.0000000  0  8G22G21G18G 6G16G15G29G26
  22476032.9184   -5907495.76643  -4599115.13442  22476032.6564   22476031.0734
        53.0004         45.0004
  20696444.5874   -2342975.16144  -1821378.39942  20696445.8444   20696442.9664
        57.0004         50.0004
  20659347.0784    1244026.08644    973393.63042  20659348.5604   20659346.7864
        57.0004         51.0004
  20969662.9264    6528271.30444   5085404.19242  20969664.5954   20969663.7664
        57.0004         50.0004
  23523664.9544   -1934335.25143  -1505690.52242  23523665.5974   23523667.2244
        48.0004         41.0004
  23050316.5444   -5117782.60143  -3974415.04842  23050319.2904   23050318.3544
        49.0004         42.0004
  22899759.2514    5564856.33543   4334351.13942  22899760.2894   22899760.0534
        49.0004         43.0004
  21805089.8034    -856033.64343   -663232.59042  21805091.9874   21805091.4414
        53.0004         46.0004
 04  6 21 15 48 40.0000000  0  8G22G21G18G 6G16G15G29G26
  22466074.8814   -5959823.78943  -4639890.20442  22466075.6854   22466073.7294
        53.0004         46.0004
  20693974.7234   -2355950.28344  -1831488.89342  20693976.3534   20693974.0864
        57.0004         50.0004
  20655318.5014    1222855.58744    956897.13742  20655320.2414   20655317.9784
        57.0004         51.0004
  20977355.7154    6568697.81244   5116905.32642  20977357.2514   20977356.4894
        57.0004         49.0004
  23523277.7284   -1936368.39843  -1507274.84342  23523279.2034   23523278.8524
        49.0004         41.0004
  23041152.1424   -5165943.79743  -4011943.29742  23041153.3674   23041153.6514
        49.0004         42.0004
  22905588.5624    5595489.31943   4358220.96242  22905590.4654   22905590.2554
        50.0004         43.0004
  21807689.9684    -842368.23543   -652584.24842  21807692.1214   21807692.3754
        53.0004         46.0004
 04  6 21 15 49  0.0000000  0  8G22G21G18G 6G16G15G29G26
  22456143.5094   -6012015.95443  -4680559.40142  22456144.0254   22456141.3554
        54.0004         46.0004
  20691521.7464   -2368842.02744  -1841534.42842  20691523.4664   20691520.9254
        57.0004         50.0004
  20651325.5444    1201874.00244    940547.85042  20651326.9854   20651325.1354
        57.0004         51.0004
  20985085.9954    6609320.50344   5148559.33242  20985087.6274   20985087.1044
        57.0004         49.0004
  23522933.8274   -1938169.82143  -1508678.59242  23522935.1104   23522935.7334
        47.0004         41.0004
  23031990.8514   -5214082.98743  -4049454.31842  23031991.3394   23031993.7824
        49.0004         42.0004
  22911460.1084    5626347.53143   4382266.28342  22911461.2344   22911462.3904
        50.0004         43.0004
  21810346.7304    -828408.51043   -641706.55842  21810348.9204   21810348.1964
        53.0004         46.0004
 04  6 21 15 49 20.0000000  0  8G22G21G18G 6G16G15G29G26
  22446237.5884   -6064068.15843  -4721119.54342  22446238.6514   22446236.4854
        54.0004         46.0004
  20689085.5774   -2381646.57344  -1851512.00842  20689087.2124   20689084.1334
        57.0004         50.0004
  20647369.7634    1181084.96044    924348.59942  20647371.3264   20647369.3934
        57.0004         51.0004
  20992854.1094    6650142.97544   5180369.01042  20992855.8324   20992855.2874
        57.0004         49.0004
  23522636.9784   -1939736.01243  -1509899.04542  23522637.6394   23522639.9324
        47.0004         41.0004
  23022836.0904   -5262196.25043  -4086945.07842  23022836.0484   23022838.6014
        49.0004         42.0004
  22917376.3104    5657434.46943   4406489.84942  22917378.0154   22917379.3804
        49.0004         43.0004
  21813059.6174    -814150.72843   -630596.61742  21813061.4934   21813061.9304
        53.0004         46.0004
 04  6 21 15 49 40.0000000  0  8G22G21G18G 6G16G15G29G26
  22436358.4464   -6115985.29143  -4761574.42642  22436358.7534   22436357.0754
        53.0004         46.0004
  20686664.2634   -2394368.71144  -1861425.37542  20686665.9334   20686663.0774
        57.0004         50.0004
  20643449.3444    1160483.42344    908295.45742  20643450.8794   20643449.0344
        57.0004         51.0004
  21000659.6464    6691159.65744   5212330.02742  21000661.1624   21000660.4664
        57.0004         49.0004
  23522381.2484   -1941072.02343  -1510940.14842  23522381.8724   23522383.3514
        47.0004         41.0004
  23013683.9954   -5310288.87043  -4124419.83042  23013685.6914   23013685.9054
        49.0004         42.0004
  22923335.0824    5688744.48743   4430887.24142  22923337.3014   22923337.0964
        50.0004         43.0004
  21815829.4924    -799600.21043   -619258.56442  21815831.2424   21815830.6714
        53.0004         46.0004
 04  6 21 15 50  0.0000000  0  8G22G21G18G 6G16G15G29G26
  22426504.8904   -6167764.02343  -4801921.45842  22426505.8944   22426503.9944
        53.0004         46.0004
  20684259.6804   -2407005.40744  -1871272.16742  20684260.6324   20684258.6324
        57.0004         50.0004
  20639565.2674    1140072.29044    892390.68242  20639566.8894   20639564.8814
        57.0004         51.0004
  21008502.1084    6732373.20544   5244444.43642  21008503.9204   21008503.4084
        57.0004         49.0004
  23522173.4424   -1942175.30743  -1511799.89042  23522172.8874   23522173.5304
        47.0004         41.0004
  23004536.9654   -5358357.70543  -4161876.05042  23004539.5024   23004538.1364
        49.0004         42.0004
  22929335.5924    5720280.07943   4455460.39242  22929338.4104   22929337.7054
        50.0004         43.0004
  21818653.1154    -784754.14443   -607690.22642  21818655.4654   21818656.1534
        53.0004         46.0004
 04  6 21 15 50 20.0000000  0  8G22G21G18G 6G16G15G29G26
  22416678.4414   -6219404.98243  -4842161.14542  22416678.7724   22416676.9624
        53.0004         45.0004
  20681871.4574   -2419557.19644  -1881052.79842  20681872.5514   20681870.2904
        57.0004         50.0004
  20635717.1994    1119850.68244    876633.59642  20635718.8134   20635716.7894
        57.0004         51.0004
  21016382.2724    6773782.44144   5276711.33242  21016384.0164   21016383.5974
        57.0004         50.0004
  23522006.7384   -1943046.68943  -1512478.94042  23522008.9044   23522007.1174
        47.0004         41.0004
  22995394.3614   -5406403.52343  -4199314.33542  22995394.6474   22995395.7184
        49.0004         42.0004
  22935378.7334    5752040.11843   4480208.45942  22935380.6744   22935379.9724
        50.0004         43.0004
  21821535.1124    -769613.54843   -595892.37042  21821537.2704   21821536.4864
        53.0004         46.0004
 04  6 21 15 50 40.0000000  0  8G22G21G18G 6G16G15G29G26
  22406877.4884   -6270908.27243  -4882293.54742  22406877.4824   22406875.7794
        53.0004         45.0004
  20679499.2774   -2432024.33244  -1890767.46842  20679500.6234   20679497.7094
        57.0004         50.0004
  20631905.3024    1099818.30744    861023.95242  20631906.7984   20631904.6284
        57.0004         51.0004
  21024299.1904    6815386.73544   5309130.22142  21024301.0104   21024300.4904
        57.0004         50.0004
  23521886.1864   -1943686.77343  -1512977.75342  23521887.0884   23521887.2354
        48.0004         41.0004
  22986255.5554   -5454426.60143  -4236734.91942  22986256.7214   22986257.1394
        49.0004         42.0004
  22941465.5514    5784023.75643   4505130.74742  22941467.2004   22941466.5994
        50.0004         43.0004
  21824472.2704    -754178.80043   -583865.31042  21824474.0824   21824474.3684
        53.0004         46.0004
 04  6 21 15 51  0.0000000  0  8G22G21G18G 6G16G15G29G26
  22397103.4474   -6322270.02243  -4922315.66842  22397104.3654   22397101.9854
        53.0004         45.0004
  20677143.3094   -2444403.07644  -1900413.25342  20677144.9914   20677142.3144
        57.0004         50.0004
  20628129.7514    1079978.60144    845564.44442  20628131.2044   20628129.3664
        57.0004         51.0004
  21032253.9454    6857189.21044   5341703.53042  21032255.7774   21032255.1654
        57.0004         49.0004
  23521807.3374   -1944092.21443  -1513293.73742  23521809.7224   23521808.3074
        47.0004         41.0004
  22977122.2174   -5502423.36443  -4274134.98642  22977122.6174   22977123.7184
        48.0004         42.0004
  22947595.9644    5816234.05543   4530229.64342  22947596.1564   22947596.2654
        50.0004         43.0004
  21827465.7914    -738446.70843   -571606.56142  21827467.9744   21827467.7464
        53.0004         46.0004
 04  6 21 15 51 20.0000000  0  8G22G21G18G 6G16G15G29G26
  22387355.9714   -6373493.35243  -4962229.92542  22387357.1494   22387354.4164
        53.0004         46.0004
  20674803.9574   -2456696.44144  -1909992.51442  20674805.6214   20674802.9064
        57.0004         50.0004
  20624390.2234    1060327.85044    830252.17942  20624391.9694   20624389.9744
        57.0004         51.0004
  21040245.8274    6899186.01144   5374428.26442  21040247.3954   21040246.7284
        57.0004         49.0004
  23521775.9044   -1944266.67143  -1513429.71442  23521777.5954   23521776.2084
        48.0004         41.0004
  22967992.7304   -5550397.17143  -4311517.16742  22967993.0344   22967995.4584
        49.0004         42.0004
  22953766.5524    5848667.25243   4555502.23742  22953768.7854   22953768.9024
        49.0004         43.0004
  21830516.1264    -722420.82943   -559118.87242  21830517.6254   21830517.1754
        53.0004         46.0004
 04  6 21 15 51 40.0000000  0  8G22G21G18G 6G16G15G29G26
  22377635.1704   -6424578.16743  -5002036.24642  22377635.4024   22377632.9164
        53.0004         46.0004
  20672481.3694   -2468904.47444  -1919505.28142  20672482.4074   20672479.8174
        57.0004         50.0004
  20620686.9274    1040866.00744    815087.11042  20620688.5674   20620686.5254
        57.0004         51.0004
  21048274.6474    6941376.74244   5407304.12642  21048276.2744   21048275.7904
        57.0004         49.0004
  23521785.7604   -1944210.50643  -1513385.98342  23521785.9914   23521786.6004
        48.0004         41.0004
  22958868.6704   -5598348.06743  -4348881.48642  22958869.1394   22958869.8174
        49.0004         42.0004
  22959980.1144    5881322.70043   4580948.00542  22959983.2664   22959984.6144
        50.0004         43.0004
  21833621.1354    -706101.50643   -546402.54442  21833623.3024   21833622.6264
        53.0004         46.0004
 04  6 21 15 52  0.0000000  0  8G22G21G18G 6G16G15G29G26
  22367940.1184   -6475523.77043  -5041734.08342  22367941.2174   22367938.1074
        53.0004         46.0004
  20670174.3264   -2481027.21244  -1928951.58542  20670175.7064   20670173.2374
        57.0004         50.0004
  20617019.4654    1021593.40744    800069.50642  20617021.1684   20617019.0164
        57.0004         51.0004
  21056340.1184    6983761.46844   5440331.16042  21056341.8024   21056341.4114
        57.0004         49.0004
  23521840.2614   -1943923.53043  -1513162.41642  23521841.7684   23521841.5544
        48.0004         41.0004
  22949747.5254   -5646275.47243  -4386227.50142  22949748.9634   22949749.3874
        49.0004         42.0004
  22966237.3974    5914200.25343   4606566.84942  22966240.1144   22966240.0534
        50.0004         43.0004
  21836782.2374    -689488.64443   -533457.46242  21836784.3444   21836783.7714
        53.0004         46.0004
 04  6 21 15 52 20.0000000  0  8G22G21G18G 6G16G15G29G26
  22358273.0064   -6526328.20943  -5081321.94542  22358273.6414   22358270.6364
        54.0004         46.0004
  20667883.7454   -2493062.49344  -1938329.74242  20667885.2344   20667882.7634
        57.0004         50.0004
  20613388.2584    1002511.75944    785200.70342  20613389.9004   20613387.9264
        57.0004         51.0004
  21064442.7194    7026341.46344   5473510.34042  21064444.2564   21064443.8534
        57.0004         49.0004
  23521939.3604   -1943404.26643  -1512757.82042  23521941.7134   23521939.3884
        48.0004         41.0004
  22940632.5364   -5694177.61943  -4423553.83742  22940633.7994   22940634.2684
        49.0004         42.0004
  22972536.6204    5947301.13743   4632359.70942  22972538.0824   22972539.4594
        50.0004         43.0004
  21839999.7904    -672580.54843   -520282.33142  21840001.4354   21840001.5344
        53.0004         46.0004
 04  6 21 15 52 40.0000000  0  8G22G21G18G 6G16G15G29G26
  22348630.7284   -6576996.29243  -5120803.55742  22348631.2064   22348629.1454
        53.0004         46.0004
  20665609.3904   -2505015.08044  -1947643.45942  20665610.6704   20665608.1694
        57.0004         50.0004
  20609792.7574     983615.85644    770476.63042  20609794.0854   20609791.9044
        57.0004         51.0004
  21072581.5974    7069111.28743   5506837.42942  21072582.8214   21072583.0264
        56.0004         49.0004
  23522080.8944   -1942658.02343  -1512176.37042  23522082.9854   23522082.6224
        48.0004         41.0004
  22931520.8964   -5742059.44243  -4460864.33742  22931520.7164   22931523.7504
        49.0004         42.0004
  22978877.0714    5980620.02743   4658322.46642  22978878.2474   22978878.3544
        50.0004         43.0004
  21843273.0594    -655382.66143   -506881.39642  21843274.5404   21843274.3844
        53.0004         46.0004
 04  6 21 15 53  0.0000000  0  8G22G21G18G 6G16G15G29G26
  22339016.0094   -6627521.09843  -5160173.50442  22339016.9724   22339015.0154
        53.0004         46.0004
  20663351.6714   -2516878.17544  -1956887.44042  20663353.2584   20663350.6304
        57.0004         50.0004
  20606233.2474     964912.06944    755902.25742  20606234.9664   20606232.9684
        57.0004         51.0004
  21080757.7324    7112077.22843   5540317.36042  21080759.2754   21080758.9734
        56.0004         49.0004
  23522268.2394   -1941678.11743  -1511412.85642  23522269.6244   23522269.0154
        48.0004         41.0004
  22922414.4824   -5789914.25743  -4498153.78542  22922414.9044   22922415.6614
        49.0004         42.0004
  22985259.7804    6014163.03643   4684459.82742  22985261.5464   22985261.3234
        50.0004         43.0004
  21846601.5154    -637888.40643   -493249.52542  21846603.5354   21846603.5424
        53.0004         46.0004
 04  6 21 15 53 20.0000000  0  8G22G21G18G 6G16G15G29G26
  22329428.2774   -6677905.54243  -5199434.08542  22329428.3514   22329427.1534
        53.0004         46.0004
  20661110.9454   -2528654.61244  -1966063.89842  20661112.1854   20661109.7894
        57.0004         50.0004
  20602710.0114     946397.44044    741475.28142  20602711.5844   20602709.8284
        57.0004         51.0004
  21088970.4134    7155235.89044   5573947.49342  21088972.1224   21088971.8904
        57.0004         49.0004
  23522498.6174   -1940467.97543  -1510469.92042  23522500.0484   23522499.2144
        47.0004         41.0004
  22913313.2734   -5837745.11443  -4535424.57542  22913314.0414   22913316.9994
        49.0004         42.0004
  22991684.3254    6047926.59243   4710769.05742  22991686.4724   22991685.4544
        49.0004         42.0004
  21849986.8404    -620101.13443   -479389.32742  21849988.3174   21849987.8834
        53.0004         46.0004
 04  6 21 15 53 40.0000000  0  8G22G21G18G 6G16G15G29G26
  22319867.5164   -6728147.97343  -5238584.00542  22319867.9674   22319865.6634
        53.0004         46.0004
  20658886.4674   -2540342.96444  -1975171.71942  20658888.4374   20658885.8944
        57.0004         50.0004
  20599223.1764     928073.13644    727196.60842  20599224.6814   20599222.6044
        57.0004         51.0004
  21097220.3964    7198588.11444   5607728.44242  21097221.8254   21097221.7174
        57.0004         49.0004
  23522771.6654   -1939026.63343  -1509346.84042  23522773.3854   23522770.7984
        47.0004         41.0004
  22904215.0224   -5885550.61043  -4572675.59742  22904216.5084   22904217.2994
        49.0004         42.0004
  22998151.5644    6081911.34043   4737250.65642  22998153.4614   22998151.3564
        49.0004         42.0004
  21853427.3284    -602019.89243   -465300.06242  21853429.7994   21853428.5654
        53.0004         46.0004
 04  6 21 15 54  0.0000000  0  8G22G21G18G 6G16G15G29G26
  22310333.3454   -6778251.34143  -5277625.55642  22310333.9034   22310331.7354
        54.0004         46.0004
  20656678.8944   -2551946.30144  -1984213.29542  20656680.3294   20656677.8354
        57.0004         50.0004
  20595771.4884     909935.78243    713063.61542  20595773.1444   20595771.3194
        56.0004         51.0004
  21105506.2164    7242130.32344   5641657.41342  21105508.1314   21105507.1934
        57.0004         49.0004
  23523090.6694   -1937357.48143  -1508046.24642  23523091.5184   23523091.3834
        48.0004         41.0004
  22895122.3934   -5933333.63543  -4609909.11042  22895122.2754   22895124.0104
        49.0004         43.0004
  23004660.8184    6116113.84143   4763901.92542  23004662.0594   23004661.5924
        50.0004         43.0004
  21856922.8934    -583648.04543   -450984.35642  21856925.4444   21856925.0034
        53.0004         46.0004
 04  6 21 15 54 20.0000000  0  8G22G21G18G 6G16G15G29G26
  22300825.6714   -6828212.87543  -5316556.60442  22300826.3354   22300824.1704
        54.0004         46.0004
  20654487.2304   -2563461.90944  -1993186.51542  20654488.7864   20654486.2854
        57.0004         50.0004
  20592356.3084     891987.76644    699078.14742  20592358.0334   20592355.5344
        57.0004         51.0004
  21113828.6914    7285864.59544   5675736.03642  21113829.9984   21113829.7624
        57.0004         49.0004
  23523452.0004   -1935458.27443  -1506566.40042  23523452.6174   23523453.5644
        48.0004         41.0004
  22886034.8374   -5981091.82343  -4647123.27142  22886035.6504   22886037.1714
        49.0004         43.0004
  23011211.0584    6150536.06843   4790724.37242  23011214.2844   23011213.5394
        50.0004         43.0004
  21860475.2294    -564983.27543   -436440.39242  21860476.8174   21860477.1334
        53.0004         46.0004
 04  6 21 15 54 40.0000000  0  8G22G21G18G 6G16G15G29G26
  22291345.6914   -6878030.57743  -5355375.58142  22291346.3474   22291344.2544
        54.0004         46.0004
  20652312.8214   -2574887.84944  -2002089.86142  20652314.4504   20652312.1444
        57.0004         50.0004
  20588977.1954     874230.81344    685241.56142  20588978.8514   20588976.4714
        57.0004         51.0004
  21122187.5364    7329792.38743   5709965.45042  21122189.3454   21122188.9854
        56.0004         49.0004
  23523857.1754   -1933327.42943  -1504906.04742  23523858.2544   23523857.5964
        48.0004         41.0004
  22876951.3554   -6028823.33243  -4684316.63142  22876951.6804   22876954.3034
        49.0004         42.0004
  23017802.8944    6185179.20643   4817719.00842  23017804.5514   23017804.8244
        49.0004         43.0004
  21864082.7144    -546024.13043   -421667.04642  21864084.9134   21864084.1274
        53.0004         46.0004
 04  6 21 15 55  0.0000000  0  8G22G21G18G 6G16G15G29G26
  22281892.0814   -6927708.51843  -5394085.64542  22281892.1934   22281890.5674
        54.0004         46.0004
  20650155.0354   -2586228.29144  -2010926.58042  20650156.8214   20650153.9964
        57.0004         50.0004
  20585633.7644     856660.65944    671550.53142  20585635.2044   20585633.3104
        57.0004         51.0004
  21130582.8694    7373908.78343   5744341.82642  21130584.3574   21130583.9504
        56.0004         49.0004
  23524306.0034   -1930969.70743  -1503068.90542  23524306.8904   23524307.4774
        48.0004         41.0004
  22867873.2504   -6076532.37743  -4721492.50642  22867873.4624   22867874.2444
        49.0004         43.0004
  23024437.0294    6220038.56443   4844882.11042  23024439.1234   23024437.8934
        50.0004         43.0004
  21867746.7054    -526775.21643   -406667.90242  21867748.2564   21867747.6484
        53.0004         46.0004
 04  6 21 15 55 20.0000000  0  8G22G21G18G 6G16G15G29G26
  22272465.5234   -6977246.51343  -5432686.66742  22272465.7154   22272463.8344
        53.0004         46.0004
  20648013.1904   -2597483.21744  -2019696.66542  20648014.9564   20648012.4024
        57.0004         50.0004
  20582325.6594     839276.88543    658004.72142  20582327.2594   20582325.2584
        56.0004         51.0004
  21139013.7004    7418213.47843   5778864.91942  21139015.0424   21139014.9014
        56.0004         49.0004
  23524797.7294   -1928385.36243  -1501055.16942  23524798.5594   23524798.1104
        49.0004         41.0004
  22858798.0134   -6124219.02643  -4758650.90042  22858798.5604   22858800.5954
        49.0004         43.0004
  23031110.9874    6255113.40443   4872213.10542  23031113.4054   23031113.4554
        50.0004         43.0004
  21871464.1154    -507236.80443   -391443.17142  21871466.0884   21871465.5894
        53.0004         46.0004
 04  6 21 15 55 40.0000000  0  8G22G21G18G 6G16G15G29G26
  22263066.4734   -7026639.39243  -5471174.60042  22263066.5904   22263065.4484
        53.0004         46.0004
  20645888.8474   -2608647.26644  -2028395.93842  20645890.2184   20645887.7594
        57.0004         50.0004
  20579054.2564     822084.45043    644607.99542  20579055.7284   20579053.8644
        56.0004         51.0004
  21147481.2124    7462711.13643   5813538.38442  21147482.8934   21147482.8554
        56.0004         49.0004
  23525333.2854   -1925569.51543  -1498861.04942  23525336.4624   23525335.0534
        48.0004         41.0004
  22849729.5734   -6171877.99243  -4795787.75242  22849730.5484   22849730.3214
        50.0004         43.0004
  23037828.4404    6290408.37843   4899715.63642  23037829.3134   23037830.3854
        50.0004         43.0004
  21875237.9834    -487404.22943   -375989.23142  21875239.5384   21875239.5324
        53.0004         46.0004
 04  6 21 15 56  0.0000000  0  8G22G21G18G 6G16G15G29G26
  22253694.7784   -7075887.02743  -5509549.36642  22253695.6804   22253693.2654
        53.0004         46.0004
  20643781.5934   -2619720.52844  -2037024.46842  20643783.3834   20643780.6874
        57.0004         50.0004
  20575819.0084     805082.95843    631360.05642  20575820.5804   20575818.4854
        56.0004         51.0004
  21155985.4794    7507401.07843   5848361.66642  21155987.2014   21155987.0614
        56.0004         49.0004
  23525913.0624   -1922522.63343  -1496486.89942  23525915.7844   23525914.8824
        48.0004         41.0004
  22840664.7994   -6219509.34943  -4832903.08342  22840667.0094   22840667.6434
        50.0004         43.0004
  23044585.5994    6325922.76943   4927389.14842  23044587.5814   23044588.9314
        49.0004         43.0004
  21879067.8884    -467277.97243   -360306.45542  21879070.7224   21879069.5224
        53.0004         46.0004
 04  6 21 15 56 20.0000000  0  8G22G21G18G 6G16G15G29G26
  22244349.7144   -7124996.74443  -5547816.65842  22244350.1704   22244348.2674
        54.0004         46.0004
  20641690.4464   -2630710.27044  -2045587.91642  20641692.0974   20641689.1864
        57.0004         50.0004
  20572618.3164     788265.07643    618255.19942  20572620.0154   20572618.1884
        56.0004         51.0004
  21164524.8564    7552275.30143   5883328.54642  21164526.6364   21164526.1674
        56.0004         49.0004
  23526535.9284   -1919252.55443  -1493938.82242  23526537.7674   23526535.7274
        48.0004         41.0004
  22831605.0274   -6267120.57643  -4870002.73642  22831606.1894   22831606.9224
        50.0004         43.0004
  23051383.5174    6361648.55943   4955227.39542  23051385.4004   23051386.9064
        49.0004         43.0004
  21882952.4444    -446865.67643   -344400.78642  21882954.0174   21882953.8744
        53.0004         46.0004
 04  6 21 15 56 40.0000000  0  8G22G21G18G 6G16G15G29G26
  22235032.1614   -7173959.77143  -5585969.65042  22235032.9044   22235030.5334
        54.0004         46.0004
  20639616.6394   -2641607.89544  -2054079.58242  20639618.3194   20639615.6124
        57.0004         50.0004
  20569454.6784     771638.90543    605299.73942  20569456.0174   20569454.4104
        56.0004         51.0004
  21173100.8684    7597342.01743   5918445.43342  21173102.6144   21173102.1804
        56.0004         49.0004
  23527201.2964   -1915751.09843  -1491210.45942  23527203.1974   23527203.7844
        47.0004         41.0004
  22822550.0164   -6314703.07043  -4907080.00142  22822552.0214   22822551.2044
        50.0004         43.0004
  23058225.0394    6397593.72943   4983236.56142  23058225.6434   23058227.1474
        50.0004         43.0004
  21886892.4944    -426159.34743   -328265.98642  21886895.0194   21886895.0204
        53.0004         46.0004
 04  6 21 15 57  0.0000000  0  8G22G21G18G 6G16G15G29G26
  22225741.7904   -7222782.87343  -5624013.60842  22225742.4644   22225739.3024
        54.0004         46.0004
  20637559.0404   -2652420.08844  -2062504.68442  20637560.3784   20637558.3654
        57.0004         50.0004
  20566325.9304     755197.59144    592488.33942  20566327.5194   20566325.7644
        57.0004         51.0004
  21181712.1394    7642593.85243   5953706.56942  21181713.8834   21181713.1984
        56.0004         49.0004
  23527911.2504   -1912025.39843  -1488307.34342  23527914.6714   23527911.8724
        48.0004         41.0004
  22813500.0894   -6362263.85843  -4944140.38942  22813501.5454   22813499.9984
        50.0004         43.0004
  23065104.6584    6433750.89243   5011410.94642  23065106.6154   23065106.3664
        49.0004         43.0004
  21890887.9794    -405166.17943   -311907.68342  21890889.3184   21890889.5604
        53.0004         46.0004
 04  6 21 15 57 20.0000000  0  8G22G21G18G 6G16G15G29G26
  22216478.9414   -7271458.46143  -5661942.61242  22216479.3434   22216476.7074
        54.0004         46.0004
  20635519.6964   -2663139.36844  -2070857.38742  20635520.8614   20635518.4914
        57.0004         50.0004
  20563233.9334     738948.12744    579826.43142  20563235.3794   20563233.4364
        57.0004         51.0004
  21190359.6644    7688037.55343   5989117.20542  21190361.5064   21190360.8654
        56.0004         49.0004
  23528663.4234   -1908068.41843  -1485224.03042  23528663.3424   23528665.6684
        47.0004         41.0004
  22804454.6244   -6409795.49443  -4981178.06442  22804456.4174   22804455.8774
        50.0004         43.0004
  23072027.8314    6470126.76143   5039755.76942  23072029.6044   23072027.6964
        50.0004         43.0004
  21894938.4044    -383879.05943   -295320.33842  21894940.4684   21894939.0064
        53.0004         46.0004
 04  6 21 15 57 40.0000000  0  8G22G21G18G 6G16G15G29G26
  22207243.7474   -7319990.39243  -5699759.68442  22207243.8564   22207241.7064
        54.0004         46.0004
  20633496.5404   -2673769.52944  -2079140.64342  20633498.4254   20633495.7774
        57.0004         50.0004
  20560177.5374     722886.48344    567310.87742  20560179.0484   20560176.9684
        57.0004         51.0004
  21199042.8724    7733668.89243   6024674.05542  21199044.8694   21199044.2914
        56.0004         49.0004
  23529459.3604   -1903884.51043  -1481963.88442  23529462.0134   23529461.4304
        47.0004         41.0004
  22795415.1944   -6457301.66843  -5018195.88742  22795415.2184   22795415.9694
        50.0004         43.0004
  23078990.6794    6506716.79543   5068267.45742  23078992.9354   23078992.5104
        50.0004         43.0004
  21899043.9824    -362302.27343   -278507.27242  21899045.8514   21899045.9994
        53.0004         46.0004
 04  6 21 15 58  0.0000000  0  8G22G21G18G 6G16G15G29G26
  22198034.1504   -7368383.77643  -5737468.78842  22198035.2254   22198031.8964
        54.0004         46.0004
  20631489.8594   -2684315.90444  -2087358.61042  20631491.1624   20631488.5324
        57.0004         50.0004
  20557155.2574     707007.13243    554937.38442  20557156.9234   20557155.1214
        56.0004         51.0004
  21207760.7904    7779481.89843   6060372.47042  21207762.7044   21207762.3284
        56.0004         49.0004
  23530299.0664   -1899479.41643  -1478531.37942  23530300.5374   23530300.1984
        48.0004         41.0004
  22786378.1764   -6504787.73943  -5055198.02642  22786379.1024   22786379.5844
        50.0004         43.0004
  23085992.4234    6543515.10843   5096941.44542  23085993.3944   23085993.7054
        50.0004         43.0004
  21903204.0324    -340441.74643   -261473.09842  21903205.4874   21903206.1484
        53.0004         46.0004
 04  6 21 15 58 20.0000000  0  8G22G21G18G 6G16G15G29G26
  22188853.4394   -7416631.62343  -5775064.48342  22188853.6014   22188851.7904
        54.0004         46.0004
  20629499.9804   -2694771.57844  -2095505.89642  20629501.6494   20629499.2514
        57.0004         50.0004
  20554169.8884     691316.64244    542711.04842  20554171.1774   20554169.5744
        57.0004         51.0004
  21216514.6924    7825483.03343   6096217.48042  21216516.4034   21216515.9924
        56.0004         49.0004
  23531179.9364   -1894846.55343  -1474921.39942  23531180.5914   23531180.7324
        47.0004         41.0004
  22777348.2434   -6552246.85343  -5092179.14742  22777349.3634   22777349.2134
        50.0004         43.0004
  23093036.7834    6580528.05243   5125782.69142  23093037.2804   23093036.7744
        50.0004         43.0004
  21907420.0734    -318290.71143   -244212.58142  21907421.2424   21907420.9654
        53.0004         46.0004
 04  6 21 15 58 40.0000000  0  8G22G21G18G 6G16G15G29G26
  22179700.5014   -7464730.73343  -5812544.28842  22179701.1444   22179698.5144
        54.0004         46.0004
  20627528.4164   -2705133.28144  -2103579.96442  20627529.9554   20627527.2694
        57.0004         50.0004
  20551220.5244     675817.90843    530634.12842  20551221.9174   20551219.8914
        56.0004         51.0004
  21225304.8834    7871674.72843   6132210.96942  21225306.6164   21225306.3844
        56.0004         48.0004
  23532104.8664   -1889983.43243  -1471132.00742  23532106.7854   23532107.0954
        47.0004         41.0004
  22768321.7554   -6599675.95043  -5129136.86942  22768324.3084   22768322.8694
        50.0004         43.0004
  23100120.4024    6617758.02143   5154793.01542  23100121.9504   23100121.9754
        49.0004         43.0004
  21911689.9664    -295846.89443   -226723.90442  21911692.6144   21911691.6524
        53.0004         46.0004
 04  6 21 15 59  0.0000000  0  8G22G21G18G 6G16G15G29G26
  22170574.2624   -7512687.81543  -5849913.40942  22170575.0934   22170573.1454
        54.0004         46.0004
  20625573.0314   -2715407.44944  -2111585.82142  20625574.9474   20625571.8884
        57.0004         50.0004
  20548306.2474     660503.92943    518701.17042  20548307.7504   20548306.0954
        56.0004         51.0004
  21234129.3794    7918049.82043   6168347.37142  21234131.0614   21234131.1234
        56.0004         48.0004
  23533073.7434   -1884896.98743  -1467168.58042  23533075.0154   23533074.2484
        47.0004         41.0004
  22759300.8304   -6647081.68743  -5166076.38842  22759301.1024   22759302.2044
        50.0004         43.0004
  23107246.0254    6655197.53143   5183966.62242  23107247.6734   23107246.2814
        50.0004         43.0004
  21916016.2634    -273117.15743   -209012.43642  21916018.2584   21916017.5284
        53.0004         46.0004
 04  6 21 15 59 20.0000000  0  8G22G21G18G 6G16G15G29G26
  22161475.6594   -7560499.80943  -5887169.48342  22161476.1584   22161474.5454
        54.0004         46.0004
  20623635.2414   -2725591.55544  -2119521.49342  20623636.5394   20623634.1764
        57.0004         50.0004
  20545427.8344     645377.37343    506914.25042  20545429.3934   20545427.3504
        56.0004         51.0004
  21242989.6654    7964610.50743   6204628.40242  21242991.6054   21242991.3774
        56.0004         48.0004
  23534084.8454   -1879584.94443  -1463029.37242  23534086.3744   23534085.7684
        48.0004         41.0004
  22750284.9594   -6694461.40943  -5202995.61242  22750285.7764   22750286.1044
        50.0004         43.0004
  23114409.8294    6692848.87843   5213305.31242  23114412.7894   23114411.8904
        50.0004         43.0004
  21920396.1464    -250099.15143   -191076.34842  21920397.6394   21920397.3964
        53.0004         46.0004
 04  6 21 15 59 40.0000000  0  8G22G21G18G 6G16G15G29G26
  22152405.2424   -7608166.73943  -5924312.51442  22152405.4674   22152403.6084
        54.0004         46.0004
  20621713.9884   -2735685.60644  -2127386.99042  20621715.8024   20621713.4754
        57.0004         50.0004
  20542585.0724     630437.74143    495272.98842  20542586.4594   20542584.4524
        56.0004         51.0004
  21251885.2584    8011356.10843   6241053.50942  21251887.2424   21251886.8754
        56.0004         48.0004
  23535137.5304   -1874047.73743  -1458714.71742  23535140.2794   23535137.6274
        48.0004         41.0004
  22741273.3404   -6741815.26143  -5239894.70242  22741273.2334   22741276.1914
        50.0004         43.0004
  23121614.3584    6730711.22043   5242808.39442  23121617.3504   23121616.4344
        49.0004         43.0004
  21924831.3104    -226793.66943   -172916.25042  21924832.6974   21924832.4234
        53.0004         46.0004
 04  6 21 16  0  0.0000000  0  8G22G21G18G 6G16G15G29G26
  22143361.7524   -7655688.69243  -5961342.58242  22143362.4564   22143360.1794
        54.0004         46.0004
  20619810.5164   -2745689.64844  -2135182.35842  20619811.9084   20619809.8144
        57.0004         50.0004
  20539777.6854     615684.44043    483776.91642  20539779.1134   20539777.1734
        56.0004         51.0004
  21260815.7724    8058285.87143   6277622.11642  21260817.4654   21260817.1154
        56.0004         48.0004
  23536234.6694   -1868286.09243  -1454225.16842  23536236.0464   23536236.0094
        48.0004         41.0004
  22732267.8404   -6789143.38143  -5276773.76342  22732271.0464   22732269.8384
        51.0004         43.0004
  23128861.0244    6768783.70643   5272475.24142  23128861.5184   23128861.0114
        50.0004         43.0004
  21929320.0234    -203201.23443   -154532.56342  21929322.3904   21929322.4584
        53.0004         46.0004
 04  6 21 16  0 20.0000000  0  8G22G21G18G 6G16G15G29G26
  22134346.6194   -7703065.01443  -5998259.17442  22134347.0364   22134345.5454
        54.0004         46.0004
  20617924.8464   -2755602.65744  -2142906.79742  20617925.8464   20617923.3474
        57.0004         50.0004
  20537005.8114     601118.33944    472426.71242  20537007.3604   20537005.4864
        57.0004         51.0004
  21269781.0364    8105400.11343   6314334.47142  21269782.7524   21269782.5774
        55.0004         48.0004
  23537374.7144   -1862299.60043  -1449560.41542  23537375.7744   23537374.7944
        48.0004         41.0004
  22723265.4194   -6836444.99743  -5313632.15642  22723267.3224   22723267.2734
        50.0004         43.0004
  23136145.1084    6807066.52143   5302305.94442  23136145.9004   23136147.7514
        50.0004         43.0004
  21933864.2754    -179321.53843   -135925.03642  21933866.5534   21933866.3964
        53.0004         46.0004
 04  6 21 16  0 40.0000000  0  8G22G21G18G 6G16G15G29G26
  22125359.0404   -7750296.06043  -6035062.57142  22125359.5014   22125357.2974
        54.0004         46.0004
  20616055.3954   -2765425.11644  -2150560.66742  20616056.8614   20616054.0224
        57.0004         50.0004
  20534269.2304     586738.41043    461221.57842  20534270.7124   20534268.9584
        56.0004         51.0004
  21278782.1354    8152697.53943   6351189.56842  21278782.9694   21278783.5084
        56.0004         48.0004
  23538554.8594   -1856089.41243  -1444721.34942  23538556.6024   23538557.0554
        47.0004         41.0004
  22714269.3954   -6883720.82943  -5350470.45042  22714271.2904   22714272.0414
        50.0004         43.0004
  23143469.1694    6845558.37243   5332299.59142  23143471.1384   23143470.5214
        49.0004         42.0004
  21938463.4614    -155155.69843   -117094.51342  21938465.8264   21938464.8784
        53.0004         46.0004
 04  6 21 16  1  0.0000000  0  8G22G21G18G 6G16G15G29G26
  22116399.2864   -7797378.99243  -6071750.54742  22116399.2084   22116397.4434
        54.0004         46.0004
  20614203.8054   -2775154.45544  -2158141.97942  20614205.5484   20614202.6814
        57.0004         50.0004
  20531568.5294     572547.05843    450163.39042  20531570.0244   20531568.5194
        56.0004         51.0004
  21287817.3764    8200180.41143   6388189.16842  21287818.9784   21287819.2084
        55.0004         48.0004
  23539780.3364   -1849653.11243  -1439706.09642  23539781.6804   23539780.1634
        48.0004         41.0004
  22705279.2684   -6930967.94343  -5387286.37442  22705280.4384   22705281.3394
        50.0004         43.0004
  23150835.1754    6884261.20243   5362457.61242  23150835.8524   23150835.4934
        49.0004         42.0004
  21943116.5894    -130701.38343    -98039.22442  21943118.9044   21943118.5364
        53.0004         46.0004
 04  6 21 16  1 20.0000000  0  8G22G21G18G 6G16G15G29G26
  22107467.5544   -7844316.66243  -6108325.33442  22107468.1684   22107465.6104
        54.0004         47.0004
  20612369.3994   -2784793.57844  -2165652.99242  20612371.0204   20612368.4504
        57.0004         50.0004
  20528903.6964     558540.96744    439249.55442  20528905.1384   20528902.8084
        57.0004         51.0004
  21296887.9774    8247845.14943   6425330.47642  21296889.7724   21296889.2794
        56.0004         48.0004
  23541047.9124   -1842994.14543  -1434517.33842  23541049.3094   23541049.7994
        48.0004         41.0004
  22696293.2744   -6978189.24243  -5424082.18742  22696293.9634   22696295.2514
        50.0004         43.0004
  23158238.6644    6923171.63743   5392777.37742  23158242.1784   23158242.5474
        49.0004         43.0004
  21947824.3794    -105962.04443    -78761.84242  21947826.3184   21947825.2474
        53.0004         46.0004
 04  6 21 16  1 40.0000000  0  8G22G21G18G 6G16G15G29G26
  22098562.9724   -7891109.43043  -6144787.21042  22098563.3754   22098561.3604
        54.0004         47.0004
  20610552.0394   -2794342.74444  -2173093.91642  20610553.8674   20610551.3054
        57.0004         50.0004
  20526273.0714     544719.53343    428479.60242  20526274.6914   20526272.7834
        56.0004         51.0004
  21305992.4674    8295690.76243   6462612.73042  21305994.4384   21305994.1264
        56.0004         48.0004
  23542357.3974   -1836113.35143  -1429155.74542  23542358.2644   23542357.9644
        48.0004         41.0004
  22687312.5524   -7025385.25743  -5460858.29342  22687312.2884   22687312.5944
        50.0004         43.0004
  23165682.2914    6962288.47643   5423258.02042  23165683.9344   23165684.5204
        49.0004         42.0004
  21952586.0394     -80938.58043    -59263.04942  21952588.1064   21952587.8114
        53.0004         46.0004
 04  6 21 16  2  0.0000000  0  8G22G21G18G 6G16G15G29G26
  22089686.0704   -7937755.51043  -6181134.78142  22089687.1524   22089684.3374
        54.0004         46.0004
  20608753.3594   -2803800.11744  -2180463.30942  20608754.2084   20608751.6814
        57.0004         50.0004
  20523678.8064     531084.18243    417854.65842  20523680.0504   20523678.1444
        56.0004         51.0004
  21315132.0934    8343718.55043   6500036.93442  21315133.5404   21315133.2504
        56.0004         48.0004
  23543709.7124   -1829009.63043  -1423620.42142  23543710.7754   23543708.7234
        48.0004         41.0004
  22678335.4024   -7072554.23743  -5497613.36642  22678337.2094   22678337.7314
        50.0004         43.0004
  23173167.0514    7001612.78343   5453900.27342  23173167.4404   23173168.1084
        49.0004         43.0004
  21957402.0834     -55629.76843    -39541.92042  21957404.2114   21957404.1944
        53.0004         46.0004
 04  6 21 16  2 20.0000000  0  8G22G21G18G 6G16G15G29G26
  22080838.3364   -7984252.89343  -6217366.48142  22080839.2754   22080836.5434
        54.0004         46.0004
  20606971.0914   -2813163.89844  -2187759.77342  20606972.7094   20606970.2314
        57.0004         50.0004
  20521119.5294     517636.57844    407376.01342  20521121.4484   20521118.9554
        57.0004         51.0004
  21324306.4254    8391929.46943   6537603.83842  21324308.4094   21324307.7884
        55.0004         48.0004
  23545103.1404   -1821681.41943  -1417910.17942  23545104.8514   23545103.9304
        47.0004         41.0004
  22669365.7534   -7119694.37043  -5534345.94142  22669367.2204   22669367.2204
        51.0004         43.0004
  23180688.9114    7041145.63543   5484705.05542  23180689.9554   23180692.9194
        49.0004         43.0004
  21962272.7664     -30034.39543    -19597.50442  21962275.2494   21962274.1474
        53.0004         46.0004
 04  6 21 16  2 40.0000000  0  8G22G21G18G 6G16G15G29G26
  22072017.7594   -8030605.76043  -6253485.57542  22072017.7134   22072015.4194
        54.0004         47.0004
  20605206.3184   -2822437.99744  -2194986.34642  20605207.5444   20605204.8634
        57.0004         50.0004
  20518595.6484     504372.34444    397040.24942  20518597.2224   20518594.9354
        57.0004         51.0004
  21333514.5764    8440319.07343   6575309.98442  21333516.2464   21333516.4424
        55.0004         48.0004
  23546539.5454   -1814133.33443  -1412028.60742  23546541.1184   23546541.7974
        48.0004         41.0004
  22660399.4824   -7166809.72243  -5571059.18642  22660400.6404   22660401.4774
        50.0004         43.0004
  23188251.5114    7080882.31343   5515668.64542  23188252.9964   23188252.9424
        49.0004         43.0004
  21967196.7894      -4156.98743       566.70042  21967199.4324   21967198.0504
        52.0004         45.0004
 04  6 21 16  3  0.0000000  0  8G22G21G18G 6G16G15G29G26
  22063224.8624   -8076811.38643  -6289489.92942  22063224.8624   22063223.2244
        54.0004         47.0004
  20603458.8414   -2831619.70544  -2202140.93642  20603459.9914   20603457.8634
        57.0004         50.0004
  20516106.5344     491293.70744    386849.10542  20516108.3234   20516106.1344
        57.0004         51.0004
  21342756.9864    8488889.23543   6613156.82142  21342758.7664   21342758.7944
        55.0004         48.0004
  23548018.2014   -1806363.37143  -1405974.13342  23548019.3244   23548019.7574
        48.0004         41.0004
  22651439.1304   -7213897.69643  -5607751.10042  22651441.1634   22651440.5874
        50.0004         43.0004
  23195851.0724    7120824.67443   5546792.52342  23195852.6534   23195853.2674
        49.0004         43.0004
  21972175.7504      22004.57943     20952.31642  21972177.8494   21972177.1884
        53.0004         45.0004
 04  6 21 16  3 20.0000000  0  8G22G21G18G 6G16G15G29G26
  22054460.6414   -8122869.30943  -6325379.20742  22054460.9804   22054458.0904
        54.0004         47.0004
  20601729.5244   -2840708.58244  -2209223.18642  20601730.7364   20601728.4124
        57.0004         50.0004
  20513653.4064     478400.86643    376802.73542  20513654.6684   20513652.6524
        56.0004         51.0004
  21352034.3484    8537639.85143   6651144.26742  21352035.7244   21352035.8834
        55.0004         48.0004
  23549539.9124   -1798371.52643  -1399746.77242  23549541.2654   23549540.6344
        48.0004         41.0004
  22642483.5104   -7260957.83943  -5644421.31742  22642484.9624   22642485.7574
        50.0004         43.0004
  23203491.3424    7160972.54643   5578076.53742  23203494.9234   23203494.2644
        49.0004         43.0004
  21977208.1244      48450.05943     41559.15742  21977210.7924   21977209.9644
        53.0004         46.0004
 04  6 21 16  3 40.0000000  0  8G22G21G18G 6G16G15G29G26
  22045724.2304   -8168778.95543  -6361152.93042  22045724.5064   22045722.3444
        54.0004         47.0004
  20600017.6214   -2849703.99844  -2216232.61042  20600019.0194   20600016.5784
        57.0004         50.0004
  20511235.4034     465694.20844    366901.44242  20511236.9074   20511235.0204
        57.0004         51.0004
  21361345.2954    8586570.94043   6689272.36542  21361347.3004   21361346.9154
        55.0004         48.0004
  23551101.8214   -1790157.58743  -1393346.35742  23551104.8004   23551103.6334
        48.0004         41.0004
  22633534.2014   -7307989.51843  -5681069.35642  22633535.1904   22633536.6524
        50.0004         43.0004
  23211169.8134    7201325.67643   5609520.48642  23211172.2174   23211172.0174
        48.0004         42.0004
  21982294.7154      75179.55143     62387.31242  21982296.3964   21982296.0264
        53.0004         45.0004
 04  6 21 16  4  0.0000000  0  8G22G21G18G 6G16G15G29G26
  22037016.0194   -8214539.53043  -6396810.49742  22037016.6824   22037013.9664
        55.0004         47.0004
  20598324.2014   -2858605.03144  -2223168.48242  20598325.1694   20598322.6034
        57.0004         50.0004
  20508852.6204     453173.86243    357145.32642  20508854.3404   20508852.2174
        56.0004         51.0004
  21370690.9974    8635682.48043   6727541.07742  21370692.3294   21370692.7244
        55.0004         48.0004
  23552707.0694   -1781721.63143  -1386772.92142  23552708.9244   23552709.0404
        48.0004         41.0004
  22624590.1024   -7354992.29643  -5717694.88342  22624590.9344   22624591.8864
        51.0004         43.0004
  23218887.2524    7241884.10843   5641124.40142  23218887.7994   23218892.3194
        48.0004         42.0004
  21987435.2064     102193.19543     83436.87942  21987437.1334   21987437.8364
        53.0004         46.0004
 04  6 21 16  4 20.0000000  0  8G22G21G18G 6G16G15G29G26
  22028336.3734   -8260152.60543  -6432353.12742  22028337.0174   22028334.4324
        54.0004         47.0004
  20596647.2624   -2867413.57544  -2230032.29242  20596648.8934   20596646.5274
        57.0004         50.0004
  20506505.4294     440837.96843    347532.94242  20506506.7104   20506504.7314
        56.0004         51.0004
  21380070.5164    8684972.05743   6765948.50642  21380072.2794   21380071.7954
        56.0004         48.0004
  23554355.0234   -1773065.89743  -1380028.24942  23554357.8564   23554356.4584
        47.0004         41.0004
  22615650.2224   -7401967.97543  -5754299.28742  22615650.8964   22615652.0844
        50.0004         43.0004
  23226644.4364    7282645.35843   5672886.36642  23226647.6414   23226645.4654
        48.0004         42.0004
  21992628.9604     129488.66543    104706.06342  21992631.0784   21992631.3254
        53.0004         45.0004
 04  6 21 16  4 40.0000000  0  8G22G21G18G 6G16G15G29G26
  22019683.6104   -8305620.91143  -6467782.94142  22019684.5754   22019682.6254
        54.0004         47.0004
  20594988.1914   -2876132.12444  -2236825.97642  20594989.5804   20594987.3354
        57.0004         50.0004
  20504192.2204     428683.54843    338061.97242  20504193.9704   20504191.9154
        56.0004         51.0004
  21389483.2874    8734436.64243   6804492.30742  21389484.8324   21389484.8184
        56.0004         48.0004
  23556043.5414   -1764193.28043  -1373114.57142  23556045.4764   23556044.9524
        48.0004         41.0004
  22606715.8424   -7448919.12443  -5790884.57642  22606716.6214   22606719.4884
        50.0004         43.0004
  23234439.7904    7323606.14743   5704803.82042  23234440.8114   23234441.4514
        49.0004         42.0004
  21997876.5074     157062.95243    126192.49342  21997878.3754   21997877.8694
        53.0004         45.0004
 04  6 21 16  5  0.0000000  0  8G22G21G18G 6G16G15G29G26
  22011059.9904   -8350939.56643  -6503096.15042  22011059.9554   22011058.2654
        54.0004         47.0004
  20593347.4374   -2884755.78744  -2243545.72242  20593348.7524   20593346.3914
        57.0004         50.0004
  20501914.7734     416714.89543    328735.74742  20501916.4344   20501914.3664
        56.0004         51.0004
  21398930.0894    8784080.20943   6843175.56142  21398931.7394   21398931.8974
        55.0004         48.0004
  23557773.2994   -1755099.62043  -1366028.63642  23557775.1424   23557775.3014
        48.0004         41.0004
  22597787.2784   -7495840.80343  -5827446.91542  22597788.7874   22597789.5294
        51.0004         43.0004
  23242273.3204    7364770.56943   5736879.94342  23242273.2394   23242274.4544
        49.0004         42.0004
  22003177.4154     184920.09643    147899.33442  22003179.2064   22003179.1224
        53.0004         46.0004
 04  6 21 16  5 20.0000000  0  8G22G21G18G 6G16G15G29G26
  22002464.7754   -8396109.15743  -6538293.20342  22002465.1034   22002463.0264
        55.0004         47.0004
  20591724.2994   -2893285.17444  -2250192.00742  20591725.3364   20591723.2864
        57.0004         50.0004
  20499672.5534     404931.07143    319553.54842  20499674.0514   20499672.0184
        56.0004         51.0004
  21408411.2294    8833901.51443   6881997.33242  21408412.6474   21408412.5854
        56.0004         48.0004
  23559545.6264   -1745786.23043  -1358771.50242  23559548.2754   23559549.0284
        48.0004         41.0004
  22588863.9424   -7542733.79643  -5863986.89342  22588864.7584   22588866.1514
        51.0004         43.0004
  23250144.7654    7406137.18243   5769113.61342  23250146.1264   23250145.3644
        48.0004         42.0004
  22008532.5684     213058.86143    169825.62442  22008534.7004   22008533.5574
        52.0004         45.0004
 04  6 21 16  5 40.0000000  0  8G22G21G18G 6G16G15G29G26
  21993897.3454   -8441129.06943  -6573373.62142  21993897.3694   21993895.0754
        55.0004         47.0004
  20590119.6314   -2901719.60444  -2256764.29542  20590120.9914   20590118.2734
        57.0004         50.0004
  20497465.4834     393332.50943    310515.70642  20497467.1554   20497464.7264
        56.0004         51.0004
  21417925.4654    8883900.81843   6920957.81142  21417926.7654   21417927.3484
        55.0004         48.0004
  23561360.5704   -1736252.77043  -1351342.89242  23561363.3954   23561362.7594
        48.0004         41.0004
  22579945.9574   -7589597.31643  -5900503.90542  22579947.7544   22579948.0914
        50.0004         43.0004
  23258054.9064    7447705.87643   5801504.74642  23258056.7064   23258056.1114
        49.0004         42.0004
  22013940.9604     241479.45643    191971.50642  22013942.2524   22013942.0044
        53.0004         45.0004
 04  6 21 16  6  0.0000000  0  8G22G21G18G 6G16G15G29G26
  21985358.6334   -8486002.09043  -6608339.57642  21985358.5444   21985356.0634
        55.0004         47.0004
  20588531.9624   -2910061.56644  -2263264.52942  20588533.5464   20588531.0904
        57.0004         50.0004
  20495293.0294     381916.17344    301619.85842  20495294.5674   20495292.2934
        57.0004         51.0004
  21427473.5214    8934074.40643   6960054.08842  21427475.3324   21427474.7454
        55.0004         48.0004
  23563216.1774   -1726502.50143  -1343745.33342  23563217.0754   23563216.3774
        48.0004         41.0004
  22571033.6544   -7636434.21043  -5937000.17642  22571033.4994   22571034.6164
        51.0004         44.0004
  23266003.3694    7489473.25743   5834050.70442  23266005.6664   23266003.3964
        50.0004         42.0004
  22019401.5744     270178.42243    214334.30342  22019403.7374   22019402.9874
        53.0004         46.0004
 04  6 21 16  6 20.0000000  0  8G22G21G18G 6G16G15G29G26
  21976847.6984   -8530726.07243  -6643189.40242  21976848.1194   21976845.6934
        55.0004         47.0004
  20586962.3054   -2918309.15744  -2269691.23442  20586963.7874   20586961.9284
        57.0004         50.0004
  20493155.3954     370683.46643    292867.09742  20493156.9714   20493154.9124
        56.0004         51.0004
  21437054.3794    8984423.87743   6999287.41542  21437056.3934   21437056.5224
        55.0004         48.0004
  23565112.9984   -1716534.02343  -1335977.74942  23565114.2704   23565114.7284
        47.0004         41.0004
  22562125.5734   -7683242.45543  -5973474.12242  22562126.7354   22562128.0384
        51.0004         44.0004
  23273989.5504    7531440.47843   5866752.41342  23273989.5624   23273992.5894
        49.0004         42.0004
  22024916.7814     299157.16443    236915.11142  22024918.9974   22024918.4414
        53.0004         46.0004
 04  6 21 16  6 40.0000000  0  8G22G21G18G 6G16G15G29G26
  21968365.4884   -8575299.17343  -6677921.66142  21968366.1704   21968364.4004
        55.0004         47.0004
  20585411.5504   -2926460.57544  -2276042.99642  20585412.8174   20585410.0204
        57.0004         50.0004
  20491053.0404     359635.94544    284258.63842  20491054.6084   20491052.8484
        57.0004         51.0004
  21446669.3304    9034950.04543   7038658.44042  21446670.9934   21446670.9204
        55.0004         48.0004
  23567051.5834   -1706346.41443  -1328039.42142  23567052.9844   23567052.4014
        48.0004         41.0004
  22553224.1474   -7730020.39443  -6009924.44942  22553225.8204   22553225.9654
        50.0004         43.0004
  23282013.0894    7573608.61043   5899610.63842  23282015.6814   23282014.3284
        48.0004         42.0004
  22030483.7794     328416.80443    259714.78242  22030485.2784   22030486.6684
        53.0004         45.0004
 04  6 21 16  7  0.0000000  0  8G22G21G18G 6G16G15G29G26
  21959911.8444   -8619724.62343  -6712538.86542  21959912.6564   21959910.2844
        55.0004         47.0004
  20583877.8724   -2934518.94044  -2282322.24742  20583879.3064   20583877.0854
        57.0004         50.0004
  20488985.3364     348770.13343    275791.76742  20488986.9024   20488984.8844
        56.0004         51.0004
  21456317.0744    9085649.37243   7078164.37942  21456318.7824   21456318.2684
        55.0004         48.0004
  23569031.1614   -1695943.14043  -1319933.04042  23569032.7604   23569031.6304
        48.0004         41.0004
  22544328.3494   -7776771.12943  -6046353.58742  22544328.3774   22544328.0844
        51.0004         44.0004
  23290075.8984    7615973.70443   5932622.34442  23290076.8574   23290079.9544
        48.0004         42.0004
  22036104.8684     357953.71243    282730.55142  22036107.3074   22036106.0754
        53.0004         45.0004
 04  6 21 16  7 20.0000000  0  8G22G21G18G 6G16G15G29G26
  21951486.0504   -8664000.48743  -6747039.51042  21951486.4004   21951484.5904
        54.0004         47.0004
  20582362.5804   -2942482.28744  -2288527.46042  20582363.9124   20582361.5464
        57.0004         50.0004
  20486952.5474     338087.47443    267467.61442  20486953.9544   20486952.0974
        56.0004         51.0004
  21465997.8914    9136523.03143   7117806.15642  21466000.1584   21465999.7664
        55.0004         48.0004
  23571052.0524   -1685322.86543  -1311657.56242  23571052.3984   23571054.4174
        48.0004         41.0004
  22535437.2634   -7823492.85743  -6082760.11442  22535437.6134   22535439.4454
        51.0004         44.0004
  23298175.0714    7658536.84943   5965788.36642  23298175.0824   23298176.9034
        49.0004         42.0004
  22041777.8564     387769.06943    305963.29142  22041779.7834   22041780.8674
        52.0004         45.0004
 04  6 21 16  7 40.0000000  0  9G22G21G18G 3G 6G16G15G29G26
  21943089.0734   -8708130.02043  -6781426.13442  21943089.2754   21943087.1214
        55.0004         47.0004
  20580864.3744   -2950353.71744  -2294661.05242  20580866.1104   20580863.5734
        57.0004         50.0004
  20484953.9844     327584.64843    259283.59642  20484955.5484   20484953.7814
        56.0004         51.0004
  24592473.8774   -2237660.43953  -1692323.50752  24592476.3134   24592474.4344
        43.0004         37.0004
  21475711.4814    9187567.14943   7157580.75042  21475712.9194   21475713.1064
        55.0004         48.0004
  23573114.8154   -1674489.54943  -1303216.09042  23573115.9924   23573114.0474
        48.0004         41.0004
  22526550.8074   -7870188.75343  -6119146.52142  22526552.1614   22526552.3294
        51.0004         44.0004
  23306311.6804    7701294.36543   5999105.87842  23306312.7384   23306313.9734
        48.0004         41.0004
  22047504.5244     417859.03143    329409.99642  22047507.0834   22047506.3234
        53.0004         45.0004
 04  6 21 16  8  0.0000000  0  9G22G21G18G 3G 6G16G15G29G26
  21934720.3444   -8752105.53943  -6815692.74842  21934720.5844   21934718.8934
        55.0004         47.0004
  20579385.5654   -2958125.50344  -2300716.99342  20579387.0804   20579385.0014
        57.0004         50.0004
  20482990.5644     317268.98943    251245.41942  20482992.1084   20482990.5004
        56.0004         51.0004
  24579875.6844   -2303859.61043  -1743907.26842  24579877.5394   24579878.5554
        42.0004         37.0004
  21485458.6844    9238788.77343   7197493.67242  21485460.3444   21485460.1574
        55.0004         48.0004
  23575217.1014   -1663435.86243  -1294602.87842  23575217.7934   23575219.8904
        48.0004         41.0004
  22517671.5764   -7916850.97043  -6155506.66942  22517671.5424   22517673.8914
        51.0004         44.0004
  23314487.0654    7744252.89343   6032580.00842  23314488.5314   23314488.9184
        48.0004         42.0004
  22053284.0594     448230.67643    353076.20442  22053285.8424   22053285.7174
        52.0004         45.0004
 04  6 21 16  8 20.0000000  0  9G22G21G18G 3G 6G16G15G29G26
  21926380.1524   -8795932.99443  -6849843.97842  21926381.1284   21926378.5804
        54.0004         47.0004
  20577924.8764   -2965803.55844  -2306699.90042  20577925.9354   20577923.9394
        57.0004         50.0004
  20481062.6584     307133.96843    243348.00242  20481064.0674   20481061.8784
        56.0004         51.0004
  24567292.4164   -2369992.55743  -1795439.42042  24567294.0634   24567292.8844
        43.0004         37.0004
  21495238.3704    9290181.23843   7237539.71342  21495240.1614   21495239.9314
        55.0004         48.0004
  23577361.2984   -1652168.33843  -1285823.05042  23577362.5234   23577363.3364
        48.0004         41.0004
  22508797.2364   -7963485.68843  -6191845.37342  22508798.7274   22508798.8164
        51.0004         44.0004
  23322697.5944    7787405.76243   6066205.54842  23322699.6134   23322699.7054
        48.0004         42.0004
  22059114.8664     478877.38743    376956.74242  22059117.2234   22059117.9934
        52.0004         45.0004
 04  6 21 16  8 40.0000000  0  9G22G21G18G 3G 6G16G15G29G26
  21918069.0584   -8839608.04543  -6883876.45742  21918069.3374   21918067.1104
        54.0004         47.0004
  20576482.3604   -2973383.53044  -2312606.38342  20576483.6254   20576481.3514
        57.0004         50.0004
  20479168.8974     297183.51744    235594.40342  20479170.5024   20479168.4624
        57.0004         51.0004
  24554720.2004   -2436054.36043  -1846916.14042  24554722.7554   24554723.9264
        44.0004         38.0004
  21505051.5864    9341748.12443   7277721.66042  21505053.1914   21505052.9754
        55.0004         48.0004
  23579547.0144   -1640683.31043  -1276873.73942  23579549.6264   23579548.8854
        47.0004         41.0004
  22499928.7054   -8010088.73043  -6228159.41242  22499930.2514   22499930.5634
        50.0004         44.0004
  23330948.0914    7830756.47943   6099985.28342  23330949.9474   23330949.7544
        50.0004         42.0004
  22065001.1474     509802.77743    401054.44242  22065003.2234   22065003.1594
        53.0004         46.0004
 04  6 21 16  9  0.0000000  0  9G22G21G18G 3G 6G16G15G29G26
  21909786.3564   -8883136.35243  -6917794.57942  21909786.7574   21909784.2834
        55.0004         47.0004
  20575057.1084   -2980871.47944  -2318441.15442  20575058.6394   20575056.0474
        57.0004         50.0004
  20477309.3844     287411.63543    227979.94942  20477310.9784   20477308.8584
        56.0004         51.0004
  24542162.0964   -2502050.14943  -1898341.43542  24542164.3524   24542165.3704
        44.0004         38.0004
  21514895.8664    9393483.22943   7318034.69642  21514897.6134   21514897.4684
        55.0004         48.0004
  23581772.7384   -1628987.01443  -1267759.80242  23581774.7094   23581773.4544
        48.0004         41.0004
  22491065.8174   -8056665.50743  -6264453.00042  22491066.4134   22491067.1164
        51.0004         44.0004
  23339233.4704    7874298.67143   6133914.24342  23339236.0554   23339236.3684
        49.0004         42.0004
  22070937.3294     541000.73443    425364.52042  22070939.2104   22070939.8284
        52.0004         45.0004
 04  6 21 16  9 20.0000000  0  9G22G21G18G 3G 6G16G15G29G26
  21901531.9244   -8926509.82143  -6951592.06442  21901532.5914   21901530.6304
        55.0004         47.0004
  20573651.6584   -2988258.43944  -2324197.23042  20573653.1004   20573650.6974
        57.0004         50.0004
  20475485.0654     277826.19343    220510.78042  20475486.8174   20475484.9364
        56.0004         51.0004
  24529618.6934   -2567971.30043  -1949708.54642  24529618.3634   24529621.4874
        44.0004         38.0004
  21524774.3544    9445393.91543   7358484.54942  21524775.8434   21524776.0254
        55.0004         48.0004
  23584040.4344   -1617072.02343  -1258475.46042  23584042.4084   23584041.7204
        49.0004         41.0004
  22482208.4084   -8103207.97643  -6300719.83942  22482209.0564   22482210.1074
        50.0004         44.0004
  23347557.6834    7918039.80043   6167998.18542  23347559.3234   23347558.4984
        49.0004         42.0004
  22076928.1434     572478.58843    449892.70842  22076930.0564   22076928.9304
        53.0004         45.0004
 04  6 21 16  9 40.0000000  0  9G22G21G18G 3G 6G16G15G29G26
  21893306.8954   -8969736.72943  -6985275.34842  21893307.0344   21893304.5854
        55.0004         47.0004
  20572263.5594   -2995552.58644  -2329880.99242  20572265.1564   20572262.4644
        57.0004         50.0004
  20473695.1664     268418.78743    213180.33342  20473696.7464   20473694.6504
        56.0004         51.0004
  24517086.8584   -2633825.33243  -2001023.36842  24517087.4014   24517088.8594
        45.0004         38.0004
  21534684.6624    9497471.47743   7399064.43442  21534686.6074   21534686.2704
        55.0004         47.0004
  23586347.4724   -1604946.89543  -1249027.36442  23586349.8564   23586346.8064
        47.0004         41.0004
  22473357.1974   -8149724.19143  -6336966.21842  22473358.1964   22473359.1464
        51.0004         44.0004
  23355915.9384    7961970.87143   6202230.14642  23355918.7844   23355919.4864
        48.0004         42.0004
  22082969.8534     604227.50143    474632.08542  22082972.3334   22082971.6354
        53.0004         45.0004
 04  6 21 16 10  0.0000000  0  9G22G21G18G 3G 6G16G15G29G26
  21885108.9614   -9012812.58443  -7018840.91842  21885110.0134   21885107.8944
        55.0004         47.0004
  20570894.3064   -3002749.72244  -2335489.15742  20570895.4654   20570893.2604
        57.0004         50.0004
  20471939.4174     259193.24043    205991.59642  20471941.2344   20471939.0584
        56.0004         51.0004
  24504568.5384   -2699607.27543  -2052282.02142  24504570.3254   24504569.5074
        45.0004         38.0004
  21544626.7454    9549719.57543   7439777.20742  21544628.9284   21544628.5674
        55.0004         47.0004
  23588695.1004   -1592607.85743  -1239412.58042  23588696.9564   23588698.1954
        49.0004         41.0004
  22464510.9104   -8196209.89043  -6373188.84242  22464512.3374   22464513.4504
        51.0004         44.0004
  23364313.2864    8006095.53843   6236612.96842  23364314.2714   23364317.3184
        48.0004         42.0004
  22089063.4904     636251.33743    499585.72542  22089064.9564   22089065.5474
        52.0004         45.0004
 04  6 21 16 10 20.0000000  0  9G22G21G18G 3G 6G16G15G29G26
  21876941.5714   -9055736.53443  -7052288.11942  21876941.7474   21876938.9714
        55.0004         47.0004
  20569543.2444   -3009848.76644  -2341020.88542  20569544.4294   20569542.3374
        57.0004         50.0004
  20470218.6684     250150.16143    198945.04342  20470220.2294   20470218.0574
        56.0004         51.0004
  24492063.7574   -2765315.71043  -2103483.40142  24492066.0634   24492066.6694
        45.0004         39.0004
  21554602.1794    9602138.41643   7480623.02242  21554603.3404   21554604.1454
        55.0004         47.0004
  23591084.5794   -1580054.76743  -1229631.00542  23591086.7154   23591086.4964
        49.0004         41.0004
  22455672.1374   -8242664.19043  -6409386.98342  22455672.5424   22455672.7814
        52.0004         44.0004
  23372746.9064    8050413.80843   6271146.62242  23372749.0744   23372748.3234
        49.0004         42.0004
  22095209.0994     668550.19243    524753.63942  22095211.4814   22095211.9234
        52.0004         45.0004
 04  6 21 16 10 40.0000000  0  9G22G21G18G 3G 6G16G15G29G26
  21868801.5344   -9098509.12043  -7085617.37742  21868802.0974   21868799.8364
        55.0004         47.0004
  20568210.8494   -3016850.17544  -2346476.52742  20568212.6924   20568210.1534
        57.0004         50.0004
  20468532.3694     241288.53143    192039.88342  20468533.8764   20468531.7994
        56.0004         51.0004
  24479573.6844   -2830950.66943  -2154627.49442  24479576.7014   24479576.2704
        45.0004         38.0004
  21564609.2984    9654726.74243   7521600.90942  21564610.5764   21564610.6674
        54.0004         47.0004
  23593513.4904   -1567288.68343  -1219683.45742  23593515.1884   23593516.5244
        48.0004         41.0004
  22446836.9254   -8289087.61843  -6445561.07342  22446838.1144   22446839.8494
        51.0004         44.0004
  23381217.2664    8094924.47743   6305830.21842  23381220.4554   23381217.8974
        49.0004         42.0004
  22101407.5494     701122.95043    550134.98142  22101410.2684   22101408.8884
        52.0004         45.0004
 04  6 21 16 11  0.0000000  0  9G22G21G18G 3G 6G16G15G29G26
  21860690.7454   -9141133.61043  -7118831.24042  21860690.6224   21860688.7724
        55.0004         47.0004
  20566896.1184   -3023757.47744  -2351858.84742  20566897.7074   20566895.6034
        57.0004         50.0004
  20466879.9044     232604.71643    185273.26942  20466881.4674   20466879.2484
        56.0004         51.0004
  24467099.5504   -2896514.78543  -2205716.43942  24467100.3754   24467101.3284
        46.0004         38.0004
  21574647.8534    9707480.54043   7562707.72642  21574649.4594   21574649.1644
        54.0004         47.0004
  23595982.5824   -1554313.50443  -1209572.98742  23595983.0454   23595985.1674
        48.0004         41.0004
  22438009.0604   -8335483.48243  -6481713.68542  22438008.9614   22438010.6054
        51.0004         44.0004
  23389722.9244    8139623.32143   6340660.45742  23389724.6014   23389724.7584
        49.0004         42.0004
  22107657.3954     733965.55943    575726.61742  22107658.7904   22107659.6504
        52.0004         45.0004
 04  6 21 16 11 20.0000000  0  9G22G21G18G 3G 6G16G15G29G26
  21852609.2094   -9183601.50843  -7151923.07842  21852609.6184   21852607.7234
        55.0004         47.0004
  20565601.7474   -3030561.80544  -2357160.92642  20565602.9864   20565600.5504
        57.0004         50.0004
  20465262.5574     224106.88243    178651.58342  20465264.3224   20465262.5974
        56.0004         51.0004
  24454635.9864   -2961998.94243  -2256743.03842  24454639.2284   24454639.8904
        45.0004         38.0004
  21584719.6664    9760407.79743   7603949.70242  21584721.3434   21584721.6994
        54.0004         47.0004
  23598493.3034   -1541121.33443  -1199293.43242  23598495.4194   23598495.5054
        48.0004         41.0004
  22429186.1624   -8381843.11643  -6517838.06742  22429188.2714   22429189.2264
        52.0004         44.0004
  23398267.0464    8184518.31043   6375643.52342  23398269.6834   23398268.3334
        49.0004         42.0004
  22113959.3314     767085.93843    601534.67342  22113961.4284   22113963.3284
        52.0004         45.0004
 04  6 21 16 11 40.0000000  0  9G22G21G18G 3G 6G16G15G29G26
  21844556.1394   -9225923.00443  -7184900.84642  21844556.3254   21844553.3924
        55.0004         47.0004
  20564324.6794   -3037273.14744  -2362390.54242  20564326.0564   20564323.4624
        58.0004         50.0004
  20463679.2694     215784.32643    172166.47542  20463680.8804   20463678.6324
        56.0004         51.0004
  24442190.1634   -3027412.91543  -2307714.93542  24442190.9374   24442190.9034
        45.0004         39.0004
  21594822.6934    9813497.51443   7645318.27442  21594824.0544   21594824.0144
        55.0004         47.0004
  23601043.5084   -1527722.93843  -1188853.15742  23601044.4364   23601046.3614
        48.0004         41.0004
  22420369.5694   -8428176.85643  -6553942.26642  22420370.4624   22420371.4114
        51.0004         44.0004
  23406844.1774    8229598.24743   6410770.70142  23406846.7154   23406846.2504
        49.0004         42.0004
  22120313.7354     800473.14643    627550.65142  22120315.6724   22120315.7784
        53.0004         45.0004
 04  6 21 16 12  0.0000000  0  9G22G21G18G 3G 6G16G15G29G26
  21836531.4984   -9268090.20443  -7217758.38842  21836531.9864   21836529.4734
        55.0004         47.0004
  20563066.6384   -3043883.92244  -2367541.80442  20563068.0854   20563065.5744
        57.0004         50.0004
  20462130.3164     207644.67744    165823.88842  20462131.9314   20462129.6494
        57.0004         51.0004
  24429755.7514   -3092748.25143  -2358625.59542  24429757.5894   24429759.6574
        46.0004         39.0004
  21604957.6234    9866756.84543   7686819.00942  21604959.0874   21604958.8784
        55.0004         47.0004
  23603633.0634   -1514111.09443  -1178246.57142  23603635.5344   23603635.3444
        49.0004         41.0004
  22411558.9924   -8474476.68643  -6590020.04542  22411561.4834   22411560.0084
        51.0004         44.0004
  23415460.8174    8274870.22443   6446047.53242  23415461.4204   23415462.4254
        49.0004         42.0004
  22126719.3124     834134.29343    653780.10542  22126721.8214   22126720.9414
        53.0004         45.0004
 04  6 21 16 12 20.0000000  0  9G22G21G18G 3G 6G16G15G29G26
  21828536.5004   -9310105.69643  -7250497.71442  21828536.7134   21828534.2074
        55.0004         47.0004
  20561827.1964   -3050396.30444  -2372616.39142  20561828.8684   20561826.4714
        57.0004         50.0004
  20460615.3884     199685.22543    159621.72342  20460616.9384   20460614.7964
        56.0004         51.0004
  24417337.8804   -3158006.80943  -2409476.39242  24417339.4324   24417339.5774
        46.0004         38.0004
  21615123.7964    9920182.73443   7728449.53542  21615125.6184   21615126.1634
        55.0004         47.0004
  23606264.5044   -1500288.88643  -1167476.05842  23606264.8714   23606265.9254
        49.0004         41.0004
  22402754.1454   -8520745.08943  -6626073.33942  22402755.6294   22402756.3934
        52.0004         44.0004
  23424110.5174    8320331.10243   6481471.57342  23424111.6794   23424111.7044
        48.0004         42.0004
  22133175.7664     868066.32543    680220.62742  22133177.2404   22133177.7634
        52.0004         45.0004
 04  6 21 16 12 40.0000000  0  9G22G21G18G 3G 6G16G15G29G26
  21820569.0104   -9351973.23443  -7283121.74742  21820569.7134   21820566.9594
        55.0004         47.0004
  20560605.7824   -3056813.84644  -2377617.07942  20560607.3214   20560605.3094
        57.0004         50.0004
  20459134.3614     191901.75943    153556.68442  20459135.8374   20459133.5494
        56.0004         51.0004
  24404933.4544   -3223191.69343  -2460269.84042  24404934.9494   24404935.5734
        45.0004         39.0004
  21625321.1964    9973770.78143   7770206.42042  21625322.9954   21625323.7204
        54.0004         47.0004
  23608933.1834   -1486260.51243  -1156544.89942  23608933.8514   23608935.5324
        48.0004         41.0004
  22393954.8894   -8566985.81043  -6662105.04642  22393956.6414   22393956.8254
        51.0004         44.0004
  23432797.7404    8365976.37043   6517039.26442  23432798.8574   23432798.0694
        49.0004         41.0004
  22139684.0554     902264.89643    706868.83842  22139685.9774   22139685.7684
        52.0004         45.0004
 04  6 21 16 13  0.0000000  0  9G22G21G18G 3G 6G16G15G29G26
  21812631.5644   -9393684.89443  -7315624.31942  21812632.1624   21812629.7044
        55.0004         47.0004
  20559404.4134   -3063128.59944  -2382537.67042  20559405.7494   20559403.8014
        58.0004         50.0004
  20457688.1534     184301.81243    147634.65542  20457689.9174   20457687.9794
        56.0004         51.0004
  24392546.4114   -3288294.41143  -2510999.17542  24392544.8364   24392546.3964
        44.0004         38.0004
  21635551.6754   10027528.31543   7812095.38142  21635553.0634   21635552.9724
        54.0004         47.0004
  23611643.4604   -1472018.69443  -1145447.42942  23611643.0144   23611645.6294
        48.0004         41.0004
  22385161.4354   -8613190.89843  -6698108.99542  22385164.4364   22385163.6324
        51.0004         44.0004
  23441519.6534    8411813.20443   6552756.23142  23441522.2844   23441521.3414
        48.0004         42.0004
  22146243.7324     936737.21343    733730.36442  22146245.5794   22146244.5814
        52.0004         45.0004
 04  6 21 16 13 20.0000000  0  9G22G21G18G 3G 6G16G15G29G26
  21804722.5344   -9435248.68043  -7348011.67942  21804722.9464   21804720.1154
        55.0004         47.0004
  20558221.0824   -3069348.70744  -2387384.51542  20558222.1494   20558219.7674
        58.0004         50.0004
  20456275.3614     176876.94543    141849.04642  20456276.9744   20456274.8124
        56.0004         51.0004
  24380169.2884   -3353322.47643  -2561670.39542  24380172.5404   24380171.6624
        45.0004         38.0004
  21645811.3624   10081446.39243   7854109.43042  21645813.1614   21645813.0094
        55.0004         47.0004
  23614392.6944   -1457572.18443  -1134190.43342  23614393.7854   23614394.9534
        48.0004         41.0004
  22376375.5144   -8659368.40943  -6734091.46542  22376375.4524   22376376.5304
        52.0004         44.0004
  23450276.9304    8457832.63443   6588615.49142  23450279.6814   23450279.7424
        49.0004         41.0004
  22152854.0914     971474.33743    760798.21942  22152856.3404   22152857.0034
        52.0004         45.0004
 04  6 21 16 13 40.0000000  0  9G22G21G18G 3G 6G16G15G29G26
  21796842.7584   -9476656.00143  -7380277.10042  21796843.2594   21796841.1314
        55.0004         47.0004
  20557056.8514   -3075465.09944  -2392150.54042  20557058.5584   20557055.8574
        57.0004         50.0004
  20454897.3624     169635.44843    136206.32142  20454898.9734   20454896.8914
        56.0004         51.0004
  24367812.1854   -3418266.70143  -2612276.29342  24367813.9184   24367813.9514
        45.0004         39.0004
  21656103.7284   10135533.16043   7896254.92342  21656105.6824   21656105.9374
        54.0004         47.0004
  23617182.3654   -1442913.03443  -1122767.74542  23617182.4304   23617184.6384
        48.0004         41.0004
  22367594.9704   -8705509.61543  -6770045.62742  22367596.0544   22367596.9174
        51.0004         44.0004
  23459070.2304    8504042.55443   6624623.16242  23459072.9934   23459072.4784
        49.0004         42.0004
  22159516.9504    1006484.44143    788078.77442  22159518.9214   22159518.6284
        53.0004         45.0004
 04  6 21 16 14  0.0000000  0  9G22G21G18G 3G 6G16G15G29G26
  21788991.4614   -9517914.80843  -7412426.80142  21788991.7424   21788989.4174
        55.0004         48.0004
  20555911.0334   -3081485.72744  -2396841.93842  20555912.5374   20555909.9394
        57.0004         50.0004
  20453552.6884     162568.99043    130699.99242  20453554.0854   20453551.9664
        56.0004         51.0004
  24355467.8664   -3483134.36043  -2662822.50542  24355471.0104   24355469.8064
        46.0004         38.0004
  21666426.0904   10189779.82843   7938525.02642  21666427.9954   21666428.5194
        54.0004         47.0004
  23620009.9744   -1428049.73643  -1111185.99142  23620012.7964   23620013.6814
        48.0004         41.0004
  22358819.8994   -8751622.39443  -6805977.65142  22358820.2774   22358821.7014
        52.0004         44.0004
  23467898.2444    8550434.43243   6660772.61642  23467899.4804   23467901.4484
        49.0004         42.0004
  22166228.5064    1041758.77843    815565.25742  22166231.1234   22166231.1584
        53.0004         45.0004
 04  6 21 16 14 20.0000000  0  9G22G21G18G 3G 6G16G15G29G26
  21781169.5224   -9559019.70043  -7444456.57042  21781169.9304   21781167.3144
        56.0004         47.0004
  20554784.8064   -3087405.22244  -2401454.54942  20554786.0914   20554784.1824
        57.0004         50.0004
  20452242.1194     155682.80543    125334.13542  20452243.8304   20452241.8964
        56.0004         51.0004
  24343138.7234   -3547919.36743  -2713304.33742  24343140.9774   24343140.9204
        46.0004         38.0004
  21676781.0274   10244191.25443   7980923.50542  21676782.1014   21676782.9594
        54.0004         47.0004
  23622878.5204   -1412977.49043  -1099441.42442  23622878.6674   23622880.1074
        48.0004         41.0004
  22350051.0534   -8797701.28443  -6841883.26842  22350052.8234   22350052.7134
        51.0004         44.0004
  23476761.9384    8597012.79643   6697067.40642  23476763.8784   23476762.3944
        49.0004         41.0004
  22172992.2374    1077302.23343    843261.42642  22172994.2954   22172994.4174
        52.0004         45.0004
 04  6 21 16 14 40.0000000  0  9G22G21G18G 3G 6G16G15G29G26
  21773376.6064   -9599972.30543  -7476367.67942  21773376.9734   21773374.3884
        55.0004         47.0004
  20553676.9574   -3093224.90244  -2405989.36942  20553678.5364   20553676.5584
        57.0004         50.0004
  20450965.6114     148974.82043    120107.13142  20450967.2014   20450965.2164
        56.0004         51.0004
  24330828.4744   -3612622.76543  -2763722.59042  24330828.6194   24330830.7224
        46.0004         38.0004
  21687166.0604   10298765.22243   8023448.64242  21687167.9104   21687168.1124
        55.0004         47.0004
  23625786.8524   -1397698.46143  -1087535.73342  23625788.7064   23625788.3384
        49.0004         41.0004
  22341289.0024   -8843747.92743  -6877763.75742  22341290.1694   22341290.0744
        52.0004         44.0004
  23485659.8714    8643775.23143   6733505.63042  23485662.6604   23485662.7644
        48.0004         41.0004
  22179808.0474    1113112.46243    871165.47542  22179809.3524   22179809.4234
        53.0004         45.0004
 04  6 21 16 15  0.0000000  0  9G22G21G18G 3G 6G16G15G29G26
  21765612.0484   -9640774.01343  -7508161.20442  21765612.2494   21765610.3174
        55.0004         48.0004
  20552588.7954   -3098946.27344  -2410447.58842  20552590.2624   20552587.6894
        57.0004         50.0004
  20449722.9274     142443.00743    115017.40742  20449724.5324   20449721.9544
        56.0004         51.0004
  24318530.2164   -3677245.73143  -2814078.15242  24318530.4974   24318530.0854
        47.0004         39.0004
  21697581.1914   10353499.43843   8066098.64342  21697582.8394   21697582.9504
        54.0004         47.0004
  23628732.1594   -1382214.87543  -1075470.65042  23628735.5274   23628736.3624
        48.0004         41.0004
  22332533.0464   -8889763.73343  -6913620.21542  22332533.3744   22332534.7144
        52.0004         44.0004
  23494593.6174    8690719.50143   6770085.50642  23494594.7364   23494595.1214
        49.0004         41.0004
  22186672.2634    1149187.11943    899275.56442  22186674.2134   22186674.3724
        53.0004         45.0004
 04  6 21 16 15 20.0000000  0  9G22G21G18G 3G 6G16G15G29G26
  21757877.2654   -9681422.24743  -7539835.14042  21757877.2164   21757875.4944
        55.0004         48.0004
  20551519.1374   -3104566.61544  -2414827.09142  20551520.4744   20551517.8894
        57.0004         50.0004
  20448513.7454     136089.70943    110066.77942  20448515.0574   20448512.9004
        56.0004         51.0004
  24306248.2644   -3741784.82143  -2864368.33842  24306250.2674   24306252.0354
        45.0004         38.0004
  21708028.5934   10408395.80243   8108874.98842  21708029.5944   21708030.0224
        54.0004         47.0004
  23631718.7094   -1366524.69443  -1063244.58642  23631720.4784   23631718.9544
        48.0004         41.0004
  22323782.7624   -8935745.96143  -6949450.51642  22323783.9384   22323783.4894
        52.0004         44.0004
  23503561.5164    8737847.46743   6806808.56542  23503562.3684   23503565.4194
        49.0004         41.0004
  22193587.3624    1185528.23143    927593.27642  22193590.0584   22193588.8264
        53.0004         45.0004
 04  6 21 16 15 40.0000000  0  9G22G21G18G 3G 6G16G15G29G26
  21750171.2594   -9721916.09543  -7571388.77442  21750171.3984   21750169.5384
        55.0004         48.0004
  20550468.7354   -3110084.67944  -2419126.89542  20550470.1744   20550467.8754
        57.0004         50.0004
  20447338.4774     129915.61243    105255.80342  20447340.0174   20447338.5404
        56.0004         51.0004
  24293983.2454   -3806238.31643  -2914591.88242  24293985.8314   24293986.7214
        46.0004         38.0004
  21718505.2434   10463454.73643   8151778.01542  21718507.4304   21718507.4174
        54.0004         47.0004
  23634743.9174   -1350627.43643  -1050857.16042  23634744.8164   23634743.9914
        48.0004         41.0004
  22315038.9854   -8981693.71843  -6985253.93642  22315039.8724   22315041.2904
        52.0004         45.0004
  23512564.6034    8785159.20643   6843674.83042  23512566.6104   23512567.5474
        49.0004         41.0004
  22200554.0894    1222135.94743    956118.72342  22200556.5784   22200555.1604
        53.0004         45.0004
 04  6 21 16 16  0.0000000  0  9G22G21G18G 3G 6G16G15G29G26
  21742493.7484   -9762261.10743  -7602826.43342  21742494.2324   21742491.9934
        55.0004         47.0004
  20549437.3824   -3115506.02244  -2423351.33042  20549438.7754   20549436.6264
        57.0004         50.0004
  20446197.0924     123914.90243    100579.92742  20446198.4884   20446196.2174
        56.0004         51.0004
  24281734.1994   -3870611.16743  -2964752.51042  24281734.2854   24281736.4724
        46.0004         38.0004
  21729012.6814   10518670.03443   8194802.88742  21729014.0544   21729014.3934
        54.0004         47.0004
  23637807.1714   -1334529.31143  -1038313.19442  23637809.5554   23637809.1314
        48.0004         41.0004
  22306300.2854   -9027612.33043  -7021034.66142  22306301.7414   22306301.7814
        51.0004         44.0004
  23521601.8274    8832648.58043   6880679.52242  23521602.7614   23521602.3834
        48.0004         40.0004
  22207568.5024    1259004.21643    984847.21342  22207571.2184   22207572.5194
        52.0004         45.0004
 04  6 21 16 16 20.0000000  0  9G22G21G18G 3G 6G16G15G29G26
  21734846.7014   -9802447.63043  -7634140.59642  21734847.2064   21734844.3004
        55.0004         48.0004
  20548426.1934   -3120820.85844  -2427492.77542  20548427.3864   20548425.0094
        57.0004         50.0004
  20445089.7424     118096.82343     96046.36342  20445091.5294   20445089.0684
        56.0004         51.0004
  24269500.1294   -3934893.17943  -3014842.42442  24269501.5824   24269504.3424
        46.0004         38.0004
  21739551.3714   10574050.61443   8237956.54342  21739552.6954   21739553.1364
        54.0004         47.0004
  23640910.1994   -1318221.23643  -1025605.65442  23640912.3184   23640912.8644
        48.0004         40.0004
  22297569.7334   -9073492.14243  -7056785.14742  22297571.8414   22297570.9864
        52.0004         44.0004
  23530674.3234    8880324.47943   6917829.52542  23530675.6044   23530675.8224
        48.0004         40.0004
  22214635.6344    1296141.95043   1013785.67142  22214638.3784   22214637.6754
        52.0004         45.0004
 04  6 21 16 16 40.0000000  0  9G22G21G18G 3G 6G16G15G29G26
  21727227.9894   -9842482.75643  -7665336.77542  21727228.6314   21727226.0304
        55.0004         48.0004
  20547433.7434   -3126036.22344  -2431556.70142  20547434.9634   20547432.8294
        57.0004         50.0004
  20444015.9424     112453.73343     91649.15442  20444017.7644   20444015.5774
        56.0004         51.0004
  24257284.1534   -3999090.98043  -3064866.67442  24257284.8504   24257285.4004
        45.0004         38.0004
  21750119.6104   10629588.64443   8281232.88942  21750121.6534   21750121.6554
        53.0004         46.0004
  23644052.2344   -1301711.12243  -1012740.68042  23644052.5064   23644054.3724
        48.0004         41.0004
  22288845.3554   -9119340.18743  -7092510.88142  22288846.8724   22288846.3074
        52.0004         44.0004
  23539781.1004    8928178.95843   6955118.68942  23539783.5544   23539781.7834
        48.0004         41.0004
  22221753.0604    1333541.24043   1042927.94942  22221755.1684   22221754.8444
        52.0004         45.0004
 04  6 21 16 17  0.0000000  0  9G22G21G18G 3G 6G16G15G29G26
  21719638.7894   -9882365.66243  -7696414.35042  21719639.4664   21719636.4844
        55.0004         48.0004
  20546459.8944   -3131151.02344  -2435542.27242  20546461.5964   20546459.4844
        57.0004         50.0004
  20442975.5664     106986.19943     87388.73742  20442977.0724   20442974.9904
        56.0004         51.0004
  24245084.3394   -4063203.06343  -3114824.17242  24245085.7684   24245086.6634
        45.0004         38.0004
  21760718.5924   10685284.49543   8324632.20242  21760720.2434   21760720.5994
        54.0004         46.0004
  23647233.3084   -1284998.47843   -999717.88142  23647235.1384   23647234.5384
        48.0004         40.0004
  22280127.0044   -9165155.43543  -7128211.06042  22280127.9104   22280128.4604
        51.0004         44.0004
  23548921.6384    8976212.13243   6992547.07942  23548923.4984   23548924.7024
        48.0004         41.0004
  22228920.6264    1371202.36743   1072274.26842  22228923.2164   22228922.3364
        52.0004         45.0004
 04  6 21 16 17 20.0000000  0  9G22G21G18G 3G 6G16G15G29G26
  21712078.0844   -9922097.17843  -7727373.96342  21712078.5694   21712076.3994
        55.0004         48.0004
  20545505.6104   -3136165.97844  -2439450.03342  20545507.1774   20545505.0104
        57.0004         50.0004
  20441968.0004     101692.90943     83264.09842  20441969.7714   20441967.7204
        56.0004         51.0004
  24232900.6094   -4127229.65643  -3164714.97642  24232902.6524   24232903.6064
        46.0004         38.0004
  21771346.3914   10741136.49143   8368153.19842  21771347.7754   21771348.8764
        54.0004         46.0004
  23650450.6694   -1268084.89043   -986538.50342  23650451.2974   23650454.0774
        48.0004         40.0004
  22271414.1224   -9210938.68443  -7163886.30142  22271416.7784   22271416.2194
        51.0004         44.0004
  23558096.3594    9024422.34543   7030113.42942  23558097.6064   23558098.7584
        49.0004         41.0004
  22236135.6004    1409123.65143   1101823.26642  22236137.6204   22236139.1044
        52.0004         45.0004
 04  6 21 16 17 40.0000000  0  9G22G21G18G 3G 6G16G15G29G26
  21704547.2094   -9961672.18943  -7758211.62042  21704547.3984   21704545.0804
        56.0004         48.0004
  20544571.4434   -3141075.58444  -2443275.70642  20544573.1224   20544570.6104
        57.0004         50.0004
  20440995.0464      96578.77043     79279.06142  20440996.6184   20440994.6734
        56.0004         51.0004
  24220734.9054   -4191164.97243  -3214534.75342  24220734.6804   24220736.1974
        44.0004         37.0004
  21782005.6224   10797149.17943   8411799.40742  21782007.5204   21782007.8954
        53.0004         46.0004
  23653709.0964   -1250966.01243   -973199.16242  23653711.5764   23653709.6374
        48.0004         40.0004
  22262710.2554   -9256684.77843  -7199532.59942  22262711.0904   22262710.6274
        52.0004         45.0004
  23567304.2774    9072813.94043   7067821.14942  23567305.6444   23567306.0224
        48.0004         41.0004
  22243402.2454    1447309.54243   1131578.46442  22243405.0634   22243404.2274
        51.0004         45.0004
 04  6 21 16 18  0.0000000  0  9G22G21G18G 3G 6G16G15G29G26
  21697044.9324  -10001096.29443  -7788931.68642  21697045.1004   21697042.5784
        56.0004         48.0004
  20543656.4044   -3145885.44844  -2447023.65042  20543657.9264   20543655.4714
        58.0004         50.0004
  20440054.8194      91637.92943     75429.05542  20440056.3494   20440054.2384
        56.0004         51.0004
  24208584.9304   -4255013.75743  -3264287.03342  24208586.2804   24208586.0444
        45.0004         38.0004
  21792693.8764   10853316.28443   8455565.93742  21792695.2914   21792695.2854
        53.0004         46.0004
  23657004.7824   -1233647.85243   -959704.55342  23657003.2524   23657005.2594
        48.0004         40.0004
  22254010.2194   -9302399.14143  -7235154.16842  22254012.5224   22254010.2064
        52.0004         44.0004
  23576547.1674    9121380.74743   7105665.35642  23576549.8264   23576550.3664
        49.0004         41.0004
  22250719.1104    1485753.77343   1161534.99242  22250721.1494   22250720.8294
        52.0004         44.0004
 04  6 21 16 18 20.0000000  0  9G22G21G18G 3G 6G16G15G29G26
  21689571.9074  -10040367.73843  -7819532.80142  21689572.3374   21689569.3374
        55.0004         48.0004
  20542760.0914   -3150593.94644  -2450692.61742  20542761.5354   20542759.6334
        57.0004         51.0004
  20439147.8584      86871.63344     71715.06242  20439149.3074   20439147.6264
        57.0004         51.0004
  24196450.0444   -4318773.57543  -3313970.04742  24196453.0544   24196452.9464
        44.0004         38.0004
  21803411.8384   10909638.89243   8499453.63742  21803413.5194   21803413.4604
        53.0004         46.0004
  23660337.6564   -1216129.49443   -946053.93842  23660339.9924   23660339.8744
        47.0004         41.0004
  22245317.5504   -9348080.02643  -7270749.64942  22245319.1324   22245318.8334
        52.0004         44.0004
  23585821.3634    9170123.58043   7143646.74242  23585824.5284   23585824.4424
        49.0004         42.0004
  22258083.2484    1524457.38443   1191693.61942  22258085.2384   22258085.8994
        51.0004         45.0004
 04  6 21 16 18 40.0000000  0  9G22G21G18G 3G 6G16G15G29G26
  21682128.5204  -10079483.77243  -7850012.81342  21682128.5014   21682125.8794
        56.0004         48.0004
  20541884.6294   -3155197.99344  -2454280.18842  20541886.1864   20541883.3124
        58.0004         50.0004
  20438274.6564      82282.21243     68138.88642  20438276.0104   20438274.0524
        56.0004         51.0004
  24184336.5054   -4382441.17843  -3363581.13142  24184338.1714   24184339.7564
        46.0004         39.0004
  21814159.7194   10966119.02943   8543464.07942  21814161.7024   21814161.6544
        53.0004         46.0004
  23663710.7314   -1198408.76843   -932245.66042  23663711.6254   23663712.3034
        48.0004         40.0004
  22236631.5174   -9393724.45943  -7306316.72042  22236633.5854   22236633.3124
        52.0004         44.0004
  23595131.5084    9219044.38243   7181766.81842  23595134.4334   23595133.1964
        48.0004         41.0004
  22265498.5124    1563422.43243   1222055.95842  22265500.8224   22265501.5314
        52.0004         45.0004
 04  6 21 16 19  0.0000000  0  9G22G21G18G 3G 6G16G15G29G26
  21674714.0314  -10118445.83743  -7880372.85542  21674714.8004   21674712.2744
        56.0004         48.0004
  20541027.4434   -3159698.57244  -2457787.13942  20541029.0414   20541027.0784
        57.0004         50.0004
  20437434.5454      77867.97943     64699.22142  20437436.0064   20437434.2674
        56.0004         51.0004
  24172237.7534   -4446017.54343  -3413121.18742  24172239.8824   24172239.8144
        47.0004         38.0004
  21824937.8184   11022754.49443   8587595.55442  21824938.9664   21824939.2444
        54.0004         46.0004
  23667119.7604   -1180487.56143   -918281.12342  23667122.0154   23667121.6174
        48.0004         40.0004
  22227952.0614   -9439333.80143  -7341856.46742  22227953.6684   22227953.3364
        52.0004         45.0004
  23604474.1504    9268140.96043   7220023.84842  23604474.6354   23604475.7464
        47.0004         41.0004
  22272962.3144    1602646.54443   1252620.17142  22272963.8944   22272964.7564
        51.0004         44.0004
 04  6 21 16 19 20.0000000  0  9G22G21G18G 3G 6G16G15G29G26
  21667328.9484  -10157254.04243  -7910612.99642  21667329.4114   21667326.6944
        55.0004         48.0004
  20540191.5454   -3164095.91344  -2461213.64542  20540192.5634   20540189.9874
        58.0004         50.0004
  20436627.8764      73628.46443     61395.70442  20436629.2054   20436627.1634
        56.0004         51.0004
  24160155.2494   -4509501.96343  -3462589.53742  24160158.4904   24160160.3504
        45.0004         38.0004
  21835743.4134   11079544.66343   8631847.58842  21835746.3194   21835746.3834
        53.0004         46.0004
  23670569.3024   -1162366.76043   -904161.07842  23670570.4954   23670571.1434
        47.0004         40.0004
  22219280.2094   -9484908.11343  -7377368.90342  22219281.1344   22219281.0354
        52.0004         44.0004
  23613849.8414    9317412.59443   7258417.26342  23613850.8804   23613851.0324
        47.0004         40.0004
  22280475.9314    1642128.99243   1283385.67742  22280478.1954   22280477.9794
        51.0004         44.0004
 04  6 21 16 19 40.0000000  0  9G22G21G18G 3G 6G16G15G29G26
  21659973.0474  -10195910.87243  -7940735.18942  21659973.1704   21659970.8754
        55.0004         48.0004
  20539373.3484   -3168392.49644  -2464561.64542  20539374.8604   20539372.6304
        58.0004         50.0004
  20435853.6384      69560.88143     58226.16142  20435855.2284   20435853.0734
        56.0004         51.0004
  24148092.2124   -4572896.37443  -3511987.82242  24148093.6044   24148094.9994
        45.0004         38.0004
  21846579.7554   11136486.36443   8676217.69742  21846581.2954   21846581.3674
        54.0004         46.0004
  23674055.0634   -1144049.43943   -889887.89242  23674055.6444   23674056.0164
        48.0004         40.0004
  22210613.8754   -9530449.69043  -7412855.83642  22210614.7344   22210615.0074
        52.0004         45.0004
  23623257.7794    9366855.83143   7296944.42542  23623259.5734   23623259.7784
        46.0004         40.0004
  22288037.9174    1681866.61043   1314350.03642  22288039.7164   22288039.4514
        51.0004         44.0004
 04  6 21 16 20  0.0000000  0  9G22G21G18G 3G 6G16G15G29G26
  21652646.5324  -10234412.01143  -7970736.05442  21652646.7734   21652644.8364
        56.0004         48.0004
  20538576.1144   -3172583.92144  -2467827.69942  20538577.6544   20538574.6764
        58.0004         50.0004
  20435113.2064      65669.03643     55193.55542  20435114.6754   20435112.2574
        56.0004         51.0004
  24136047.3144   -4636195.84343  -3561312.04342  24136048.4354   24136049.6504
        46.0004         39.0004
  21857445.0054   11193583.25443   8720708.73642  21857446.7604   21857446.3354
        53.0004         46.0004
  23677578.0084   -1125531.90643   -875458.70342  23677579.5334   23677579.0434
        47.0004         40.0004
  22201954.9564   -9575954.10043  -7448313.80242  22201956.1304   22201957.0644
        52.0004         45.0004
  23632699.7144    9416474.41143   7335608.21142  23632700.2094   23632703.8894
        46.0004         40.0004
  22295649.1214    1721863.15943   1345516.14442  22295650.5524   22295650.1664
        52.0004         44.0004
 04  6 21 16 20 20.0000000  0  9G22G21G18G 3G 6G16G15G29G26
  21645349.5824  -10272757.65443  -8000615.75142  21645350.2884   21645347.6994
        56.0004         48.0004
  20537798.3264   -3176669.73644  -2471011.45342  20537799.5924   20537797.1994
        57.0004         50.0004
  20434405.9874      61952.59743     52297.63042  20434407.5174   20434405.3814
        56.0004         51.0004
  24124020.3994   -4699399.72943  -3610561.87342  24124021.5524   24124024.4624
        46.0004         39.0004
  21868338.9584   11250834.55943   8765320.10042  21868340.7634   21868341.2644
        53.0004         46.0004
  23681140.1524   -1106814.96943   -860874.10942  23681142.1444   23681140.0984
        47.0004         40.0004
  22193302.2264   -9621421.39943  -7483742.85142  22193303.0424   22193302.8664
        52.0004         45.0004
  23642176.0144    9466267.38343   7374407.87642  23642176.5054   23642179.6954
        47.0004         41.0004
  22303308.8624    1762117.54943   1376883.17242  22303311.9314   22303310.9634
        52.0004         44.0004
 04  6 21 16 20 40.0000000  0  9G22G21G18G 3G 6G16G15G29G26
  21638081.1634  -10310954.34343  -8030379.39442  21638081.5164   21638078.8384
        56.0004         48.0004
  20537039.7004   -3180656.60544  -2474118.11442  20537041.0454   20537038.6674
        57.0004         50.0004
  20433730.5544      58404.35943     49532.76242  20433732.2234   20433730.2834
        56.0004         51.0004
  24112010.3124   -4762514.07943  -3659741.87042  24112011.8784   24112010.9394
        46.0004         39.0004
  21879261.9354   11308232.85143   8810045.98342  21879263.7694   21879263.9834
        54.0004         46.0004
  23684737.3914   -1087905.92243   -846139.85342  23684742.2754   23684740.9584
        46.0004         40.0004
  22184656.1644   -9666857.97643  -7519147.96442  22184657.5374   22184657.6204
        52.0004         45.0004
  23651682.5844    9516227.30943   7413337.66042  23651684.9164   23651686.7724
        47.0004         41.0004
  22311016.1004    1802622.51043   1408445.44942  22311018.8514   22311018.5464
        51.0004         44.0004
 04  6 21 16 21  0.0000000  0  9G22G21G18G 3G 6G16G15G29G26
  21630842.5024  -10348993.00943  -8060019.88842  21630842.9784   21630840.4884
        56.0004         48.0004
  20536301.5764   -3184535.14544  -2477140.35942  20536302.9154   20536300.5564
        57.0004         50.0004
  20433089.2034      55033.26443     46905.93842  20433090.4494   20433088.6124
        56.0004         51.0004
  24100018.2314   -4825529.24143  -3708844.57542  24100021.7054   24100021.4814
        46.0004         39.0004
  21890214.0104   11365786.56443   8854892.97042  21890215.2844   21890216.3024
        53.0004         46.0004
  23688374.6534   -1068796.33443   -831249.30342  23688378.1084   23688378.4454
        47.0004         40.0004
  22176017.2364   -9712254.68943  -7554522.02642  22176017.6764   22176019.9734
        52.0004         45.0004
  23661222.4664    9566362.55243   7452404.03442  23661225.8714   23661226.2514
        47.0004         40.0004
  22318774.4034    1843386.33143   1440209.44442  22318776.7484   22318776.6484
        52.0004         44.0004
 04  6 21 16 21 20.0000000  0  9G22G21G18G 3G 6G16G15G29G26
  21623633.2994  -10386878.52943  -8089541.04242  21623633.6994   21623631.3704
        56.0004         48.0004
  20535583.2984   -3188310.30444  -2480082.04942  20535584.5764   20535582.1714
        57.0004         50.0004
  20432480.4074      51834.22743     44413.18342  20432481.9614   20432479.8814
        56.0004         51.0004
  24088045.7994   -4888449.19143  -3757873.10442  24088046.9054   24088046.9524
        46.0004         39.0004
  21901194.6714   11423490.32243   8899856.84142  21901196.7544   21901196.4144
        53.0004         46.0004
  23692048.0574   -1049491.38343   -816206.53542  23692050.0184   23692052.1944
        47.0004         40.0004
  22167384.9974   -9757616.17643  -7589868.62442  22167386.0914   22167386.9744
        52.0004         45.0004
  23670796.5364    9616667.54043   7491602.70042  23670798.4924   23670799.7484
        47.0004         41.0004
  22326579.3854    1884403.65843   1472170.97242  22326581.7984   22326581.7564
        51.0004         44.0004
 04  6 21 16 21 40.0000000  0  9G22G21G18G 3G 6G16G15G29G26
  21616452.9324  -10424609.52343  -8118941.79342  21616453.3824   21616451.1684
        56.0004         48.0004
  20534884.5944   -3191980.43044  -2482941.89042  20534886.5444   20534883.7074
        57.0004         50.0004
  20431904.4264      48808.11843     42055.17142  20431905.9814   20431904.0074
        56.0004         51.0004
  24076090.0824   -4951272.07943  -3806826.00642  24076091.7914   24076094.7344
        46.0004         40.0004
  21912204.3724   11481344.69243   8944938.09542  21912205.8084   21912205.6144
        53.0004         46.0004
  23695760.5234   -1029990.65343   -801011.20842  23695761.5854   23695760.4684
        47.0004         40.0004
  22158760.4874   -9802941.05643  -7625186.70642  22158761.4334   22158760.5734
        52.0004         45.0004
  23680402.0174    9667142.74343   7530933.97342  23680404.0034   23680403.1104
        47.0004         41.0004
  22334432.9654    1925674.83143   1504330.29042  22334435.4574   22334435.6634
        51.0004         44.0004
 04  6 21 16 22  0.0000000  0  9G22G21G18G 3G 6G16G15G29G26
  21609301.9994  -10462187.19843  -8148223.07542  21609302.4614   21609299.6974
        56.0004         48.0004
  20534206.2494   -3195546.33244  -2485720.51842  20534207.7384   20534205.2454
        57.0004         50.0004
  20431361.3504      45953.41143     39830.72342  20431362.8804   20431360.8294
        56.0004         51.0004
  24064154.8374   -5013998.22943  -3855703.54042  24064155.7244   24064155.5934
        46.0004         39.0004
  21923241.6624   11539347.82643   8990135.25042  21923243.4424   21923243.4134
        53.0004         46.0004
  23699507.1994   -1010295.70743   -785664.54242  23699507.9464   23699509.9054
        47.0004         39.0004
  22150142.4574   -9848230.29843  -7660477.01642  22150143.6374   22150143.1214
        53.0004         45.0004
  23690039.0844    9717786.40143   7570396.50942  23690039.9664   23690041.1324
        47.0004         41.0004
  22342334.7354    1967198.12543   1536686.06742  22342336.9804   22342337.1714
        51.0004         44.0004
 04  6 21 16 22 20.0000000  0  9G22G21G18G 3G 6G16G15G29G26
  21602180.4494  -10499610.35943  -8177383.95642  21602181.0444   21602178.1924
        56.0004         48.0004
  20533547.5394   -3199006.62544  -2488416.86242  20533549.0864   20533546.9924
        57.0004         50.0004
  20430850.9424      43270.83443     37740.40142  20430852.2834   20430850.6774
        56.0004         51.0004
  24052237.0974   -5076625.91643  -3904504.31742  24052239.2044   24052238.2274
        46.0004         39.0004
  21934308.2784   11597500.31543   9035448.81042  21934310.4224   21934310.2484
        53.0004         46.0004
  23703292.3504    -990406.30743   -770166.35142  23703293.6534   23703293.1454
        47.0004         39.0004
  22141530.5574   -9893482.76843  -7695738.66742  22141532.1534   22141531.5794
        52.0004         45.0004
  23699708.0324    9768598.71943   7609990.48342  23699709.2494   23699710.5974
        47.0004         41.0004
  22350284.1724    2008973.79743   1569238.53142  22350286.7604   22350287.0054
        52.0004         44.0004
 04  6 21 16 22 40.0000000  0  9G22G21G18G 3G 6G16G15G29G26
  21595088.6424  -10536878.98043  -8206424.41742  21595089.3924   21595086.7204
        56.0004         48.0004
  20532910.1034   -3202361.32044  -2491030.92142  20532911.0274   20532908.5584
        58.0004         50.0004
  20430373.2344      40760.30343     35784.14242  20430374.4894   20430372.8974
        56.0004         51.0004
  24040336.8824   -5139154.27543  -3953227.71342  24040337.9544   24040340.9674
        45.0004         39.0004
  21945402.1044   11655801.52743   9080878.27642  21945403.7964   21945404.3464
        53.0004         46.0004
  23707114.0124    -970322.94843   -754517.04242  23707116.6664   23707115.8584
        48.0004         39.0004
  22132926.3504   -9938698.15343  -7730971.42042  22132928.1964   22132928.1634
        52.0004         45.0004
  23709408.7134    9819579.19643   7649715.47342  23709409.7494   23709412.5354
        46.0004         41.0004
  22358282.3704    2051001.40943   1601987.29342  22358284.1364   22358283.9494
        51.0004         44.0004
 04  6 21 16 23  0.0000000  0  9G22G21G18G 3G 6G16G15G29G26
  21588025.8754  -10573993.58843  -8235344.86442  21588026.4444   21588023.8224
        56.0004         48.0004
  20532291.3144   -3205610.92244  -2493563.08442  20532292.5384   20532289.8664
        57.0004         50.0004
  20429928.0624      38420.59643     33960.99242  20429929.3024   20429927.3324
        56.0004         51.0004
  24028457.9524   -5201583.31843  -4001873.72142  24028459.9204   24028458.4694
        44.0004         39.0004
  21956525.0344   11714250.35643   9126422.78042  21956526.6664   21956526.8284
        53.0004         46.0004
  23710971.8734    -950046.81543   -738717.49842  23710973.7244   23710974.4904
        47.0004         39.0004
  22124329.0034   -9983876.89543  -7766175.62342  22124330.6924   22124330.8804
        52.0004         45.0004
  23719143.2844    9870726.48943   7689570.44442  23719145.7174   23719145.0594
        47.0004         41.0004
  22366327.1734    2093279.53943   1634931.26842  22366329.2204   22366329.3694
        51.0004         44.0004
 04  6 21 16 23 20.0000000  0  9G22G21G18G 3G 6G16G15G29G26
  21580993.0574  -10610951.29943  -8264143.06742  21580993.2804   21580991.1794
        56.0004         48.0004
  20531693.2354   -3208751.90144  -2496010.60342  20531694.8924   20531692.4984
        57.0004         50.0004
  20429515.5854      36254.53443     32273.14742  20429517.1304   20429515.0644
        56.0004         51.0004
  24016598.2254   -5263909.42143  -4050439.49342  24016599.3754   24016600.5584
        46.0004         39.0004
  21967675.9134   11772848.90243   9172083.95942  21967677.6214   21967678.4314
        53.0004         46.0004
  23714867.2774    -929575.43243   -722765.81042  23714867.5824   23714869.6824
        46.0004         39.0004
  22115739.8794  -10029015.77843  -7801348.76542  22115739.7304   22115741.3534
        52.0004         45.0004
  23728906.2104    9922042.71043   7729557.06942  23728909.2164   23728910.4314
        46.0004         40.0004
  22374420.1244    2135810.35643   1668072.14042  22374423.0794   22374423.0504
        52.0004         44.0004
 04  6 21 16 23 40.0000000  0  9G22G21G18G 3G 6G16G15G29G26
  21573989.3014  -10647757.24243  -8292822.99842  21573989.8454   21573987.2744
        56.0004         48.0004
  20531115.4934   -3211789.21744  -2498377.34942  20531116.8304   20531114.4634
        57.0004         51.0004
  20429135.4194      34256.64243     30716.34542  20429136.8104   20429135.0224
        56.0004         51.0004
  24004755.8004   -5326136.98543  -4098928.47342  24004758.2264   24004757.7424
        46.0004         39.0004
  21978853.8844   11831591.45643   9217857.34042  21978855.3224   21978856.2734
        53.0004         45.0004
  23718799.5374    -908914.82743   -706666.68542  23718800.7324   23718800.5184
        46.0004         39.0004
  22107156.8954  -10074119.69743  -7836494.66542  22107157.5874   22107158.6024
        52.0004         45.0004
  23738703.5424    9973522.07343   7769670.81942  23738704.2244   23738706.5624
        47.0004         41.0004
  22382560.6934    2178587.97143   1701405.33142  22382562.4054   22382562.7164
        51.0004         44.0004
 04  6 21 16 24  0.0000000  0  9G22G21G18G 3G 6G16G15G29G26
  21567015.1914  -10684406.97543  -8321381.20942  21567015.3744   21567012.6014
        56.0004         48.0004
  20530557.6194   -3214718.33044  -2500659.78842  20530559.4944   20530557.0064
        57.0004         50.0004
  20428788.0344      32430.97043     29293.74242  20428789.4214   20428787.5604
        56.0004         51.0004
  23992935.4124   -5388260.84843  -4147336.68642  23992935.4324   23992936.6414
        46.0004         39.0004
  21990060.8694   11890481.78043   9263745.88842  21990062.6664   21990062.3014
        52.0004         46.0004
  23722767.3434    -888061.08743   -690417.05842  23722771.2694   23722770.0104
        46.0004         39.0004
  22098580.7844  -10119184.27843  -7871609.90842  22098581.9574   22098583.1674
        52.0004         45.0004
  23748532.3384   10025168.16343   7809914.49942  23748534.4184   23748534.7384
        48.0004         41.0004
  22390748.8994    2221616.23043   1734933.81942  22390750.3064   22390750.7204
        51.0004         44.0004
 04  6 21 16 24 20.0000000  0  9G22G21G18G 3G 6G16G15G29G26
  21560069.9804  -10720903.53543  -8349820.07042  21560070.8764   21560068.1904
        56.0004         48.0004
  20530020.6134   -3217542.20044  -2502860.21042  20530022.2644   20530019.5314
        57.0004         50.0004
  20428473.0524      30774.00643     28002.59742  20428474.4884   20428472.4294
        56.0004         51.0004
  23981131.8544   -5450283.50943  -4195666.01942  23981133.2104   23981135.2274
        47.0004         39.0004
  22001294.3834   11949516.06643   9309746.59742  22001295.7234   22001297.2794
        53.0004         45.0004
  23726773.0184    -867017.94743   -674019.84042  23726774.9194   23726774.7534
        47.0004         39.0004
  22090012.4984  -10164212.35943  -7906696.70742  22090013.9404   22090014.6284
        52.0004         45.0004
  23758391.1844   10076977.17343   7850285.12942  23758393.0384   23758390.9724
        49.0004         41.0004
  22398984.5244    2264891.11443   1768654.48142  22398986.4074   22398986.2324
        52.0004         44.0004
 04  6 21 16 24 40.0000000  0  9G22G21G18G 3G 6G16G15G29G26
  21553154.3514  -10757247.11943  -8378139.72542  21553154.7194   21553152.3554
        56.0004         48.0004
  20529503.2794   -3220260.80844  -2504978.61542  20529504.7054   20529502.4334
        57.0004         50.0004
  20428189.5774      29285.25943     26842.52642  20428191.1464   20428189.0524
        56.0004         51.0004
  23969348.1524   -5512204.40543  -4243916.04842  23969350.5474   23969351.4534
        47.0004         39.0004
  22012555.5594   12008693.46943   9355858.78942  22012556.5454   22012557.1184
        53.0004         46.0004
  23730812.7854    -845786.24643   -657475.69342  23730814.1074   23730813.7564
        47.0004         39.0004
  22081451.1114  -10209203.93243  -7941755.07142  22081451.0214   22081453.1904
        52.0004         45.0004
  23768279.1384   10128948.21143   7890782.02342  23768281.2034   23768285.8274
        47.0004         41.0004
  22407265.0864    2308411.84543   1802566.71442  22407267.4894   22407268.2974
        51.0004         44.0004
 04  6 21 16 25  0.0000000  0  9G22G21G18G 3G 6G16G15G29G26
  21546268.5874  -10793432.07643  -8406335.77242  21546269.1744   21546266.2204
        56.0004         48.0004
  20529006.9284   -3222868.32144  -2507010.45242  20529008.4844   20529006.3884
        57.0004         50.0004
  20427939.2734      27969.98544     25817.62842  20427940.7844   20427938.9494
        57.0004         51.0004
  23957586.8564   -5574017.15443  -4292081.82842  23957588.3074   23957588.6674
        47.0004         40.0004
  22023844.8104   12068019.06043   9402086.46842  22023847.0814   22023846.9044
        53.0004         45.0004
  23734889.8064    -824361.01643   -640780.74242  23734892.2934   23734890.6884
        46.0004         39.0004
  22072897.8824  -10254153.14643  -7976780.41842  22072898.2384   22072899.2584
        52.0004         45.0004
  23778201.0704   10181086.06543   7931408.87942  23778202.9564   23778204.5954
        47.0004         41.0004
  22415593.6814    2352183.21143   1836674.24342  22415595.7024   22415598.1544
        51.0004         44.0004
 04  6 21 16 25 20.0000000  0  9G22G21G18G 3G 6G16G15G29G26
  21539411.5304  -10829464.37343  -8434412.87042  21539411.4864   21539410.1024
        56.0004         48.0004
  20528530.9224   -3225370.38044  -2508960.11442  20528532.5954   20528530.4134
        57.0004         50.0004
  20427720.7244      26821.88843     24923.00542  20427722.3954   20427720.5334
        56.0004         51.0004
  23945842.7244   -5635727.17143  -4340167.54342  23945845.8764   23945845.2944
        47.0004         39.0004
  22035160.9794   12127486.15043   9448424.39942  22035162.9454   22035163.2794
        53.0004         45.0004
  23739002.6364    -802748.77143   -623940.07442  23739004.0594   23739004.6694
        46.0004         39.0004
  22064350.6904  -10299065.78143  -8011777.25542  22064352.6054   22064351.7094
        53.0004         45.0004
  23788154.3944   10233384.10543   7972160.53942  23788156.7134   23788156.6864
        47.0004         41.0004
  22423972.1404    2396198.50443   1870971.88142  22423973.2574   22423971.9754
        51.0004         44.0004
 04  6 21 16 25 40.0000000  0  9G22G21G18G 3G 6G16G15G29G26
  21532584.2684  -10865341.70043  -8462369.20742  21532584.8144   21532582.2404
        56.0004         48.0004
  20528075.6064   -3227764.45644  -2510825.63142  20528076.9094   20528074.6454
        57.0004         50.0004
  20427534.4254      25843.13043     24160.33342  20427535.8564   20427534.3594
        56.0004         51.0004
  23934119.4624   -5697331.38143  -4388170.82342  23934121.9984   23934122.8344
        47.0004         39.0004
  22046505.1284   12187096.44143   9494873.91542  22046506.3544   22046506.4164
        53.0004         45.0004
  23743151.8764    -780947.91043   -606952.42042  23743153.6204   23743150.7144
        46.0004         39.0004
  22055811.3524  -10343939.29643  -8046743.61642  22055812.4564   22055813.1004
        53.0004         45.0004
  23798137.0814   10285843.88643   8013038.25342  23798138.3874   23798137.5474
        48.0004         41.0004
  22432393.5134    2440459.42443   1905460.87142  22432396.4694   22432396.6694
        51.0004         44.0004
 04  6 21 16 26  0.0000000  0  9G22G21G18G 3G 6G16G15G29G26
  21525786.9194  -10901062.55943  -8490203.62142  21525787.4804   21525784.9624
        56.0004         48.0004
  20527640.8864   -3230048.86144  -2512605.69842  20527642.3074   20527640.0364
        57.0004         50.0004
  20427380.6794      25034.63543     23530.33442  20427381.9434   20427380.4724
        56.0004         51.0004
  23922418.5804   -5758827.57343  -4436089.92042  23922420.9324   23922419.6294
        47.0004         39.0004
  22057874.8744   12246850.71543   9541435.62942  22057877.4474   22057877.9564
        52.0004         45.0004
  23747336.3994    -758957.55743   -589817.12242  23747338.7294   23747337.7174
        46.0004         39.0004
  22047280.2244  -10388772.07243  -8081678.22742  22047282.2614   22047281.2264
        53.0004         45.0004
  23808150.6814   10338466.12043   8054042.56042  23808153.5454   23808153.1144
        47.0004         41.0004
  22440863.0464    2484966.59343   1940141.77042  22440865.2004   22440866.3544
        51.0004         44.0004
 04  6 21 16 26 20.0000000  0  9G22G21G18G 3G 6G16G15G29G26
  21519017.6924  -10936633.01943  -8517920.84742  21519018.2934   21519016.4134
        56.0004         48.0004
  20527225.5714   -3232229.60244  -2514304.99542  20527227.2734   20527224.9874
        57.0004         50.0004
  20427258.2804      24390.30843     23028.26242  20427259.6084   20427257.7044
        56.0004         51.0004
  23910734.8274   -5820221.09843  -4483929.01742  23910735.4814   23910737.5444
        47.0004         40.0004
  22069273.0344   12306742.44743   9588104.44342  22069274.5884   22069274.5704
        53.0004         45.0004
  23751554.4244    -736784.37943   -572539.35842  23751558.5004   23751556.0904
        46.0004         38.0004
  22038755.6254  -10433569.97143  -8116585.66042  22038756.8804   22038756.7764
        53.0004         45.0004
  23818194.6664   10391244.14943   8095168.25142  23818194.6744   23818196.8374
        47.0004         41.0004
  22449377.9964    2529713.34243   1975009.34442  22449379.8664   22449380.0114
        51.0004         44.0004
 04  6 21 16 26 40.0000000  0  9G22G21G18G 3G 6G16G15G29G26
  21512279.2094  -10972045.87443  -8545515.26142  21512279.8964   21512277.2484
        56.0004         48.0004
  20526832.3514   -3234298.75144  -2515917.32142  20526833.5144   20526831.1834
        57.0004         50.0004
  20427167.7104      23916.77643     22659.28642  20427169.3654   20427167.4224
        56.0004         51.0004
  23899074.8344   -5881504.01043  -4531681.92942  23899075.9554   23899075.1924
        47.0004         40.0004
  22080697.0744   12366778.03743   9634885.35242  22080698.9514   22080698.9404
        53.0004         45.0004
  23755810.5174    -714421.73343   -555113.96242  23755812.1544   23755813.1864
        46.0004         39.0004
  22030238.3954  -10478325.62643  -8151460.18542  22030239.8704   22030240.6214
        52.0004         45.0004
  23828267.2044   10444184.37243   8136420.31042  23828270.7574   23828272.1094
        46.0004         41.0004
  22457940.8094    2574705.97543   2010068.53342  22457941.5264   22457942.6484
        52.0004         44.0004
 04  6 21 16 27  0.0000000  0  9G22G21G18G 3G 6G16G15G29G26
  21505569.9544  -11007303.32043  -8572988.57442  21505570.2434   21505567.8124
        56.0004         48.0004
  20526459.3974   -3236258.72344  -2517444.58442  20526460.6894   20526458.3174
        58.0004         50.0004
  20427109.8574      23611.41043     22421.34542  20427111.3404   20427109.6724
        56.0004         51.0004
  23887431.7894   -5942678.02543  -4579349.96742  23887433.8344   23887436.8454
        46.0004         40.0004
  22092148.1924   12426954.51143   9681776.04142  22092150.2184   22092150.3774
        52.0004         45.0004
  23760101.5954    -691872.77943   -537543.40042  23760103.4644   23760102.5694
        46.0004         39.0004
  22021730.0094  -10523041.04943  -8186303.35142  22021730.6234   22021731.2484
        53.0004         45.0004
  23838372.5274   10497283.76243   8177796.41042  23838374.0094   23838374.6594
        47.0004         41.0004
  22466548.8094    2619941.54943   2045317.00742  22466551.3244   22466550.1324
        52.0004         44.0004
 04  6 21 16 27 20.0000000  0  9G22G21G18G 3G 6G16G15G29G26
  21498889.6764  -11042406.24643  -8600341.49242  21498890.6344   21498887.6854
        56.0004         48.0004
  20526106.8414   -3238110.01544  -2518887.16242  20526108.5224   20526106.2424
        58.0004         51.0004
  20427083.3604      23473.09143     22313.56242  20427085.0914   20427083.1184
        56.0004         51.0004
  23875812.2274   -6003743.05043  -4626933.08542  23875812.7534   23875813.0364
        46.0004         39.0004
  22103626.2004   12487270.45743   9728775.41542  22103628.0544   22103628.8194
        52.0004         45.0004
  23764428.0404    -669138.91643   -519828.75442  23764430.9284   23764430.4654
        46.0004         38.0004
  22013228.0044  -10567716.71043  -8221115.53942  22013229.3444   22013229.6324
        52.0004         45.0004
  23848506.3864   10550540.77843   8219295.31942  23848509.1344   23848509.3174
        47.0004         41.0004
  22475202.3464    2665418.53843   2080753.60142  22475203.6114   22475204.1904
        52.0004         44.0004
 04  6 21 16 27 40.0000000  0  9G22G21G18G 3G 6G16G15G29G26
  21492239.3744  -11077354.85943  -8627574.15742  21492239.7664   21492237.3894
        56.0004         48.0004
  20525775.3634   -3239852.82544  -2520245.19942  20525776.4784   20525774.2984
        57.0004         50.0004
  20427088.9764      23501.29643     22335.54242  20427090.4894   20427088.2734
        56.0004         51.0004
  23864213.1844   -6064698.74543  -4674431.01442  23864214.3984   23864214.1784
        47.0004         39.0004
  22115130.7464   12547725.00043   9775882.77542  22115132.0044   22115132.9144
        52.0004         45.0004
  23768788.3734    -646221.14943   -501970.80042  23768790.1924   23768789.9964
        45.0004         38.0004
  22004734.7484  -10612352.80843  -8255896.90042  22004735.5854   22004735.7094
        53.0004         45.0004
  23858672.3024   10603954.31743   8260916.23942  23858674.7244   23858673.4894
        49.0004         41.0004
  22483901.7144    2711135.79543   2116377.41042  22483903.0014   22483902.3134
        51.0004         43.0004
 04  6 21 16 28  0.0000000  0  9G22G21G18G 3G 6G16G15G29G26
  21485618.1354  -11112148.96143  -8654686.42142  21485618.7564   21485616.5524
        56.0004         48.0004
  20525464.2064   -3241486.66544  -2521518.33142  20525465.6704   20525463.5844
        57.0004         50.0004
  20427125.7274      23695.96643     22487.23142  20427127.3994   20427125.3704
        56.0004         51.0004
  23852633.4624   -6125544.12343  -4721842.99842  23852633.6014   23852637.7644
        47.0004         40.0004
  22126660.7694   12608317.59543   9823097.71442  22126662.6564   22126662.5654
        52.0004         45.0004
  23773186.1834    -623119.69043   -483969.69942  23773186.4734   23773186.3434
        46.0004         39.0004
  21996247.2924  -10656948.84643  -8290647.04242  21996249.3564   21996250.1674
        53.0004         45.0004
  23868864.8864   10657524.02943   8302658.84242  23868866.0154   23868867.9984
        48.0004         41.0004
  22492646.7074    2757092.89343   2152188.08942  22492649.6964   22492649.2864
        51.0004         44.0004
 04  6 21 16 28 20.0000000  0  9G22G21G18G 3G 6G16G15G29G26
  21479026.5004  -11146786.58243  -8681676.75342  21479027.1804   21479024.7774
        56.0004         48.0004
  20525174.4974   -3243009.12544  -2522704.67342  20525175.8274   20525173.9514
        57.0004         50.0004
  20427195.1124      24058.70143     22769.87942  20427196.3494   20427194.2784
        56.0004         51.0004
  23841076.6564   -6186276.46743  -4769166.89242  23841079.2444   23841081.3414
        47.0004         40.0004
  22138217.9524   12669049.75343   9870421.40542  22138219.4844   22138220.2014
        52.0004         45.0004
  23777615.8694    -599833.17943   -465824.43642  23777616.7764   23777619.8734
        45.0004         38.0004
  21987769.6234  -10701502.63743  -8325364.26142  21987770.3434   21987770.4164
        53.0004         45.0004
  23879090.3014   10711251.10743   8344524.06542  23879092.5544   23879092.3424
        48.0004         41.0004
  22501437.6954    2803291.04043   2188186.63642  22501440.3084   22501440.6574
        50.0004         43.0004
 04  6 21 16 28 40.0000000  0  9G22G21G18G 3G 6G16G15G29G26
  21472465.1684  -11181270.16443  -8708547.06042  21472465.3774   21472462.9584
        56.0004         48.0004
  20524905.7024   -3244422.57544  -2523806.06942  20524906.9174   20524905.1574
        57.0004         51.0004
  20427295.2694      24586.69043     23181.30142  20427296.9644   20427295.0824
        56.0004         51.0004
  23829541.3334   -6246897.37343  -4816403.93942  23829541.4054   23829542.6604
        47.0004         40.0004
  22149800.7444   12729918.19043   9917851.28742  22149802.7094   22149803.8204
        52.0004         45.0004
  23782082.5454    -576364.91543   -447537.49542  23782083.3794   23782084.4504
        46.0004         39.0004
  21979298.2444  -10746016.37543  -8360050.27042  21979298.9984   21979299.9294
        52.0004         45.0004
  23889342.2844   10765132.29443   8386509.38442  23889343.6544   23889345.4834
        46.0004         40.0004
  22510275.4864    2849727.02943   2224370.48942  22510277.0214   22510276.2724
        51.0004         43.0004
 04  6 21 16 29  0.0000000  0  9G22G21G18G 3G 6G16G15G29G26
  21465932.5984  -11215597.88443  -8735295.91342  21465932.7074   21465930.3264
        56.0004         48.0004
  20524657.6184   -3245725.14144  -2524821.06842  20524658.9574   20524656.7624
        57.0004         50.0004
  20427427.5094      25281.37543     23722.62242  20427429.3164   20427427.1274
        56.0004         51.0004
  23818028.3724   -6307404.59243  -4863552.39542  23818028.6614   23818028.5614
        48.0004         40.0004
  22161409.8844   12790924.15043   9965388.33342  22161411.6614   22161413.0264
        52.0004         45.0004
  23786583.4524    -552713.69143   -429108.02742  23786583.2204   23786585.1004
        46.0004         39.0004
  21970836.5474  -10790488.12243  -8394703.56142  21970837.4064   21970837.4694
        53.0004         45.0004
  23899625.8594   10819168.59343   8428615.53542  23899627.4564   23899627.5594
        47.0004         41.0004
  22519155.4854    2896401.82943   2260740.43442  22519157.8894   22519158.4684
        50.0004         43.0004
 04  6 21 16 29 20.0000000  0  9G22G21G18G 3G 6G16G15G29G26
  21459429.3194  -11249771.40643  -8761924.61242  21459429.4554   21459427.2284
        56.0004         48.0004
  20524431.2834   -3246917.75844  -2525750.38242  20524432.3664   20524429.9234
        58.0004         50.0004
  20427591.3624      26140.78543     24392.28842  20427592.8984   20427590.6184
        56.0004         51.0004
  23806534.0244   -6367798.82843  -4910612.82742  23806536.5354   23806536.2584
        48.0004         40.0004
  22173044.7984   12852065.37243  10013030.77642  22173046.6274   22173046.9984
        52.0004         45.0004
  23791118.6574    -528881.66743   -410537.64042  23791120.1324   23791119.5084
        45.0004         39.0004
  21962380.4804  -10834919.21543  -8429325.17442  21962381.7074   21962382.3534
        52.0004         45.0004
  23909937.0274   10873357.81143   8470840.87542  23909939.3884   23909941.5134
        48.0004         41.0004
  22528084.7134    2943313.11543   2297294.69042  22528087.5894   22528087.0274
        51.0004         44.0004
 04  6 21 16 29 40.0000000  0  9G22G21G18G 3G 6G16G15G29G26
  21452956.1074  -11283790.07243  -8788432.64142  21452956.2494   21452953.7844
        56.0004         48.0004
  20524224.6434   -3247999.86244  -2526593.58942  20524226.3304   20524224.1424
        57.0004         50.0004
  20427786.2724      27165.17343     25190.51142  20427787.8564   20427785.3874
        56.0004         51.0004
  23795063.1134   -6428078.83343  -4957584.26342  23795066.4774   23795065.0334
        47.0004         40.0004
  22184704.9724   12913341.78443  10060778.55742  22184707.2014   22184707.6794
        52.0004         45.0004
  23795686.9364    -504868.99243   -391826.51242  23795688.0014   23795689.0084
        46.0004         39.0004
  21953934.4074  -10879308.86343  -8463914.48842  21953935.2544   21953935.1454
        53.0004         45.0004
  23920279.2044   10927699.66243   8513185.12742  23920281.4254   23920280.0974
        49.0004         41.0004
  22537055.6174    2990460.69443   2334033.02142  22537057.9514   22537059.3554
        50.0004         44.0004
 04  6 21 16 30  0.0000000  0  9G22G21G18G 3G 6G16G15G29G26
  21446512.1154  -11317654.83843  -8814820.74642  21446512.1264   21446509.6584
        56.0004         48.0004
  20524039.6134   -3248972.09144  -2527351.18142  20524041.5334   20524038.9184
        58.0004         50.0004
  20428011.8444      28353.15843     26116.21842  20428013.9284   20428011.7974
        56.0004         51.0004
  23783614.2024   -6488244.81743  -5004466.85642  23783616.2174   23783617.0334
        46.0004         40.0004
  22196391.4604   12974751.76643  10108630.42742  22196393.2534   22196393.8304
        52.0004         45.0004
  23800291.3824    -480677.18043   -372975.79742  23800293.3374   23800293.3914
        46.0004         39.0004
  21945494.7924  -10923657.68943  -8498471.99942  21945495.4824   21945495.7994
        53.0004         46.0004
  23930648.3004   10982192.63843   8555647.18542  23930648.2594   23930650.2354
        48.0004         41.0004
  22546072.4034    3037842.87243   2370954.15642  22546074.7474   22546073.7814
        51.0004         44.0004
 04  6 21 16 30 20.0000000  0  9G22G21G18G 3G 6G16G15G29G26
  21440097.7154  -11351361.21444  -8841085.43742  21440098.0674   21440095.5014
        57.0004         49.0004
  20523876.9734   -3249829.60244  -2528019.38642  20523878.3784   20523876.0914
        58.0004         50.0004
  20428270.1614      29709.14943     27172.82342  20428271.4304   20428269.9024
        56.0004         51.0004
  23772187.6854   -6548291.52743  -5051256.50342  23772186.3724   23772190.1324
        46.0004         40.0004
  22208103.3624   13036299.24243  10156589.42942  22208105.4364   22208105.7984
        52.0004         45.0004
  23804929.1744    -456302.55443   -353982.64142  23804930.3704   23804932.1784
        45.0004         39.0004
  21937063.8834  -10967960.97843  -8532994.02642  21937064.8054   21937065.7834
        53.0004         46.0004
  23941047.9134   11036840.39243   8598229.81542  23941052.0404   23941048.5814
        48.0004         40.0004
  22555134.0154    3085463.50043   2408061.11142  22555134.9134   22555135.0224
        51.0004         43.0004
 04  6 21 16 30 40.0000000  0  9G22G21G18G 3G 6G16G15G29G26
  21433712.3004  -11384917.02843  -8867232.80142  21433712.9834   21433709.6434
        56.0004         48.0004
  20523734.0394   -3250579.98344  -2528604.10342  20523735.6534   20523732.9594
        58.0004         50.0004
  20428558.7104      31224.85743     28353.89842  20428560.1304   20428558.3534
        56.0004         51.0004
  23760782.2324   -6608226.05243  -5097958.69742  23760784.3374   23760782.8654
        46.0004         39.0004
  22219840.3154   13097975.57243  10204648.84142  22219842.2224   22219842.7634
        52.0004         45.0004
  23809600.4264    -431753.62643   -334853.64842  23809603.9174   23809602.8324
        45.0004         39.0004
  21928641.0054  -11012226.37143  -8567486.51542  21928641.2494   21928643.1384
        53.0004         46.0004
  23951474.3064   11091634.38843   8640926.39442  23951475.4284   23951476.4254
        47.0004         40.0004
  22564240.3354    3133313.76043   2445347.00042  22564242.8334   22564242.0224
        51.0004         44.0004
 04  6 21 16 31  0.0000000  0  9G22G21G18G 3G 6G16G15G29G26
  21427356.5144  -11418316.39943  -8893258.26642  21427357.0724   21427354.2474
        56.0004         48.0004
  20523612.0824   -3251217.18344  -2529100.63742  20523614.0214   20523611.5654
        57.0004         50.0004
  20428878.5934      32905.82543     29663.74242  20428880.1504   20428878.1324
        56.0004         51.0004
  23749400.2404   -6668041.88643  -5144568.43142  23749399.7374   23749400.5464
        47.0004         40.0004
  22231602.5524   13159786.12543  10252812.85242  22231603.8004   22231604.9524
        52.0004         45.0004
  23814307.6604    -407024.95043   -315584.60242  23814308.3444   23814309.3194
        46.0004         39.0004
  21920225.4614  -11056447.63643  -8601944.62942  21920227.9294   21920227.3354
        53.0004         46.0004
  23961930.4234   11146579.66343   8683740.89742  23961932.4564   23961933.6854
        47.0004         40.0004
  22573390.4554    3181398.98143   2482815.95342  22573392.2484   22573392.8634
        51.0004         44.0004
 04  6 21 16 31 20.0000000  0  9G22G21G18G 3G 6G16G15G29G26
  21421030.8394  -11451557.69543  -8919160.55642  21421031.3984   21421028.7594
        56.0004         48.0004
  20523513.5204   -3251739.33644  -2529507.51742  20523514.8354   20523512.6154
        57.0004         50.0004
  20429230.1314      34753.18243     31103.23742  20429231.7244   20429229.5924
        56.0004         51.0004
  23738040.3114   -6727736.59243  -5191083.81142  23738041.6784   23738042.9754
        46.0004         39.0004
  22243390.2464   13221731.68443  10301082.05742  22243391.3004   22243393.0304
        52.0004         45.0004
  23819046.8314    -382115.76943   -296174.89142  23819049.2824   23819048.3954
        46.0004         39.0004
  21911818.6764  -11100623.00543  -8636366.98042  21911819.6104   21911820.9904
        53.0004         46.0004
  23972414.6244   11201677.27043   8726674.09242  23972416.1614   23972415.5684
        48.0004         40.0004
  22582585.8874    3229719.83643   2520468.54142  22582588.0224   22582586.3754
        51.0004         44.0004
 04  6 21 16 31 40.0000000  0  9G22G21G18G 3G 6G16G15G29G26
  21414733.7844  -11484649.29843  -8944946.19542  21414734.1264   21414731.9134
        56.0004         49.0004
  20523434.3044   -3252154.45544  -2529830.99642  20523435.7494   20523433.6044
        57.0004         50.0004
  20429611.5774      36758.63143     32665.92042  20429613.2964   20429611.1544
        56.0004         51.0004
  23726703.2424   -6787317.69643  -5237510.62742  23726703.2524   23726704.7134
        46.0004         39.0004
  22255202.1044   13283803.39443  10349449.55942  22255203.9184   22255204.0484
        52.0004         45.0004
  23823819.5294    -357035.04943   -276631.51942  23823821.3864   23823821.6244
        46.0004         39.0004
  21903419.5534  -11144760.48843  -8670759.79842  21903420.7214   21903422.1654
        53.0004         46.0004
  23982926.7804   11256917.98643   8769718.78442  23982929.7444   23982929.0444
        48.0004         40.0004
  22591824.0034    3278267.23843   2558297.67342  22591826.0274   22591825.1254
        51.0004         44.0004
 04  6 21 16 32  0.0000000  0  9G22G21G18G 3G 6G16G15G29G26
  21408466.6664  -11517581.92143  -8970607.95542  21408467.4774   21408464.5414
        56.0004         48.0004
  20523377.5244   -3252453.06144  -2530063.68642  20523378.9954   20523376.5594
        57.0004         51.0004
  20430025.1864      38930.79744     34358.51242  20430026.7214   20430024.4974
        57.0004         51.0004
  23715388.7164   -6846775.20643  -5283841.14242  23715389.1174   23715389.1524
        47.0004         40.0004
  22267038.7194   13346010.01143  10397922.18842  22267041.2784   22267042.7774
        52.0004         45.0004
  23828626.5074    -331774.07843   -256947.71442  23828628.2554   23828628.8254
        46.0004         39.0004
  21895030.0794  -11188850.54743  -8705115.67342  21895031.1964   21895031.4724
        53.0004         46.0004
  23993467.6944   11312310.57343   8812881.82542  23993469.4714   23993471.2184
        47.0004         39.0004
  22601106.5724    3327049.73143   2596309.97942  22601108.9224   22601107.8804
        51.0004         44.0004
 04  6 21 16 32 20.0000000  0  9G22G21G18G 3G 6G16G15G29G26
  21402229.2094  -11550361.82143  -8996150.71342  21402229.4714   21402226.5274
        56.0004         48.0004
  20523341.6694   -3252641.31144  -2530210.38142  20523343.3014   20523340.7864
        58.0004         50.0004
  20430468.6814      41263.24743     36176.00342  20430470.6504   20430468.4844
        56.0004         51.0004
  23704095.9374   -6906114.50443  -5330079.56642  23704097.6024   23704098.7924
        46.0004         40.0004
  22278901.6684   13408344.54643  10446494.47742  22278903.2904   22278904.3804
        52.0004         45.0004
  23833466.7734    -306339.82143   -237128.87242  23833467.5834   23833469.8534
        46.0004         39.0004
  21886648.2734  -11232899.27043  -8739439.33442  21886648.3134   21886649.0314
        53.0004         46.0004
  24004035.9414   11367848.01443   8856157.72542  24004039.2734   24004040.3454
        46.0004         39.0004
  22610432.7354    3376060.47343   2634500.12042  22610434.6434   22610435.5084
        51.0004         44.0004
 04  6 21 16 32 40.0000000  0  9G22G21G18G 3G 6G16G15G29G26
  21396021.2524  -11582984.04243  -9021570.59842  21396021.4654   21396018.4164
        56.0004         49.0004
  20523327.9604   -3252713.89844  -2530266.94342  20523329.3644   20523327.0954
        57.0004         50.0004
  20430944.2254      43760.50844     38121.91642  20430945.9734   20430943.5894
        57.0004         51.0004
  23692828.1784   -6965330.15043  -5376221.60742  23692829.2754   23692829.7394
        47.0004         40.0004
  22290788.7904   13470811.19743  10495169.73942  22290789.8474   22290790.9154
        52.0004         45.0004
  23838339.9724    -280728.05043   -217171.69142  23838340.9244   23838341.9824
        46.0004         39.0004
  21878274.5674  -11276901.52643  -8773726.78642  21878275.7804   21878276.2594
        53.0004         46.0004
  24014633.2294   11423534.31443   8899549.63242  24014634.0004   24014633.0504
        46.0004         38.0004
  22619803.1894    3425303.27443   2672871.11842  22619805.1954   22619805.7574
        51.0004         43.0004
 04  6 21 16 33  0.0000000  0  9G22G21G18G 3G 6G16G15G29G26
  21389842.2574  -11615453.81144  -9046871.69742  21389842.8954   21389840.0694
        57.0004         49.0004
  20523335.4024   -3252675.53244  -2530237.05542  20523336.3844   20523334.3914
        57.0004         50.0004
  20431449.4584      46416.90243     40191.82842  20431451.0704   20431448.9574
        56.0004         51.0004
  23681581.8344   -7024426.56343  -5422270.74742  23681582.7444   23681583.4294
        47.0004         40.0004
  22302699.4084   13533404.07643  10543943.35142  22302700.5124   22302702.2064
        52.0004         45.0004
  23843247.4924    -254944.70943   -197080.81042  23843248.6734   23843249.6924
        46.0004         39.0004
  21869908.8234  -11320862.25243  -8807981.87742  21869909.8314   21869910.7464
        53.0004         46.0004
  24025257.4674   11479363.60043   8943052.96842  24025257.9194   24025258.4544
        46.0004         38.0004
  22629217.3094    3474772.25643   2711418.34742  22629219.4344   22629219.9364
        51.0004         44.0004
 04  6 21 16 33 20.0000000  0  9G22G21G18G 3G 6G16G15G29G26
  21383693.2324  -11647767.89244  -9072051.47442  21383693.6404   21383690.9424
        57.0004         49.0004
  20523364.4894   -3252522.66744  -2530117.95142  20523365.9984   20523363.9084
        57.0004         51.0004
  20431985.7064      49235.56143     42388.18542  20431987.2304   20431985.5894
        56.0004         51.0004
  23670359.2834   -7083399.74443  -5468223.85642  23670361.4974   23670361.0184
        47.0004         40.0004
  22314635.9844   13596125.96243  10592817.49242  22314637.7484   22314638.0834
        52.0004         45.0004
  23848186.6954    -228986.97543   -176854.05142  23848190.2614   23848189.5424
        47.0004         40.0004
  21861551.9124  -11364777.75343  -8842201.72742  21861553.3034   21861554.0284
        53.0004         46.0004
  24035908.6134   11535338.48943   8986669.74842  24035911.9474   24035909.5194
        46.0004         38.0004
  22638674.5904    3524470.10443   2750143.90042  22638677.5134   22638677.3384
        51.0004         44.0004
 04  6 21 16 33 40.0000000  0  9G22G21G18G 3G 6G16G15G29G26
  21377573.0994  -11679927.52443  -9097110.90742  21377573.5434   21377571.4304
        56.0004         49.0004
  20523415.3314   -3252256.34344  -2529910.42642  20523416.4354   20523414.1964
        57.0004         50.0004
  20432553.1744      52214.96643     44709.79842  20432554.5824   20432552.5184
        56.0004         51.0004
  23659161.6714   -7142250.10343  -5514081.27342  23659160.9714   23659163.1064
        47.0004         40.0004
  22326594.8714   13658974.89443  10641790.62242  22326596.4444   22326597.3944
        52.0004         45.0004
  23853158.4824    -202856.86043   -156492.95042  23853161.5684   23853161.3004
        47.0004         40.0004
  21853203.5344  -11408649.06743  -8876387.14842  21853204.8684   21853205.9984
        53.0004         46.0004
  24046587.4254   11591456.97743   9030398.43542  24046590.3894   24046591.3134
        44.0004         37.0004
  22648175.3374    3574394.79543   2789046.23342  22648176.7754   22648176.6774
        51.0004         44.0004
 04  6 21 16 34  0.0000000  0  9G22G21G18G 3G 6G16G15G29G26
  21371482.8724  -11711933.00743  -9122050.21642  21371482.9834   21371480.8184
        56.0004         49.0004
  20523487.1824   -3251876.72744  -2529614.62742  20523488.9604   20523486.5184
        58.0004         50.0004
  20433150.2304      55354.32443     47156.05042  20433151.7314   20433149.7734
        56.0004         51.0004
  23647985.7294   -7200977.21043  -5559842.64642  23647987.2644   23647987.5514
        47.0004         40.0004
  22338579.1834   13721949.91543  10690861.99342  22338579.7384   22338581.9424
        51.0004         45.0004
  23858163.9604    -176555.38143   -135998.31142  23858165.6034   23858167.1594
        47.0004         40.0004
  21844864.2154  -11452476.16543  -8910538.11042  21844864.8974   21844865.8154
        53.0004         46.0004
  24057291.7114   11647718.07443   9074238.20642  24057293.7444   24057296.2574
        43.0004         37.0004
  22657718.2474    3624545.03843   2828124.32542  22657719.9754   22657720.7524
        51.0004         44.0004
 04  6 21 16 34 20.0000000  0  9G22G21G18G 3G 6G16G15G29G26
  21365422.0904  -11743782.00743  -9146867.60942  21365422.2424   21365420.1014
        56.0004         49.0004
  20523581.7904   -3251381.13844  -2529228.47042  20523583.0364   20523580.8674
        57.0004         51.0004
  20433778.7284      58655.81743     49728.63642  20433780.1204   20433778.1634
        56.0004         51.0004
  23636834.3404   -7259578.00043  -5605505.60042  23636834.9544   23636838.0424
        47.0004         40.0004
  22350587.2174   13785052.67843  10740032.89642  22350588.6134   22350590.1424
        51.0004         45.0004
  23863202.2034    -150080.80143   -115368.80642  23863204.7564   23863203.5664
        47.0004         40.0004
  21836532.0234  -11496256.48643  -8944652.63042  21836533.3654   21836534.3864
        53.0004         46.0004
  24068027.6104   11704123.49943   9118190.47342  24068029.9524   24068028.6814
        46.0004         38.0004
  22667305.1144    3674922.49543   2867379.47442  22667307.3484   22667307.1284
        51.0004         43.0004
 04  6 21 16 34 40.0000000  0  9G22G21G18G 3G 6G16G15G29G26
  21359390.7904  -11775477.25644  -9171565.19842  21359391.1714   21359388.3254
        57.0004         49.0004
  20523697.2094   -3250772.04844  -2528753.85842  20523699.1184   20523696.7604
        58.0004         50.0004
  20434437.2804      62116.44843     52425.22842  20434438.6704   20434436.7364
        56.0004         51.0004
  23625706.8314   -7318054.46243  -5651071.65242  23625708.9714   23625709.0884
        47.0004         40.0004
  22362619.2024   13848279.86643  10789300.76442  22362621.1894   22362621.5984
        51.0004         44.0004
  23868272.5994    -123436.53443    -94607.08242  23868274.3804   23868274.5154
        47.0004         40.0004
  21828209.9114  -11539992.36643  -8978732.51742  21828210.5634   21828210.8974
        53.0004         46.0004
  24078788.7504   11760669.67643   9162252.42042  24078789.7054   24078790.2364
        46.0004         39.0004
  22676934.1894    3725523.68743   2906808.94242  22676935.8184   22676935.2944
        50.0004         43.0004
 04  6 21 16 35  0.0000000  0  9G22G21G18G 3G 6G16G15G29G26
  21353388.2524  -11807019.34943  -9196143.44042  21353388.9274   21353386.1674
        56.0004         49.0004
  20523834.8724   -3250049.92444  -2528191.17342  20523836.4694   20523834.0484
        57.0004         50.0004
  20435125.8024      65734.86143     55244.76842  20435127.0514   20435125.2634
        56.0004         51.0004
  23614602.3244   -7376406.52843  -5696540.79242  23614603.2714   23614604.4964
        47.0004         40.0004
  22374673.9844   13911630.07243  10838664.48942  22374675.1294   22374677.4084
        51.0004         44.0004
  23873374.7304     -96624.07343    -73714.30042  23873376.7044   23873376.3204
        47.0004         40.0004
  21819895.5574  -11583684.40843  -9012778.24242  21819896.6344   21819897.6044
        53.0004         46.0004
  24089574.9964   11817355.10543   9206422.83742  24089577.7114   24089577.3944
        46.0004         39.0004
  22686605.2694    3776347.04043   2946411.52742  22686606.7314   22686607.8584
        49.0004         43.0004
 04  6 21 16 35 20.0000000  0  9G22G21G18G 3G 6G16G15G29G26
  21347416.3834  -11838403.45443  -9220598.57442  21347416.7994   21347414.0794
        56.0004         49.0004
  20523994.9804   -3249209.54844  -2527536.34242  20523996.0944   20523994.1754
        57.0004         50.0004
  20435845.2334      69515.98843     58191.09842  20435846.8674   20435844.8224
        56.0004         51.0004
  23603523.1754   -7434628.45343  -5741908.54242  23603523.4284   23603526.0924
        48.0004         40.0004
  22386753.0124   13975107.63143  10888127.43842  22386754.9844   22386756.8864
        51.0004         44.0004
  23878510.4004     -69639.09343    -52687.10742  23878512.1294   23878512.1364
        48.0004         40.0004
  21811590.1784  -11627327.37043  -9046785.71842  21811591.4604   21811592.0474
        53.0004         46.0004
  24100390.0134   11874184.05843   9250705.14142  24100392.2494   24100391.6924
        46.0004         39.0004
  22696319.1094    3827396.70043   2986190.45442  22696321.1484   22696322.8894
        50.0004         43.0004
 04  6 21 16 35 40.0000000  0  9G22G21G18G 3G 6G16G15G29G26
  21341473.0104  -11869635.61843  -9244935.30942  21341473.1934   21341470.7884
        56.0004         49.0004
  20524176.2924   -3248256.72744  -2526793.89442  20524177.8594   20524175.2994
        58.0004         50.0004
  20436594.7514      73453.26643     61259.10242  20436596.0224   20436593.9804
        56.0004         51.0004
  23592468.4674   -7492725.67743  -5787179.07242  23592468.6454   23592470.4914
        48.0004         40.0004
  22398856.2914   14038705.78243  10937684.37042  22398857.1444   22398858.7794
        51.0004         44.0004
  23883677.3364     -42488.36543    -31530.75942  23883677.4184   23883679.1754
        48.0004         40.0004
  21803293.1764  -11670926.95343  -9080759.41042  21803295.4994   21803294.5334
        53.0004         46.0004
  24111228.0514   11931149.77843   9295093.99142  24111230.5184   24111230.8224
        45.0004         39.0004
  22706075.6924    3878665.92743   3026140.45042  22706077.3894   22706078.4554
        50.0004         43.0004
 04  6 21 16 36  0.0000000  0  9G22G21G18G 3G 6G16G15G29G26
  21335560.0654  -11900709.10644  -9269148.40742  21335560.3814   21335557.5814
        57.0004         49.0004
  20524380.5384   -3247184.16744  -2525958.14342  20524382.0314   20524379.6514
        58.0004         50.0004
  20437374.7074      77553.31443     64453.93842  20437376.4314   20437374.1494
        56.0004         51.0004
  23581438.3174   -7550690.55543  -5832346.51042  23581439.0474   23581439.1714
        48.0004         41.0004
  22410982.0544   14102430.59243  10987339.99242  22410983.4564   22410984.6834
        51.0004         44.0004
  23888875.6034     -15165.73643    -10240.46742  23888877.7714   23888880.6074
        47.0004         40.0004
  21795006.6654  -11714476.12243  -9114693.80142  21795007.5944   21795008.7874
        53.0004         46.0004
  24122095.5384   11988258.25243   9339594.07042  24122097.4714   24122099.1384
        45.0004         39.0004
  22715874.8604    3930160.67343   3066266.20442  22715876.1674   22715876.8584
        50.0004         43.0004
 04  6 21 16 36 20.0000000  0  9G22G21G18G 3G 6G16G15G29G26
  21329675.8864  -11931630.18444  -9293242.74542  21329676.1554   21329673.5944
        57.0004         49.0004
  20524606.0284   -3245998.17044  -2525033.99742  20524607.2544   20524605.2524
        57.0004         50.0004
  20438184.4414      81809.23243     67770.23842  20438186.2604   20438184.0094
        56.0004         51.0004
  23570431.7084   -7608528.76743  -5877415.23942  23570433.3814   23570433.8314
        48.0004         41.0004
  22423131.4544   14166275.16043  11037088.93542  22423132.7584   22423134.1484
        51.0004         44.0004
  23894107.4404      12321.69143     11178.22542  23894107.4054   23894107.5554
        47.0004         40.0004
  21786728.0374  -11757980.87543  -9148593.58942  21786728.6964   21786729.1794
        53.0004         46.0004
  24132989.2184   12045502.42843   9384199.87942  24132991.5194   24132992.2694
        46.0004         40.0004
  22725716.3544    3981873.62243   3106561.98642  22725717.5334   22725717.9644
        50.0004         43.0004
 04  6 21 16 36 40.0000000  0  9G22G21G18G 3G 6G16G15G29G26
  21323821.4684  -11962396.42044  -9317216.43042  21323821.9744   21323818.9854
        57.0004         49.0004
  20524853.9014   -3244695.77044  -2524019.15442  20524855.2004   20524853.0554
        57.0004         50.0004
  20439024.8204      86223.52643     71209.93942  20439026.5954   20439024.0804
        56.0004         51.0004
  23559449.1234   -7666236.85243  -5922382.58042  23559452.3724   23559453.2614
        47.0004         41.0004
  22435304.3504   14230241.31943  11086932.61142  22435305.4094   22435307.1464
        51.0004         44.0004
  23899368.5974      39976.03643     32726.98242  23899370.3074   23899371.4224
        47.0004         40.0004
  21778458.2294  -11801438.32043  -9182456.50742  21778459.1794   21778459.3244
        53.0004         46.0004
  24143909.1404   12102884.26143   9428912.98742  24143911.9634   24143911.3124
        45.0004         40.0004
  22735599.1264    4033806.79443   3147029.35942  22735599.2294   22735600.4514
        50.0004         43.0004
 04  6 21 16 37  0.0000000  0  9G22G21G18G 3G 6G16G15G29G26
  21317996.0714  -11993008.92044  -9341070.31442  21317996.6604   21317993.6784
        57.0004         49.0004
  20525123.4934   -3243277.87944  -2522914.31242  20525125.1324   20525122.7344
        57.0004         50.0004
  20439894.3044      90794.57643     74771.79542  20439895.8904   20439894.0024
        56.0004         51.0004
  23548492.7314   -7723815.22143  -5967248.82342  23548494.0004   23548494.9164
        48.0004         41.0004
  22447499.3204   14294327.46043  11136869.78442  22447500.7294   22447501.6294
        51.0004         44.0004
  23904662.8394      67795.32343     54404.29442  23904665.4974   23904666.2174
        47.0004         40.0004
  21770197.9144  -11844849.18143  -9216283.12342  21770198.7434   21770198.8904
        54.0004         46.0004
  24154854.7434   12160401.74243   9473731.76742  24154857.4554   24154857.2134
        47.0004         40.0004
  22745521.6384    4085958.20743   3187666.77242  22745522.5654   22745523.7514
        49.0004         43.0004
 04  6 21 16 37 20.0000000  0  9G22G21G18G 3G 6G16G15G29G26
  21312200.4824  -12023464.14044  -9364801.62942  21312200.9864   21312198.1144
        57.0004         49.0004
  20525416.1194   -3241740.43844  -2521716.31342  20525417.7104   20525415.6024
        57.0004         50.0004
  20440794.6964      95525.45743     78458.19342  20440796.4314   20440794.1814
        56.0004         51.0004
  23537561.8224   -7781259.58743  -6012010.66042  23537563.7264   23537564.0834
        49.0004         41.0004
  22459717.8934   14358536.39843  11186902.61642  22459719.6294   22459720.2334
        51.0004         44.0004
  23909989.0984      95782.39543     76212.32342  23909990.5174   23909991.0044
        47.0004         40.0004
  21761946.2244  -11888209.73343  -9250070.55242  21761947.4154   21761947.8644
        54.0004         46.0004
  24165825.1474   12218057.74143   9518658.48142  24165828.2294   24165827.6204
        47.0004         40.0004
  22755488.2194    4138330.62243   3228476.42342  22755490.4034   22755491.6074
        50.0004         43.0004
 04  6 21 16 37 40.0000000  0  9G22G21G18G 3G 6G16G15G29G26
  21306433.4424  -12053768.90644  -9388415.69342  21306433.9264   21306431.3314
        57.0004         49.0004
  20525730.0744   -3240090.14144  -2520430.37942  20525731.6914   20525729.8254
        57.0004         50.0004
  20441723.9784     100409.22443     82263.72042  20441725.5534   20441723.5274
        56.0004         51.0004
  23526655.7764   -7838576.05443  -6056672.85042  23526657.9184   23526655.3744
        49.0004         41.0004
  22471958.1334   14422860.56543  11237025.23942  22471960.2034   22471961.8434
        51.0004         44.0004
  23915344.7924     123929.78043     98145.29642  23915347.3384   23915347.5084
        47.0004         40.0004
  21753703.3274  -11931526.44043  -9283823.80842  21753705.4244   21753704.6974
        54.0004         46.0004
  24176821.9854   12275844.73843   9563687.29342  24176824.3654   24176825.5174
        47.0004         40.0004
  22765496.5084    4190916.36843   3269452.29642  22765497.1014   22765496.7094
        50.0004         43.0004
 04  6 21 16 38  0.0000000  0  9G22G21G18G 3G 6G16G15G29G26
  21300696.6344  -12083917.11944  -9411907.78042  21300697.2464   21300694.2664
        57.0004         49.0004
  20526067.0264   -3238320.76144  -2519051.65642  20526068.3844   20526066.2364
        57.0004         50.0004
  20442683.8654     105451.54343     86192.80142  20442685.2304   20442683.2414
        56.0004         51.0004
  23515773.4534   -7895757.78543  -6101230.03342  23515775.4834   23515775.8604
        49.0004         41.0004
  22484221.7564   14487305.64843  11287242.11242  22484224.1294   22484224.6494
        51.0004         44.0004
  23920733.2254     152242.92843    120207.45242  23920734.6484   23920735.6764
        47.0004         40.0004
  21745469.3894  -11974792.96443  -9317537.96442  21745471.5854   21745471.4624
        54.0004         46.0004
  24187843.5954   12333768.24843   9608822.45942  24187845.8114   24187847.1034
        46.0004         40.0004
  22775543.2884    4243720.75843   3310598.54242  22775547.0904   22775545.2754
        50.0004         42.0004
 04  6 21 16 38 20.0000000  0 10G22G21G18G 3G 6G14G16G15G29G26
  21294987.3924  -12113917.92544  -9435285.00642  21294988.1954   21294985.5324
        57.0004         49.0004
  20526424.5164   -3236440.96944  -2517586.89442  20526426.1404   20526423.9664
        57.0004         50.0004
  20443671.5724     110643.05843     90238.13142  20443673.3684   20443671.1444
        56.0004         51.0004
  23504916.1034   -7952813.11743  -6145688.71942  23504917.2294   23504917.3124
        49.0004         41.0004
  22496506.6294   14551861.68543  11337545.44942  22496508.5964   22496509.3854
        51.0004         44.0004
  24682697.0764   -2712734.96353  -2015938.43252  24682699.1084   24682702.8064
        44.0004         37.0004
  23926150.5194     180712.02243    142391.11142  23926152.3834   23926152.2524
        47.0004         40.0004
  21737244.1414  -12018018.15943  -9351219.92242  21737245.8054   21737246.3494
        54.0004         46.0004
  24198891.8434   12391818.31543   9654056.26542  24198893.7274   24198893.4664
        47.0004         40.0004
  22785632.2164    4296733.99343   3351907.53042  22785634.7914   22785633.1584
        50.0004         43.0004
 04  6 21 16 38 40.0000000  0 10G22G21G18G 3G 6G14G16G15G29G26
  21289309.2724  -12143758.39844  -9458537.30042  21289309.7894   21289306.7664
        57.0004         49.0004
  20526806.0004   -3234437.49444  -2516025.75142  20526807.4594   20526804.9854
        57.0004         50.0004
  20444690.1284     115996.36143     94409.53142  20444691.6934   20444689.6214
        56.0004         51.0004
  23494084.8224   -8009728.29443  -6190038.21342  23494086.6194   23494088.9764
        48.0004         41.0004
  22508815.1844   14616541.17143  11387944.98642  22508816.8304   22508816.9744
        51.0004         44.0004
  24668267.9074   -2788562.84543  -2075025.00442  24668269.5454   24668274.0994
        45.0004         37.0004
  23931600.0464     209349.33743    164705.86042  23931601.2054   23931602.0244
        47.0004         40.0004
  21729029.3364  -12061188.64243  -9384859.23442  21729030.2064   21729031.6464
        53.0004         46.0004
  24209965.1924   12450007.38643   9699398.37542  24209965.6324   24209967.4814
        48.0004         41.0004
  22795763.5504    4349968.15043   3393388.65042  22795764.0194   22795764.0674
        51.0004         44.0004
 04  6 21 16 39  0.0000000  0 10G22G21G18G 3G 6G14G16G15G29G26
  21283659.5164  -12173446.16744  -9481670.60842  21283660.1414   21283657.1634
        57.0004         49.0004
  20527209.3524   -3232317.83244  -2514374.07542  20527210.8634   20527208.6594
        57.0004         50.0004
  20445738.2434     121503.45643     98700.78042  20445739.7384   20445737.3494
        56.0004         51.0004
  23483279.8114   -8066510.42243  -6234284.02142  23483282.8044   23483283.2374
        48.0004         41.0004
  22521144.4464   14681335.50943  11438434.00042  22521146.7844   22521147.3374
        51.0004         44.0004
  24653838.2624   -2864392.54743  -2134112.99142  24653840.1894   24653844.9934
        44.0004         37.0004
  23937079.5394     238146.42443    187145.09942  23937081.4114   23937081.8464
        46.0004         40.0004
  21720822.8724  -12104311.82543  -9418461.69842  21720824.9904   21720824.7564
        54.0004         46.0004
  24221061.5064   12508326.63143   9744841.91542  24221063.2024   24221064.7614
        47.0004         41.0004
  22805931.9584    4403414.67543   3435035.27142  22805934.0434   22805935.5374
        49.0004         43.0004
 04  6 21 16 39 20.0000000  0 10G22G21G18G 3G 6G14G16G15G29G26
  21278040.2524  -12202976.09944  -9504680.92142  21278040.6434   21278038.0054
        57.0004         49.0004
  20527635.4524   -3230076.43444  -2512627.53642  20527637.4114   20527635.1064
        57.0004         50.0004
  20446816.4004     127169.08043    103115.54442  20446817.8404   20446816.0174
        56.0004         51.0004
  23472500.6474   -8123153.25443  -6278421.28342  23472502.4774   23472504.3314
        48.0004         41.0004
  22533497.8974   14746249.40943  11489016.16242  22533499.2794   22533500.7744
        51.0004         44.0004
  24639408.2754   -2940218.26243  -2193197.86542  24639410.8044   24639414.7134
        45.0004         37.0004
  23942591.8374     267107.79443    209712.35842  23942590.5834   23942592.6194
        47.0004         40.0004
  21712627.9644  -12147382.17543  -9452022.99242  21712628.7614   21712629.3564
        54.0004         46.0004
  24232185.8684   12566780.83043   9790390.63642  24232187.4284   24232189.3364
        48.0004         42.0004
  22816143.8244    4457078.03443   3476850.84542  22816146.1964   22816147.5144
        50.0004         43.0004
 04  6 21 16 39 40.0000000  0 10G22G21G18G 3G 6G14G16G15G29G26
  21272450.1464  -12232353.15544  -9527572.10742  21272450.5254   21272447.8524
        57.0004         49.0004
  20528084.7524   -3227717.89744  -2510789.72042  20528086.0464   20528083.8994
        57.0004         50.0004
  20447923.6764     132987.90843    107649.69742  20447925.1914   20447923.2884
        56.0004         51.0004
  23461749.4644   -8179661.10843  -6322453.37442  23461749.4134   23461750.2134
        49.0004         41.0004
  22545872.0564   14811277.08043  11539687.00042  22545873.8204   22545874.2834
        51.0004         43.0004
  24624980.0484   -3016044.03043  -2252282.79842  24624981.9094   24624984.5734
        46.0004         37.0004
  23948132.8474     296227.82143    232403.27142  23948133.7504   23948134.3074
        48.0004         40.0004
  21704440.3124  -12190404.44543  -9485546.81342  21704441.4194   21704441.6804
        54.0004         46.0004
  24243333.7564   12625364.21643   9836039.99942  24243336.7204   24243335.7084
        47.0004         41.0004
  22826396.4194    4510952.37843   3518830.81942  22826398.6924   22826398.9684
        49.0004         43.0004
 04  6 21 16 40  0.0000000  0 10G22G21G18G 3G 6G14G16G15G29G26
  21266889.2474  -12261575.67244  -9550342.87842  21266889.6164   21266886.6054
        57.0004         49.0004
  20528556.1144   -3225240.12544  -2508858.99242  20528557.5674   20528555.4834
        57.0004         50.0004
  20449060.2384     138961.43643    112304.39842  20449061.9074   20449059.9534
        56.0004         51.0004
  23451020.8594   -8236031.40043  -6366378.27242  23451022.8554   23451024.2934
        48.0004         41.0004
  22558267.6344   14876419.70743  11590447.38142  22558269.9724   22558271.1264
        50.0004         44.0004
  24610550.6614   -3091867.21343  -2311365.70342  24610550.4984   24610556.3614
        47.0004         37.0004
  23953703.9674     325507.55543    255218.63342  23953705.6694   23953708.1974
        47.0004         40.0004
  21696262.8584  -12233376.38243  -9519031.42942  21696264.1174   21696263.8404
        54.0004         46.0004
  24254505.9724   12684077.87543   9881790.86442  24254507.1914   24254510.4474
        47.0004         41.0004
  22836687.6524    4565038.75443   3560976.01242  22836690.7424   22836692.1454
        49.0004         43.0004
 04  6 21 16 40 20.0000000  0 10G22G21G18G 3G 6G14G16G15G29G26
  21261357.6084  -12290643.67444  -9572993.23642  21261358.1814   21261355.3634
        57.0004         49.0004
  20529050.4404   -3222642.85244  -2506835.14342  20529051.8344   20529049.5174
        57.0004         50.0004
  20450226.2474     145089.61143    117079.59542  20450227.6024   20450225.9914
        56.0004         51.0004
  23440320.2234   -8292263.39943  -6410195.41342  23440321.8524   23440322.1364
        48.0004         41.0004
  22570686.8584   14941676.70443  11641296.87842  22570688.9444   22570689.8874
        50.0004         43.0004
  24596122.7284   -3167687.11343  -2370446.05342  24596122.9974   24596129.2894
        45.0004         37.0004
  23959306.7814     354946.37143    278157.94742  23959309.2564   23959309.4594
        47.0004         40.0004
  21688095.4904  -12276297.68543  -9552476.57242  21688096.9554   21688096.3504
        54.0004         46.0004
  24265704.5254   12742921.03943   9927642.65542  24265705.9564   24265708.0474
        47.0004         41.0004
  22847021.1864    4619336.28943   3603285.75742  22847023.5304   22847023.7194
        49.0004         42.0004
 04  6 21 16 40 40.0000000  0 10G22G21G18G 3G 6G14G16G15G29G26
  21255854.5524  -12319561.85444  -9595526.85642  21255855.0374   21255852.3604
        57.0004         49.0004
  20529566.4104   -3219930.49144  -2504721.62242  20529567.6624   20529565.7844
        57.0004         50.0004
  20451421.1454     151367.18343    121971.21442  20451422.7074   20451420.5904
        56.0004         51.0004
  23429644.8934   -8348360.96843  -6453907.79742  23429647.6284   23429648.9284
        48.0004         41.0004
  22583125.4264   15007042.75243  11692231.36442  22583127.1804   22583128.6094
        50.0004         43.0004
  24581693.9774   -3243507.46643  -2429526.73442  24581695.9724   24581700.4274
        45.0004         37.0004
  23964937.9414     384538.86143    301217.03742  23964940.0274   23964939.0144
        47.0004         39.0004
  21679936.3414  -12319172.72443  -9585885.67742  21679937.9174   21679937.7664
        54.0004         46.0004
  24276926.0154   12801888.27943   9973591.12242  24276927.2444   24276926.5234
        47.0004         41.0004
  22857392.2704    4673839.54543   3645755.79642  22857393.6284   22857395.8734
        49.0004         42.0004
 04  6 21 16 41  0.0000000  0 10G22G21G18G 3G 6G14G16G15G29G26
  21250382.1494  -12348319.97044  -9617935.75342  21250382.6484   21250379.7084
        57.0004         49.0004
  20530107.0274   -3217092.51044  -2502510.22242  20530108.1244   20530105.9624
        58.0004         50.0004
  20452645.9594     157804.07243    126986.97242  20452647.7474   20452645.6244
        56.0004         51.0004
  23418998.1554   -8404313.35743  -6497507.03442  23419000.8774   23419000.5534
        48.0004         41.0004
  22595586.7004   15072527.44243  11743258.32342  22595587.3074   22595588.9404
        50.0004         43.0004
  24567268.5714   -3319317.34443  -2488599.24542  24567271.2244   24567273.0644
        46.0004         37.0004
  23970598.6364     414294.51443    324403.25342  23970599.9794   23970602.9574
        46.0004         40.0004
  21671788.2154  -12361990.93543  -9619250.50242  21671789.1984   21671790.0854
        54.0004         46.0004
  24288171.5494   12860989.13443  10019643.71542  24288172.1814   24288175.0114
        45.0004         40.0004
  22867805.1234    4728557.92643   3688393.44742  22867808.1384   22867807.5694
        50.0004         43.0004
 04  6 21 16 41 20.0000000  0 10G22G21G18G 3G 6G14G16G15G29G26
  21244938.2404  -12376928.69744  -9640228.24942  21244938.3564   21244935.5014
        57.0004         49.0004
  20530668.4554   -3214139.40244  -2500209.10442  20530670.0294   20530667.5764
        57.0004         50.0004
  20453899.1564     164389.31943    132118.33442  20453900.4714   20453898.6324
        56.0004         51.0004
  23408376.6094   -8460130.30343  -6541000.75842  23408377.3094   23408377.7354
        47.0004         41.0004
  22608068.4634   15138119.47943  11794368.93242  22608070.2784   22608071.5044
        50.0004         43.0004
  24552841.9454   -3395126.60643  -2547671.29842  24552845.1314   24552846.7434
        45.0004         37.0004
  23976290.8984     444202.05243    347707.82142  23976291.6524   23976293.1764
        46.0004         40.0004
  21663649.1544  -12404762.60643  -9652579.05842  21663650.6764   21663651.0734
        54.0004         47.0004
  24299441.9614   12920212.31143  10065791.60442  24299443.1614   24299444.7254
        45.0004         39.0004
  22878257.1534    4783479.99043   3731189.84542  22878257.8864   22878259.5214
        50.0004         43.0004
 04  6 21 16 41 40.0000000  0 10G22G21G18G 3G 6G14G16G15G29G26
  21239523.8774  -12405380.30544  -9662398.30342  21239524.4144   21239521.7064
        57.0004         49.0004
  20531254.0314   -3211063.07944  -2497811.97542  20531255.2124   20531253.2184
        57.0004         50.0004
  20455181.9384     171130.32043    137371.06342  20455183.5844   20455181.5274
        56.0004         51.0004
  23397781.9704   -8515803.29543  -6584382.27742  23397784.5284   23397785.0354
        48.0004         41.0004
  22620572.2534   15203825.80443  11845568.59142  22620573.7204   22620574.5484
        50.0004         43.0004
  24538417.7074   -3470926.63943  -2606736.12342  24538419.9204   24538422.8534
        44.0004         38.0004
  23982013.1584     474268.37043    371136.09842  23982012.9774   23982014.3894
        46.0004         39.0004
  21655520.4764  -12447479.62043  -9685865.01942  21655521.6774   21655522.3094
        54.0004         47.0004
  24310736.6964   12979564.74443  10112040.21142  24310738.2204   24310739.8214
        46.0004         39.0004
  22888747.5314    4838612.50743   3774150.21542  22888749.4204   22888749.4994
        49.0004         42.0004
 04  6 21 16 42  0.0000000  0 10G22G21G18G 3G 6G14G16G15G29G26
  21234138.8684  -12433678.49344  -9684448.81642  21234139.1894   21234136.5314
        57.0004         49.0004
  20531861.9714   -3207866.71144  -2495321.30842  20531863.2734   20531861.5294
        57.0004         50.0004
  20456493.5614     178023.09243    142742.05342  20456495.1664   20456493.0694
        56.0004         51.0004
  23387214.8794   -8571335.17043  -6627653.85142  23387215.6634   23387216.7314
        48.0004         41.0004
  22633096.4134   15269642.28243  11896854.08842  22633097.6934   22633098.5974
        50.0004         43.0004
  24523993.9724   -3546720.35643  -2665796.01242  24523996.5814   24523997.5944
        45.0004         38.0004
  23987763.4744     504489.15343    394684.75442  23987767.3204   23987765.2964
        46.0004         39.0004
  21647401.2704  -12490145.36443  -9719111.03842  21647402.9934   21647402.7274
        54.0004         46.0004
  24322054.3004   13039042.08943  10158386.21742  24322055.1474   24322056.3454
        45.0004         39.0004
  22899278.9674    4893951.22143   3817271.25542  22899281.7634   22899281.0694
        50.0004         43.0004
 04  6 21 16 42 20.0000000  0 10G22G21G18G 3G 6G14G16G15G29G26
  21228783.1644  -12461824.06944  -9706380.40442  21228783.8254   21228780.5284
        57.0004         49.0004
  20532493.6504   -3204550.62444  -2492737.34642  20532494.7514   20532492.6034
        58.0004         50.0004
  20457833.6184     185066.60943    148230.51342  20457835.4614   20457833.4454
        56.0004         51.0004
  23376675.0014   -8626726.06643  -6670815.56542  23376676.2574   23376676.0744
        48.0004         41.0004
  22645641.8904   15335567.44643  11948224.25442  22645642.5904   22645645.4234
        50.0004         43.0004
  24509572.7014   -3622507.68043  -2724850.92342  24509573.1894   24509577.8794
        45.0004         38.0004
  23993543.6174     534863.06943    418352.71542  23993545.3994   23993545.0844
        46.0004         39.0004
  21639292.8104  -12532760.21143  -9752317.39742  21639293.3954   21639293.3974
        54.0004         47.0004
  24333396.2194   13098642.91943  10204828.38642  24333398.5804   24333398.0374
        46.0004         40.0004
  22909848.3174    4949494.57143   3860551.75042  22909849.9374   22909851.5654
        50.0004         43.0004
 04  6 21 16 42 40.0000000  0 10G22G21G18G 3G 6G14G16G15G29G26
  21223456.3414  -12489815.75244  -9728192.07742  21223457.0764   21223454.2904
        57.0004         49.0004
  20533147.3224   -3201113.56944  -2490059.12142  20533148.7334   20533146.7454
        57.0004         50.0004
  20459203.0504     192261.73843    153837.11642  20459204.6884   20459202.6834
        56.0004         51.0004
  23366160.7764   -8681973.82643  -6713865.74942  23366162.0934   23366162.2294
        48.0004         41.0004
  22658207.8044   15401601.96343  11999679.62942  22658208.5544   22658211.8924
        50.0004         43.0004
  24495152.1164   -3698286.38843  -2783899.11442  24495154.9034   24495156.0964
        44.0004         38.0004
  23999352.8074     565390.59443    442140.37342  23999354.0214   23999355.0564
        46.0004         39.0004
  21631192.7244  -12575322.55943  -9785482.83742  21631193.7054   21631194.4394
        54.0004         47.0004
  24344761.3734   13158367.79843  10251367.23542  24344764.2604   24344763.6704
        45.0004         39.0004
  22920456.7764    5005242.95743   3903992.02042  22920460.0194   22920459.8934
        49.0004         43.0004
 04  6 21 16 43  0.0000000  0 10G22G21G18G 3G 6G14G16G15G29G26
  21218158.8384  -12517655.44344  -9749885.31442  21218159.1074   21218156.6114
        57.0004         49.0004
  20533824.2904   -3197556.99044  -2487287.76842  20533825.6554   20533823.3964
        57.0004         50.0004
  20460600.7214     199606.30743    159560.15642  20460602.2924   20460599.9694
        56.0004         51.0004
  23355674.9594   -8737079.51043  -6756805.21242  23355675.5104   23355675.7574
        48.0004         41.0004
  22670793.7584   15467743.28443  12051218.23242  22670795.3914   22670797.3234
        50.0004         43.0004
  24480732.4054   -3774057.81743  -2842941.63142  24480734.5964   24480738.2094
        43.0004         37.0004
  24005191.0584     596069.11643    466045.67242  24005191.6814   24005191.8884
        46.0004         39.0004
  21623103.3064  -12617833.96343  -9818608.59642  21623104.5174   21623104.3044
        54.0004         47.0004
  24356149.0224   13218214.16743  10298000.73642  24356151.2954   24356152.5904
        43.0004         38.0004
  22931103.9874    5061193.69943   3947589.95042  22931105.4924   22931106.5354
        49.0004         42.0004
 04  6 21 16 43 20.0000000  0 10G22G21G18G 3G 6G14G16G15G29G26
  21212890.6254  -12545338.66644  -9771456.63342  21212890.9934   21212888.1154
        57.0004         49.0004
  20534524.4394   -3193876.01544  -2484419.48042  20534526.2554   20534523.8304
        57.0004         50.0004
  20462027.4304     207104.43843    165402.85742  20462029.0104   20462027.1634
        56.0004         51.0004
  23345215.7634   -8792037.91443  -6799629.89942  23345218.1554   23345220.1654
        48.0004         41.0004
  22683401.0104   15533995.09043  12102842.92042  22683404.2434   22683404.3264
        50.0004         43.0004
  24466318.0084   -3849816.40443  -2901974.13242  24466320.0954   24466323.7574
        42.0004         37.0004
  24011057.9954     626902.37943    490071.55342  24011057.1464   24011058.3374
        46.0004         39.0004
  21615023.3974  -12660289.52243  -9851690.82442  21615025.1344   21615025.2524
        54.0004         47.0004
  24367561.8074   13278185.73743  10344731.80742  24367563.4784   24367566.1474
        43.0004         38.0004
  22941789.3264    5117350.34343   3991348.33942  22941791.9534   22941793.0724
        49.0004         43.0004
 04  6 21 16 43 40.0000000  0 10G22G21G18G 3G 6G14G16G15G29G26
  21207652.3364  -12572868.07744  -9792908.09742  21207652.6724   21207649.5544
        57.0004         49.0004
  20535248.1204   -3190072.94344  -2481456.05342  20535249.5234   20535247.4124
        57.0004         50.0004
  20463483.0754     214753.22143    171362.94742  20463484.7374   20463482.7574
        56.0004         51.0004
  23334786.7144   -8846850.67943  -6842341.14142  23334788.1224   23334788.7654
        49.0004         41.0004
  22696029.4624   15600354.36343  12154551.35442  22696030.5484   22696031.9624
        50.0004         43.0004
  24451903.9834   -3925564.04743  -2960998.10542  24451904.0304   24451907.0944
        45.0004         38.0004
  24016953.5664     657887.34443    514215.64242  24016956.1544   24016958.2424
        46.0004         39.0004
  21606955.2974  -12702691.46343  -9884731.27842  21606956.6974   21606956.4584
        54.0004         47.0004
  24378995.1954   13338279.23843  10391557.89642  24378996.7394   24378999.0624
        42.0004         37.0004
  22952515.5414    5173709.68543   4035264.67342  22952518.1604   22952517.4094
        50.0004         43.0004
 04  6 21 16 44  0.0000000  0 10G22G21G18G 3G 6G14G16G15G29G26
  21202441.4764  -12600249.63044  -9814244.34642  21202441.9354   21202439.0844
        57.0004         49.0004
  20535994.4084   -3186153.53444  -2478401.97042  20535995.6884   20535993.3344
        58.0004         50.0004
  20464965.9184     222546.32443    177435.50042  20464967.5634   20464965.7384
        56.0004         51.0004
  23324382.8084   -8901523.12743  -6884943.03842  23324383.9244   23324385.4204
        48.0004         41.0004
  22708676.4834   15666814.30843  12206338.23142  22708678.3684   22708678.1364
        50.0004         43.0004
  24437488.5584   -4001305.94643  -3020017.58942  24437490.0744   24437493.3044
        43.0004         38.0004
  24022878.4634     689017.13143    538472.59142  24022878.4814   24022879.4404
        46.0004         39.0004
  21598895.3384  -12745045.44743  -9917734.35342  21598896.4124   21598896.8754
        54.0004         47.0004
  24390454.4484   13398487.88743  10438473.67442  24390456.3344   24390457.3394
        43.0004         37.0004
  22963276.7264    5230264.80643   4079333.57342  22963279.1884   22963281.0454
        49.0004         42.0004
 04  6 21 16 44 20.0000000  0 10G22G21G18G 3G 6G14G16G15G29G26
  21197260.7434  -12627475.01244  -9835458.90442  21197261.0564   21197258.3264
        57.0004         49.0004
  20536763.8404   -3182109.04044  -2475250.41642  20536765.2184   20536762.9014
        57.0004         50.0004
  20466478.0804     230492.05043    183626.97442  20466479.4514   20466477.5684
        56.0004         51.0004
  23314006.4374   -8956046.02143  -6927428.36842  23314007.8054   23314010.1044
        48.0004         41.0004
  22721343.4384   15733382.81943  12258209.70142  22721344.9094   22721347.4174
        50.0004         43.0004
  24423078.7054   -4077032.67443  -3079025.23142  24423081.5474   24423084.6764
        45.0004         38.0004
  24028830.5384     720299.46843    562848.40142  24028831.6134   24028833.8144
        46.0004         39.0004
  21590846.6294  -12787342.59043  -9950693.14542  21590847.7904   21590848.1774
        54.0004         47.0004
  24401936.2024   13458819.49643  10485485.33242  24401936.4914   24401936.2704
        43.0004         37.0004
  22974077.6484    5287023.52343   4123561.12642  22974080.5814   22974082.3134
        49.0004         42.0004
 04  6 21 16 44 40.0000000  0 10G22G21G18G 3G 6G14G16G15G29G26
  21192108.7934  -12654547.46544  -9856554.29442  21192109.2304   21192106.2614
        57.0004         49.0004
  20537556.8254   -3177942.30744  -2472003.61342  20537558.4204   20537555.9924
        57.0004         50.0004
  20468018.2004     238586.64043    189934.44442  20468019.8244   20468017.8254
        56.0004         51.0004
  23303659.4084   -9010421.94343  -6969799.20842  23303661.4604   23303661.5344
        48.0004         41.0004
  22734031.3644   15800055.98443  12310162.72242  22734033.2954   22734034.1924
        50.0004         43.0004
  24408670.5914   -4152746.75043  -3138023.07442  24408673.4844   24408675.1084
        45.0004         38.0004
  24034812.4874     751730.40543    587340.01542  24034813.8424   24034814.5004
        46.0004         39.0004
  21582808.0774  -12829585.88543  -9983609.97042  21582808.9134   21582809.7324
        54.0004         47.0004
  24413438.0394   13519270.12543  10532589.69642  24413440.6764   24413439.7814
        43.0004         37.0004
  22984917.3664    5343981.49443   4167943.92542  22984919.3454   22984918.0594
        50.0004         42.0004
 04  6 21 16 45  0.0000000  0 10G22G21G18G 3G 6G14G16G15G29G26
  21186986.5204  -12681465.45944  -9877529.32842  21186987.0554   21186983.9324
        57.0004         49.0004
  20538373.1974   -3173651.58344  -2468660.19842  20538374.6034   20538372.6284
        57.0004         50.0004
  20469587.1034     246831.37343    196358.91542  20469588.7324   20469586.5814
        56.0004         51.0004
  23293339.5204   -9064648.64343  -7012053.74942  23293341.2124   23293343.5894
        48.0004         41.0004
  22746739.5814   15866834.59243  12362197.90342  22746741.7074   22746742.5794
        50.0004         43.0004
  24394266.4284   -4228445.86143  -3197009.24442  24394267.7674   24394271.6794
        44.0004         38.0004
  24040820.4994     783310.77443    611948.06742  24040822.8254   24040823.8984
        46.0004         39.0004
  21574780.2114  -12871773.45843 -10016483.37642  21574781.3974   21574780.7744
        54.0004         47.0004
  24424964.7034   13579840.51743  10579787.41542  24424965.3744   24424966.6384
        45.0004         37.0004
  22995794.1434    5401139.47343   4212482.58442  22995794.0754   22995796.1044
        50.0004         42.0004
 04  6 21 16 45 20.0000000  0 10G22G21G18G 3G 6G14G16G15G29G26
  21181893.1714  -12708231.83844  -9898386.22642  21181893.7784   21181890.7194
        57.0004         49.0004
  20539212.6054   -3169239.42044  -2465222.15142  20539214.2224   20539212.1434
        57.0004         50.0004
  20471184.2774     255223.25443    202898.04742  20471185.7874   20471183.9294
        56.0004         51.0004
  23283050.1044   -9118727.85243  -7054193.37142  23283051.6384   23283052.0834
        49.0004         41.0004
  22759466.4104   15933715.26043  12414312.61442  22759467.9544   22759469.1194
        50.0004         43.0004
  24379862.9054   -4304131.85543  -3255985.16742  24379863.5804   24379867.7954
        44.0004         38.0004
  24046859.1454     815037.13543    636669.87342  24046860.0304   24046862.1144
        45.0004         39.0004
  21566762.1034  -12913907.59043 -10049315.15442  21566762.7764   21566763.4324
        54.0004         47.0004
  24436513.0064   13640527.36243  10627075.88442  24436514.2884   24436515.3724
        43.0004         37.0004
  23006707.9154    5458493.95143   4257174.35942  23006709.4134   23006712.2754
        49.0004         42.0004
 04  6 21 16 45 40.0000000  0 10G22G21G18G 3G 6G14G16G15G29G26
  21176828.7434  -12734845.08144  -9919123.79242  21176829.1274   21176826.5854
        57.0004         49.0004
  20540075.6394   -3164703.82644  -2461687.92542  20540077.2234   20540075.3674
        57.0004         50.0004
  20472809.1624     263763.40543    209552.70542  20472810.8834   20472808.9834
        56.0004         51.0004
  23272786.6494   -9172657.54643  -7096216.48342  23272786.8834   23272788.4324
        49.0004         41.0004
  22772211.8614   16000698.84843  12466507.51942  22772214.1724   22772216.2844
        49.0004         43.0004
  24365462.5514   -4379802.40643  -3314949.03942  24365465.1994   24365468.2534
        46.0004         39.0004
  24052924.1284     846910.20143    661506.00242  24052925.4384   24052926.3094
        45.0004         39.0004
  21558754.3404  -12955986.52543 -10082103.91042  21558756.3094   21558755.8084
        55.0004         47.0004
  24448082.6054   13701331.36343  10674455.62542  24448085.4674   24448087.2694
        43.0004         37.0004
  23017659.7744    5516045.68943   4302019.82442  23017661.8714   23017661.7634
        50.0004         42.0004
 04  6 21 16 46  0.0000000  0 10G22G21G18G 3G 6G14G16G15G29G26
  21171793.2374  -12761305.82744  -9939742.52942  21171793.5544   21171790.6324
        57.0004         49.0004
  20540962.6274   -3160044.85544  -2458057.55642  20540963.9214   20540961.9354
        57.0004         50.0004
  20474462.4714     272450.71043    216322.03142  20474463.7674   20474461.9954
        56.0004         51.0004
  23262554.0134   -9226437.45743  -7138122.89942  23262554.9734   23262553.9614
        49.0004         42.0004
  22784978.9364   16067784.23043  12518781.75042  22784979.8324   22784982.2254
        49.0004         43.0004
  24351066.3594   -4455457.28943  -3373900.71342  24351068.0864   24351071.9044
        47.0004         39.0004
  24059017.2984     878928.85743    686455.58742  24059018.2044   24059019.6044
        46.0004         39.0004
  21550758.2464  -12998010.35743 -10114849.73242  21550759.0934   21550759.2794
        54.0004         47.0004
  24459676.6854   13762251.30643  10721925.69842  24459676.2944   24459679.2164
        44.0004         37.0004
  23028649.7444    5573793.18443   4347017.82742  23028651.0144   23028650.7024
        50.0004         42.0004
 04  6 21 16 46 20.0000000  0 10G22G21G18G 3G 6G14G16G15G29G26
  21166786.6904  -12787617.73644  -9960245.29542  21166786.7114   21166783.8714
        57.0004         49.0004
  20541871.6254   -3155266.22344  -2454333.95242  20541873.0924   20541871.3224
        57.0004         50.0004
  20476142.8694     281281.24443    223202.97042  20476144.3174   20476142.4124
        56.0004         51.0004
  23252347.4574   -9280070.78143  -7179915.07242  23252347.4384   23252347.2964
        48.0004         41.0004
  22797763.4244   16134966.87843  12571131.75742  22797764.8304   22797766.5234
        49.0004         42.0004
  24336672.4024   -4531099.40343  -3432842.49442  24336673.8574   24336677.0574
        45.0004         39.0004
  24065136.1304     911088.52943    711515.03242  24065137.3164   24065141.2624
        45.0004         39.0004
  21542770.9954  -13039982.42043 -10147555.22142  21542772.0374   21542771.9664
        55.0004         47.0004
  24471289.9144   13823282.74543  10769482.62242  24471291.9914   24471294.6434
        44.0004         37.0004
  23039674.2404    5631731.80843   4392164.76142  23039675.6184   23039676.7874
        50.0004         42.0004
 04  6 21 16 46 40.0000000  0 10G22G21G18G 3G 6G14G16G15G29G26
  21161809.8284  -12813769.10744  -9980622.96142  21161810.1494   21161807.5004
        57.0004         49.0004
  20542806.5504   -3150355.86744  -2450507.70342  20542807.8284   20542805.5014
        58.0004         50.0004
  20477852.4504     290266.65143    230204.58542  20477854.0844   20477852.0544
        56.0004         51.0004
  23242171.3674   -9333544.63843  -7221582.99442  23242173.0894   23242171.8114
        49.0004         41.0004
  22810568.3064   16202258.11443  12623566.38942  22810570.6724   22810572.3904
        49.0004         43.0004
  24322281.8324   -4606716.17243  -3491764.51042  24322284.0224   24322286.6394
        45.0004         39.0004
  24071284.6984     943400.38343    736693.05542  24071287.7814   24071289.8314
        45.0004         38.0004
  21534795.4134  -13081890.47343 -10180210.82742  21534797.0664   21534797.0384
        54.0004         47.0004
  24482927.1114   13884436.67343  10817135.01142  24482929.4844   24482931.3064
        46.0004         38.0004
  23050739.1994    5689872.83243   4437469.43742  23050740.3384   23050739.4224
        50.0004         42.0004
 04  6 21 16 47  0.0000000  0 10G22G21G18G 3G 6G14G16G15G29G26
  21156861.8254  -12839772.72344 -10000885.49942  21156862.2414   21156859.1004
        57.0004         49.0004
  20543763.5144   -3145325.89844  -2446588.25042  20543765.0464   20543762.6614
        57.0004         50.0004
  20479589.6274     299393.71043    237316.57742  20479591.2804   20479589.1104
        56.0004         51.0004
  23232022.8064   -9386870.91143  -7263135.90842  23232024.6804   23232025.1604
        49.0004         42.0004
  22823391.2694   16269644.61943  12676075.24942  22823394.0224   22823395.8304
        49.0004         42.0004
  24307895.1264   -4682319.14643  -3550675.79142  24307897.2454   24307899.0764
        46.0004         39.0004
  24077460.7854     975851.02343    761979.23042  24077463.1274   24077464.7924
        45.0004         38.0004
  21526830.7954  -13123746.76843 -10212826.10442  21526831.7674   21526831.8154
        54.0004         47.0004
  24494585.9324   13945699.81343  10864872.51142  24494587.5114   24494588.3524
        47.0004         39.0004
  23061837.1154    5748202.65943   4482921.23242  23061838.6364   23061839.7484
        49.0004         41.0004
 04  6 21 16 47 20.0000000  0 10G22G21G18G 3G 6G14G16G15G29G26
  21151942.1254  -12865624.01744 -10021029.34242  21151942.7064   21151939.9004
        57.0004         49.0004
  20544743.9354   -3140171.28444  -2442571.67342  20544745.6344   20544743.3354
        57.0004         50.0004
  20481354.2624     308666.94943    244542.47842  20481355.9384   20481353.9634
        56.0004         51.0004
  23221905.1224   -9440044.17343  -7304569.61242  23221906.7414   23221906.3864
        49.0004         41.0004
  22836233.4554   16337130.20843  12728661.33842  22836233.8294   22836237.4434
        49.0004         43.0004
  24293512.9324   -4757902.98143  -3609572.16742  24293515.3624   24293516.8994
        45.0004         39.0004
  24083663.1084    1008444.36643    787376.59942  24083663.5564   24083666.9484
        45.0004         38.0004
  21518877.1864  -13165546.38743 -10245397.22242  21518877.3894   21518878.0024
        55.0004         47.0004
  24506264.0284   14007076.10143  10912698.18642  24506266.6164   24506267.8324
        46.0004         39.0004
  23072975.2274    5806725.00743   4528523.01842  23072975.7314   23072976.7474
        49.0004         42.0004
 04  6 21 16 47 40.0000000  0 10G22G21G18G 3G 6G14G16G15G29G26
  21147051.6524  -12891323.60744 -10041054.97642  21147052.1254   21147049.2264
        57.0004         49.0004
  20545748.5944   -3134892.43744  -2438458.28742  20545750.3704   20545748.0524
        57.0004         50.0004
  20483146.2664     318085.22343    251881.39942  20483147.7954   20483145.9074
        56.0004         51.0004
  23211815.2944   -9493064.46143  -7345884.11742  23211817.9754   23211816.4934
        49.0004         42.0004
  22849095.0704   16404713.80343  12781323.76542  22849096.3024   22849098.0384
        49.0004         43.0004
  24279133.2044   -4833467.57643  -3668453.55542  24279134.9084   24279136.8184
        47.0004         39.0004
  24089891.9904    1041179.10343    812884.14442  24089893.9524   24089895.4764
        45.0004         38.0004
  21510933.0774  -13207289.52443 -10277924.32442  21510934.4824   21510935.2644
        54.0004         47.0004
  24517966.7264   14068564.19043  10960610.98942  24517966.9634   24517968.5164
        46.0004         38.0004
  23084146.8694    5865438.54143   4574273.81042  23084147.2374   23084148.6254
        49.0004         41.0004
 04  6 21 16 48  0.0000000  0 10G22G21G18G 3G 6G14G16G15G29G26
  21142190.3814  -12916870.09244 -10060961.30042  21142190.8474   21142187.8384
        57.0004         49.0004
  20546777.3564   -3129487.95044  -2434247.00842  20546778.6874   20546776.4934
        57.0004         50.0004
  20484966.3864     327649.60143    259334.16042  20484967.9944   20484966.0264
        56.0004         51.0004
  23201756.4464   -9545929.71143  -7387077.79742  23201756.6204   23201758.9774
        49.0004         42.0004
  22861973.8234   16472396.00043  12834063.04142  22861976.3344   22861975.8224
        49.0004         43.0004
  24264757.8754   -4909010.78343  -3727318.25042  24264759.8874   24264761.6804
        45.0004         39.0004
  24096148.6054    1074055.70043    838502.23742  24096151.2284   24096151.5744
        45.0004         38.0004
  21503000.1544  -13248974.61143 -10310406.19342  21503002.2104   21503001.8734
        54.0004         47.0004
  24529688.2814   14130164.74243  11008611.42342  24529689.0044   24529691.3114
        46.0004         38.0004
  23095355.9124    5924343.52743   4620173.74342  23095357.0034   23095358.2284
        48.0004         41.0004
 04  6 21 16 48 20.0000000  0 10G22G21G18G 3G 6G14G16G15G29G26
  21137358.0164  -12942263.20444 -10080748.11842  21137358.7834   21137355.7214
        57.0004         49.0004
  20547829.7494   -3123956.87244  -2429937.08742  20547831.0414   20547829.3294
        57.0004         50.0004
  20486814.1764     337360.14143    266900.81242  20486815.6854   20486813.6894
        56.0004         51.0004
  23191726.1344   -9598638.57143  -7428149.63642  23191727.2464   23191728.5964
        50.0004         42.0004
  22874872.4574   16540176.46543  12886878.89442  22874873.8984   22874875.7494
        49.0004         43.0004
  24250387.2594   -4984531.33543  -3786165.30642  24250386.9404   24250389.2644
        45.0004         39.0004
  24102432.1734    1107073.94243    864230.68942  24102433.2984   24102436.1694
        45.0004         38.0004
  21495079.8004  -13290600.83443 -10342842.19442  21495080.6544   21495081.1154
        54.0004         47.0004
  24541430.8634   14191877.35443  11056699.15942  24541434.7434   24541434.0944
        45.0004         38.0004
  23106601.9914    5983439.71943   4666222.69642  23106601.7474   23106604.8264
        48.0004         41.0004
 04  6 21 16 48 40.0000000  0 10G22G21G18G 3G 6G14G16G15G29G26
  21132554.8874  -12967505.82144 -10100417.66342  21132555.1784   21132552.2484
        57.0004         49.0004
  20548905.9074   -3118301.76144  -2425530.51142  20548907.5614   20548904.9154
        57.0004         50.0004
  20488689.4144     347213.69643    274578.91242  20488690.8344   20488688.8094
        56.0004         51.0004
  23181724.1684   -9651193.08843  -7469101.19042  23181725.7184   23181725.9884
        49.0004         42.0004
  22887788.5344   16608051.75443  12939768.63642  22887789.4394   22887791.9544
        49.0004         43.0004
  24236018.5294   -5060031.15843  -3844996.20942  24236020.8634   24236022.6144
        46.0004         39.0004
  24108741.3734    1140230.13343    890066.63742  24108742.3664   24108745.0844
        45.0004         38.0004
  21487169.4634  -13332170.55243 -10375234.15942  21487170.8874   21487170.4824
        55.0004         47.0004
  24553196.3654   14253698.59943  11104871.54942  24553196.9934   24553197.7434
        46.0004         38.0004
  23117883.5304    6042723.49543   4712417.80442  23117885.0854   23117885.8574
        49.0004         42.0004
 04  6 21 16 49  0.0000000  0 10G22G21G18G 3G 6G14G16G15G29G26
  21127779.7464  -12992598.43544 -10119970.32042  21127780.4864   21127777.0944
        57.0004         49.0004
  20550005.5834   -3112522.82944  -2421027.45542  20550007.2064   20550004.8924
        57.0004         50.0004
  20490591.5384     357209.57643    282367.90642  20490593.2594   20490591.0524
        56.0004         51.0004
  23171752.1484   -9703593.18643  -7509932.42242  23171754.5714   23171755.8694
        49.0004         42.0004
  22900723.1464   16676020.77043  12992731.41542  22900723.8534   22900726.6074
        50.0004         43.0004
  24221656.7694   -5135509.81643  -3903810.63242  24221658.1234   24221659.3904
        46.0004         39.0004
  24115077.1244    1173523.15143    916009.21542  24115079.1034   24115080.9574
        45.0004         38.0004
  21479269.2504  -13373683.80043 -10407582.13042  21479270.8044   21479270.9064
        55.0004         47.0004
  24564980.6634   14315627.23343  11153127.60242  24564982.7334   24564982.2724
        45.0004         39.0004
  23129199.8114    6102193.41243   4758757.97242  23129201.3264   23129200.9894
        49.0004         42.0004
 04  6 21 16 49 20.0000000  0 10G22G21G18G 3G 6G14G16G15G29G26
  21123033.8614  -13017537.21944 -10139403.11442  21123034.4404   21123031.4584
        57.0004         49.0004
  20551129.5054   -3106615.72344  -2416424.52142  20551131.5024   20551128.9414
        57.0004         50.0004
  20492520.8494     367351.32343    290270.56242  20492523.0134   20492520.9974
        56.0004         51.0004
  23161812.3044   -9755834.04743  -7550639.57042  23161813.8944   23161814.5574
        50.0004         42.0004
  22913675.6264   16744086.73243  13045769.73542  22913677.2294   22913679.5354
        50.0004         43.0004
  24207297.7274   -5210962.59443  -3962604.89942  24207300.0964   24207301.8814
        45.0004         39.0004
  24121438.7474    1206956.19943    942060.90642  24121441.2234   24121441.9944
        45.0004         38.0004
  21471381.2244  -13415136.28843 -10439882.74242  21471382.7134   21471382.4454
        54.0004         47.0004
  24576786.6094   14377666.55243  11201469.91742  24576788.0414   24576789.4054
        45.0004         39.0004
  23140552.7334    6161852.67143   4805245.65542  23140555.5724   23140555.1044
        49.0004         42.0004
 04  6 21 16 49 40.0000000  0 10G22G21G18G 3G 6G14G16G15G29G26
  21118317.0334  -13042324.38644 -10158717.76942  21118317.1244   21118314.3944
        57.0004         49.0004
  20552277.3574   -3100582.30944  -2411723.17042  20552278.9724   20552277.2204
        57.0004         50.0004
  20494478.6674     377636.52943    298285.01242  20494480.2764   20494478.0844
        56.0004         51.0004
  23151901.4834   -9807917.04143  -7591223.70942  23151903.1494   23151903.4504
        50.0004         42.0004
  22926645.5954   16812246.88743  13098881.44142  22926647.6034   22926648.5354
        50.0004         42.0004
  24192944.0214   -5286390.85343  -4021380.06842  24192945.6864   24192948.5714
        45.0004         38.0004
  24127825.3644    1240526.35143    968219.45042  24127827.7514   24127829.8924
        44.0004         38.0004
  21463504.4134  -13456529.81943 -10472137.42842  21463505.5344   21463505.0404
        55.0004         47.0004
  24588613.2654   14439813.55743  11249896.09442  24588613.3734   24588617.2524
        45.0004         39.0004
  23151941.2604    6221698.12943   4851878.42742  23151942.1814   23151943.0934
        49.0004         42.0004
 04  6 21 16 50  0.0000000  0 10G22G21G18G 3G 6G14G16G15G29G26
  21113629.0774  -13066961.11044 -10177915.19342  21113629.6064   21113626.5094
        57.0004         49.0004
  20553449.6834   -3094423.37444  -2406924.01242  20553451.0324   20553449.2024
        57.0004         50.0004
  20496462.7644     388063.53643    306409.95342  20496464.5184   20496462.4824
        56.0004         51.0004
  23142020.4234   -9859842.50143  -7631685.10342  23142021.3044   23142021.0814
        50.0004         42.0004
  22939634.4374   16880499.41743  13152065.13142  22939636.2194   22939637.8214
        50.0004         43.0004
  24178595.0674   -5361794.88043  -4080136.36042  24178597.8594   24178598.9794
        46.0004         38.0004
  24134241.2614    1274231.99643    994483.55442  24134244.0164   24134244.7824
        45.0004         38.0004
  21455638.4784  -13497865.09343 -10504346.72342  21455639.5224   21455640.3054
        55.0004         47.0004
  24600459.7084   14502066.66143  11298404.95342  24600459.9444   24600461.3224
        45.0004         40.0004
  23163363.9954    6281728.04943   4898654.94642  23163366.7214   23163365.5664
        47.0004         41.0004
 04  6 21 16 50 20.0000000  0 10G22G21G18G 3G 6G14G16G15G29G26
  21108969.9704  -13091443.52244 -10196992.37142  21108970.5284   21108967.5424
        57.0004         49.0004
  20554646.5424   -3088134.64344  -2402023.70542  20554648.0504   20554646.0044
        57.0004         50.0004
  20498474.7294     398636.01943    314648.25042  20498476.2804   20498473.9954
        56.0004         51.0004
  23132169.4844   -9911605.88843  -7672020.20142  23132170.8444   23132172.6914
        49.0004         42.0004
  22952640.5004   16948847.65243  13205323.38742  22952642.7734   22952643.2924
        49.0004         42.0004
  24164251.7264   -5437169.90243  -4138870.02742  24164254.0514   24164257.7344
        48.0004         39.0004
  24140681.3124    1308076.13843   1020855.59042  24140683.9384   24140685.2204
        45.0004         38.0004
  21447784.6914  -13539137.75643 -10536507.21842  21447785.9194   21447785.9624
        55.0004         47.0004
  24612326.1184   14564429.02343  11346998.94642  24612327.5104   24612329.3374
        46.0004         40.0004
  23174823.4834    6341945.40143   4945577.52942  23174827.5314   23174825.5994
        49.0004         41.0004
 04  6 21 16 50 40.0000000  0 10G22G21G18G 3G 6G14G16G15G29G26
  21104339.2474  -13115779.59344 -10215955.52342  21104339.5734   21104336.3094
        57.0004         49.0004
  20555866.7304   -3081723.77944  -2397028.23442  20555868.2124   20555866.1804
        58.0004         50.0004
  20500512.3274     409345.70943    322993.46042  20500514.2774   20500512.1824
        56.0004         51.0004
  23122349.5584   -9963214.29143  -7712234.52342  23122351.0854   23122351.2654
        49.0004         42.0004
  22965663.3584   17017282.88843  13258649.44942  22965664.6364   22965666.4314
        49.0004         42.0004
  24149912.1114   -5512523.06143  -4197586.67742  24149913.2734   24149916.0854
        47.0004         39.0004
  24147146.1534    1342049.93543   1047328.66042  24147148.3454   24147148.8414
        44.0004         38.0004
  21439940.3854  -13580355.36743 -10568624.82042  21439941.6714   21439942.9324
        54.0004         47.0004
  24624212.7284   14626891.87443  11395671.25642  24624213.6414   24624213.4864
        46.0004         39.0004
  23186316.2874    6402341.43143   4992639.33542  23186318.4454   23186318.9624
        47.0004         41.0004
 04  6 21 16 51  0.0000000  0 10G22G21G18G 3G 6G14G16G15G29G26
  21099737.2734  -13139960.90644 -10234798.08042  21099737.7314   21099734.9154
        57.0004         49.0004
  20557111.5064   -3075182.09244  -2391930.82142  20557112.9164   20557110.9214
        58.0004         50.0004
  20502577.9444     420200.74543    331451.93342  20502579.7984   20502577.6764
        56.0004         50.0004
  23112559.3844  -10014658.41943  -7752320.84542  23112559.6274   23112562.1734
        49.0004         42.0004
  22978703.9294   17085812.91343  13312049.37142  22978706.5964   22978707.3844
        49.0004         42.0004
  24135578.2944   -5587844.92543  -4256278.91042  24135579.0544   24135583.2574
        47.0004         39.0004
  24153637.2574    1376161.34343   1073908.92042  24153636.9704   24153641.5724
        44.0004         38.0004
  21432109.6684  -13621508.98443 -10600692.55642  21432110.5854   21432111.4194
        54.0004         47.0004
  24636118.9314   14689462.86843  11444427.87642  24636121.3994   24636121.8364
        46.0004         39.0004
  23197844.3504    6462923.73543   5039846.28342  23197847.0434   23197847.3564
        47.0004         41.0004
 04  6 21 16 51 20.0000000  0 10G22G21G18G 3G 6G14G16G15G29G26
  21095164.5094  -13163992.90044 -10253524.28942  21095164.6864   21095161.8484
        57.0004         49.0004
  20558380.0724   -3068514.50544  -2386735.30942  20558381.4644   20558379.4534
        58.0004         50.0004
  20504670.5434     431195.49343    340019.26542  20504671.9954   20504669.9724
        56.0004         51.0004
  23102800.2014  -10065942.84543  -7792282.70642  23102801.9864   23102802.0044
        49.0004         42.0004
  22991762.0334   17154431.84243  13365518.55042  22991763.3084   22991766.2464
        49.0004         42.0004
  24121250.2294   -5663139.94343  -4314950.23742  24121251.8514   24121252.1324
        47.0004         38.0004
  24160153.4924    1410404.27943   1100591.69742  24160154.7964   24160155.6914
        44.0004         37.0004
  21424290.0284  -13662603.42943 -10632714.19442  21424291.1024   21424291.5614
        55.0004         47.0004
  24648045.1544   14752136.31343  11493264.32542  24648046.7794   24648048.0134
        46.0004         39.0004
  23209408.0034    6523686.19343   5087193.62142  23209409.4264   23209412.8474
        47.0004         41.0004
 04  6 21 16 51 40.0000000  0 10G22G21G18G 3G 6G14G16G15G29G26
  21090619.9814  -13187873.24444 -10272132.32842  21090620.8234   21090617.3624
        57.0004         49.0004
  20559673.3504   -3061718.17144  -2381439.47442  20559674.4624   20559672.7184
        57.0004         50.0004
  20506789.7494     442332.00643    348697.06642  20506791.4414   20506789.4744
        56.0004         51.0004
  23093071.5264  -10117064.43843  -7832117.70542  23093073.7794   23093075.1914
        49.0004         42.0004
  23004836.9724   17223141.39243  13419058.34642  23004837.9684   23004841.4334
        48.0004         42.0004
  24106927.8674   -5738404.95343  -4373598.20342  24106929.1124   24106930.6354
        45.0004         38.0004
  24166695.4834    1444780.38443   1127378.22642  24166696.2014   24166697.6914
        45.0004         37.0004
  21416481.5364  -13703636.05143 -10664687.64542  21416482.3194   21416482.7264
        54.0004         47.0004
  24659992.0944   14814913.58943  11542181.68642  24659994.1454   24659995.6024
        45.0004         39.0004
  23221004.8034    6584630.26343   5134682.45042  23221009.0754   23221008.1674
        48.0004         41.0004
 04  6 21 16 52  0.0000000  0 10G22G21G18G 3G 6G14G16G15G29G26
  21086104.4674  -13211602.07344 -10290622.29942  21086105.0994   21086101.8324
        57.0004         49.0004
  20560991.3424   -3054793.03844  -2376043.27042  20560993.0724   20560990.9854
        58.0004         50.0004
  20508935.8094     453609.78643    357484.94842  20508937.1814   20508935.6384
        56.0004         51.0004
  23083376.4424  -10168022.49043  -7871825.28642  23083377.7614   23083377.0634
        50.0004         42.0004
  23017929.5844   17291940.88743  13472668.26442  23017930.9994   23017933.2314
        49.0004         42.0004
  24092611.1694   -5813639.28043  -4432222.26442  24092612.3354   24092616.1014
        45.0004         38.0004
  24173263.1814    1479288.83043   1154267.90742  24173262.2934   24173265.1144
        45.0004         37.0004
  21408685.1354  -13744606.49543 -10696612.65142  21408686.0744   21408686.1494
        55.0004         47.0004
  24671957.0054   14877794.08343  11591179.43542  24671958.8334   24671960.0134
        44.0004         38.0004
  23232637.9704    6645755.17543   5182312.20542  23232640.6344   23232640.1934
        50.0004         42.0004
 04  6 21 16 52 20.0000000  0 10G22G21G18G 3G 6G14G16G15G29G26
  21081617.2724  -13235183.78244 -10308997.64042  21081617.6514   21081614.6134
        57.0004         49.0004
  20562333.2364   -3047742.93444  -2370549.68742  20562334.6614   20562332.4104
        58.0004         50.0004
  20511107.5564     465024.23443    366379.32342  20511109.1604   20511107.2404
        56.0004         50.0004
  23073707.8054  -10218820.48443  -7911408.10242  23073711.3584   23073711.4934
        49.0004         42.0004
  23031037.3844   17360825.47643  13526344.48442  23031039.7544   23031039.5594
        49.0004         42.0004
  24078299.7004   -5888846.30443  -4490825.06142  24078301.5384   24078303.8484
        45.0004         38.0004
  24179854.2974    1513924.69643   1181256.86842  24179855.2704   24179855.5504
        45.0004         37.0004
  21400899.4654  -13785518.68943 -10728492.27342  21400900.8524   21400900.8634
        55.0004         47.0004
  24683941.3254   14940772.94343  11640253.82142  24683943.5124   24683946.1274
        43.0004         38.0004
  23244300.6844    6707055.71143   5230078.85142  23244303.2284   23244305.4244
        47.0004         42.0004
 04  6 21 16 52 40.0000000  0 10G22G21G18G 3G 6G14G16G15G29G26
  21077158.9814  -13258611.30044 -10327252.82542  21077159.5414   21077156.1094
        57.0004         49.0004
  20563699.9484   -3040560.69844  -2364953.14342  20563701.2174   20563698.9604
        58.0004         50.0004
  20513307.1944     476582.13943    375385.49242  20513309.0874   20513307.2194
        56.0004         51.0004
  23064073.7974  -10269450.69443  -7950860.19642  23064074.2634   23064075.5784
        49.0004         42.0004
  23044163.2504   17429801.25543  13580091.76542  23044164.7574   23044167.2194
        48.0004         41.0004
  24063995.7264   -5964018.06243  -4549400.37842  24063996.1014   24063999.5694
        44.0004         38.0004
  24186469.9034    1548694.08943   1208349.86342  24186472.9654   24186472.8054
        45.0004         37.0004
  21393126.5824  -13826365.21543 -10760320.71742  21393128.0744   21393127.7324
        55.0004         47.0004
  24695945.4384   15003856.31843  11689409.67842  24695947.6294   24695949.3544
        41.0004         37.0004
  23256002.0704    6768538.10643   5277987.13942  23256004.0674   23256003.9794
        48.0004         41.0004
 04  6 21 16 53  0.0000000  0 10G22G21G18G 3G 6G14G16G15G29G26
  21072728.7004  -13281892.51444 -10345394.00942  21072729.2924   21072725.9884
        57.0004         49.0004
  20565089.7634   -3033253.65044  -2359259.34542  20565091.5324   20565089.5694
        57.0004         50.0004
  20515532.3364     488275.42643    384497.13842  20515534.1674   20515532.0034
        56.0004         51.0004
  23054470.4014  -10319920.16343  -7990187.04042  23054472.7564   23054470.1414
        50.0004         42.0004
  23057305.0164   17498859.88243  13633903.57942  23057304.9784   23057309.7244
        48.0004         42.0004
  24049696.5034   -6039161.53943  -4607953.67242  24049697.3014   24049699.5334
        45.0004         38.0004
  24193109.5324    1583588.44543   1235540.23742  24193113.3154   24193110.9004
        44.0004         37.0004
  21385365.3914  -13867153.47543 -10792103.75742  21385367.2424   21385366.1254
        55.0004         47.0004
  24707968.4124   15067035.65443  11738640.31142  24707969.5484   24707969.2694
        40.0004         36.0004
  23267734.8554    6830193.55643   5326030.29542  23267737.9624   23267736.6734
        49.0004         42.0004
 04  6 21 16 53 20.0000000  0 10G22G21G18G 3G 6G14G16G15G29G26
  21068327.7024  -13305020.53344 -10363415.81742  21068328.2524   21068324.8794
        57.0004         49.0004
  20566505.8664   -3025814.56344  -2353462.65242  20566506.9394   20566504.9054
        57.0004         50.0004
  20517784.7764     500110.69243    393719.41642  20517786.0894   20517784.3864
        56.0004         51.0004
  23044897.4664  -10370221.19843  -8029382.62342  23044899.1654   23044901.3924
        49.0004         42.0004
  23070463.2114   17568007.68143  13687784.88042  23070465.2984   23070466.7034
        48.0004         42.0004
  24035402.6534   -6114268.88043  -4666478.80542  24035403.7694   24035406.1064
        44.0004         38.0004
  24199774.7054    1618614.26243   1262833.06742  24199778.0974   24199775.9244
        44.0004         37.0004
  21377615.9434  -13907875.91443 -10823835.51442  21377616.8524   21377616.7384
        55.0004         47.0004
  24720012.6244   15130317.43043  11787950.72742  24720012.5214   24720013.9304
        42.0004         37.0004
  23279501.3014    6892028.46543   5374213.32142  23279503.7334   23279502.2424
        48.0004         41.0004
 04  6 21 16 53 40.0000000  0 10G22G21G18G 3G 6G14G16G15G29G26
  21063954.7224  -13327999.50044 -10381321.48442  21063954.9284   21063952.0044
        57.0004         49.0004
  20567945.7294   -3018247.29444  -2347566.08342  20567947.4434   20567945.2344
        58.0004         50.0004
  20520062.9534     512083.29043    403048.71442  20520064.3524   20520062.4174
        56.0004         50.0004
  23035358.0144  -10420357.21943  -8068449.63342  23035360.2834   23035360.1004
        49.0004         42.0004
  23083638.2304   17637239.84143  13741731.93842  23083640.2124   23083643.2234
        49.0004         42.0004
  24021116.2034   -6189343.41343  -4724978.37042  24021118.3494   24021119.6144
        44.0004         38.0004
  24206463.9864    1653766.43843   1290224.35342  24206464.4594   24206464.9234
        43.0004         37.0004
  21369878.2164  -13948536.30143 -10855518.91042  21369879.8474   21369879.7734
        55.0004         47.0004
  24732071.4304   15193696.68643  11837337.08942  24732074.1514   24732074.4764
        42.0004         37.0004
  23291301.5804    6954037.51843   5422532.04142  23291304.3074   23291303.9934
        48.0004         41.0004
 04  6 21 16 54  0.0000000  0 10G22G21G18G 3G 6G14G16G15G29G26
  21059610.8894  -13350826.34544 -10399108.60742  21059611.1114   21059608.3664
        57.0004         49.0004
  20569410.7664   -3010548.33344  -2341566.89742  20569412.5044   20569410.0544
        58.0004         50.0004
  20522368.0234     524196.14943    412487.31242  20522369.3804   20522367.4124
        56.0004         51.0004
  23025848.2784  -10470324.27543  -8107384.99542  23025851.4504   23025850.8884
        48.0004         42.0004
  23096827.9984   17706558.76843  13795746.58942  23096829.5754   23096831.8844
        49.0004         42.0004
  24006836.0934   -6264381.20743  -4783449.30642  24006836.9374   24006840.7094
        43.0004         38.0004
  24213177.8584    1689047.37743   1317715.95642  24213178.7504   24213180.5854
        44.0004         37.0004
  21362153.3874  -13989131.11943 -10887151.22642  21362154.2184   21362154.4194
        55.0004         47.0004
  24744151.3224   15257175.94043  11886801.39642  24744153.2194   24744154.0994
        43.0004         38.0004
  23303134.8414    7016223.34943   5470988.48042  23303137.8854   23303138.7824
        47.0004         41.0004
